[[{"header":{"parameterUnit":"m.s-1","parameterCategory":1,"la1":30.6,"la2":29.2853,"lo1":-89.7004,"lo2":-87.6739,"dx":0.0162,"dy":0.0183,"nx":112,"ny":82,"refTime":"2022-12-27T06:00:00:Z","depth":0,"parameterNumber":2,"parameterNumberName":"U-component_of_WINDS"},"data":[0.0,0.0,0.0,0.0,0.0,0.0,0.0,0.0,0.0,0.0,0.0,0.0,0.0,0.0,0.0,0.0,0.0,0.0,0.0,0.0,0.0,0.0,0.0,0.0,0.0,0.0,0.0,0.0,0.0,0.0,0.0,0.0,0.0,0.0,0.0,0.0,0.0,0.0,0.0,0.0,0.0,0.0,0.0,0.0,0.0,0.0,0.0,0.0,0.0,0.0,0.0,0.0,0.0,0.0,0.0,0.0,0.0,0.0,0.0,0.0,0.0,0.0,0.0,0.0,0.0,0.0,0.0,0.0,0.0,0.0,0.0,0.0,0.0,0.0,0.0,0.0,0.0,0.0,0.0,0.0,0.0,0.0,0.0,0.0,0.0,0.0,0.0,0.0,0.0,0.0,0.0,-1.4128,-1.1811,-0.9246,-0.6929,-0.7253,-0.7475,-0.7257,0.0,0.0,0.0,0.0,0.0,0.0,0.0,0.0,0.0,0.0,0.0,0.0,0.0,0.0,0.0,0.0,0.0,0.0,0.0,0.0,0.0,0.0,0.0,0.0,0.0,0.0,0.0,0.0,0.0,0.0,0.0,0.0,0.0,0.0,0.0,0.0,0.0,0.0,0.0,0.0,0.0,0.0,0.0,0.0,0.0,0.0,0.0,0.0,0.0,0.0,0.0,0.0,0.0,0.0,0.0,0.0,0.0,0.0,0.0,0.0,0.0,0.0,0.0,0.0,0.0,0.0,0.0,0.0,0.0,0.0,0.0,0.0,0.0,0.0,0.0,0.0,0.0,0.0,0.0,0.0,0.0,0.0,0.0,0.0,0.0,0.0,0.0,0.0,0.0,0.0,0.0,0.0,0.0,0.0,0.0,0.0,0.0,0.0,0.0,0.0,0.0,0.0,0.0,0.0,-1.2773,-1.4216,-1.1024,-0.7916,-0.5735,-0.5348,-0.5493,-0.6096,0.0,0.0,0.0,0.0,0.0,0.0,0.0,0.0,0.0,0.0,0.0,0.0,0.0,0.0,0.0,0.0,0.0,0.0,0.0,0.0,0.0,0.0,0.0,0.0,0.0,0.0,0.0,0.0,0.0,0.0,0.0,0.0,0.0,0.0,0.0,0.0,0.0,0.0,0.0,0.0,0.0,0.0,0.0,0.0,0.0,0.0,0.0,0.0,0.0,0.0,0.0,0.0,0.0,0.0,0.0,0.0,0.0,0.0,0.0,0.0,0.0,0.0,0.0,0.0,0.0,0.0,0.0,0.0,0.0,0.0,0.0,0.0,0.0,0.0,0.0,0.0,0.0,0.0,0.0,0.0,0.0,0.0,0.0,0.0,0.0,0.0,0.0,0.0,0.0,0.0,0.0,0.0,0.0,0.0,0.0,0.0,0.0,0.0,0.0,0.0,0.0,0.0,0.0,-1.2092,-1.2495,-1.2986,-1.0212,-0.7776,-0.635,-0.5468,-0.5184,-0.5547,-0.6919,0.0,0.0,0.0,0.0,0.0,0.0,0.0,0.0,0.0,0.0,0.0,0.0,0.0,0.0,0.0,0.0,0.0,0.0,0.0,0.0,0.0,0.0,0.0,0.0,0.0,0.0,0.0,0.0,0.0,0.0,0.0,0.0,0.0,0.0,0.0,0.0,0.0,0.0,0.0,0.0,0.0,0.0,0.0,0.0,0.0,0.0,0.0,0.0,0.0,0.0,0.0,0.0,0.0,0.0,0.0,0.0,0.0,0.0,0.0,0.0,0.0,0.0,0.0,0.0,0.0,0.0,0.0,0.0,0.0,0.0,0.0,0.0,0.0,0.0,0.0,0.0,0.0,0.0,0.0,0.0,0.0,0.0,0.0,0.0,0.0,0.0,0.0,0.0,0.0,0.0,0.0,0.0,0.0,0.0,0.0,0.0,0.0,0.0,0.0,0.0,0.0,0.0,-1.2029,-1.1958,-1.173,-0.9157,-0.7163,-0.6523,-0.5486,-0.4902,-0.4947,-0.5553,0.0,0.0,0.0,0.0,0.0,0.0,0.0,0.0,0.0,0.0,0.0,0.0,0.0,0.0,0.0,0.0,0.0,0.0,0.0,0.0,0.0,0.0,0.0,0.0,0.0,0.0,0.0,0.0,0.0,0.0,0.0,0.0,0.0,0.0,0.0,0.0,0.0,0.0,0.0,0.0,0.0,0.0,0.0,0.0,0.0,0.0,0.0,0.0,0.0,0.0,0.0,0.0,0.0,0.0,0.0,0.0,0.0,0.0,0.0,0.0,0.0,0.0,0.0,0.0,0.0,0.0,0.0,0.0,0.0,0.0,0.0,0.0,0.0,0.0,0.0,0.0,0.0,0.0,0.0,0.0,0.0,0.0,0.0,0.0,0.0,0.0,0.0,0.0,0.0,0.0,0.0,0.0,0.0,0.0,0.0,0.0,0.0,0.0,0.0,0.0,0.0,0.0,-1.0532,-1.0767,-1.1124,-0.7611,-0.5139,-0.4863,-0.4142,-0.3786,-0.3915,-0.4319,0.0,0.0,0.0,0.0,0.0,0.0,0.0,0.0,0.0,0.0,0.0,0.0,0.0,0.0,0.0,0.0,0.0,0.0,0.0,0.0,0.0,0.0,0.0,0.0,0.0,0.0,0.0,0.0,0.0,0.0,0.0,0.0,0.0,0.0,0.0,0.0,0.0,0.0,0.0,0.0,0.0,0.0,0.0,0.0,0.0,0.0,0.0,0.0,0.0,0.0,0.0,0.0,0.0,0.0,0.0,0.0,0.0,0.0,0.0,0.0,0.0,0.0,0.0,0.0,0.0,0.0,0.0,0.0,0.0,0.0,0.0,0.0,0.0,0.0,0.0,0.0,0.0,0.0,0.0,0.0,0.0,0.0,0.0,0.0,0.0,0.0,0.0,0.0,0.0,0.0,0.0,0.0,0.0,0.0,0.0,0.0,0.0,0.0,0.0,0.0,0.0,0.0,-0.9208,-0.933,0.0,-0.7309,-0.5018,-0.5972,-0.4557,-0.3503,-0.3317,0.0,0.0,0.0,0.0,0.0,0.0,0.0,0.0,0.0,0.0,0.0,0.0,0.0,0.0,0.0,0.0,0.0,0.0,0.0,0.0,0.0,0.0,0.0,0.0,0.0,0.0,0.0,0.0,0.0,0.0,0.0,0.0,0.0,0.0,0.0,0.0,0.0,0.0,0.0,0.0,0.0,0.0,0.0,0.0,0.0,0.0,0.0,0.0,0.0,0.0,0.0,0.0,0.0,0.0,0.0,0.0,0.0,0.0,0.0,0.0,0.0,0.0,0.0,0.0,0.0,0.0,0.0,0.0,0.0,0.0,0.0,0.0,0.0,0.0,0.0,0.0,0.0,0.0,0.0,0.0,0.0,0.0,0.0,0.0,0.0,0.0,0.0,0.0,0.0,0.0,0.0,0.0,0.0,0.0,0.0,0.0,0.0,0.0,0.0,0.0,0.0,0.0,-0.9973,-0.8719,-0.8558,0.0,-0.6645,-0.3881,-0.5014,-0.3697,-0.2707,-0.2416,0.0,0.0,0.0,0.0,0.0,0.0,0.0,0.0,0.0,0.0,0.0,0.0,0.0,0.0,0.0,0.0,0.0,0.0,0.0,0.0,0.0,0.0,0.0,0.0,0.0,0.0,0.0,0.0,0.0,0.0,0.0,0.0,0.0,0.0,0.0,0.0,0.0,0.0,0.0,0.0,0.0,0.0,0.0,0.0,0.0,0.0,0.0,0.0,0.0,0.0,0.0,0.0,0.0,0.0,0.0,0.0,0.0,0.0,0.0,0.0,0.0,0.0,0.0,0.0,0.0,0.0,0.0,0.0,0.0,0.0,0.0,0.0,0.0,0.0,0.0,0.0,0.0,0.0,0.0,0.0,0.0,0.0,0.0,0.0,0.0,0.0,0.0,0.0,0.0,0.0,0.0,0.0,0.0,0.0,0.0,0.0,0.0,0.0,0.0,0.0,0.0,0.0,-1.0695,-0.9152,-0.8631,-1.0833,-0.5255,-0.133,-0.1181,-0.1148,-0.1133,0.0,0.0,0.0,0.0,0.0,0.0,0.0,0.0,0.0,0.0,0.0,0.0,0.0,0.0,0.0,0.0,0.0,0.0,0.0,0.0,0.0,0.0,0.0,0.0,0.0,0.0,0.0,0.0,0.0,0.0,0.0,0.0,0.0,0.0,0.0,0.0,0.0,0.0,0.0,0.0,0.0,0.0,0.0,0.0,0.0,0.0,0.0,0.0,0.0,0.0,0.0,0.0,0.0,0.0,0.0,0.0,0.0,0.0,0.0,0.0,0.0,0.0,0.0,0.0,0.0,0.0,0.0,0.0,0.0,0.0,0.0,0.0,0.0,0.0,0.0,0.0,0.0,0.0,0.0,0.0,0.0,0.0,0.0,0.0,0.0,0.0,0.0,0.0,0.0,0.0,0.0,0.0,0.0,0.0,0.0,0.0,0.0,0.0,0.0,0.0,0.0,0.0,0.0,0.0609,-0.7199,-1.028,-0.2827,-0.1431,-0.0168,0.1993,0.2188,0.1459,-0.0208,0.0,0.0,0.0,0.0,0.0,0.0,0.0,0.0,0.0,0.0,0.0,0.0,0.0,0.0,0.0,0.0,0.0,0.0,0.0,0.0,0.0,0.0,0.0,0.0,0.0,0.0,0.0,0.0,0.0,0.0,0.0,0.0,0.0,0.0,0.0,0.0,0.0,0.0,0.0,0.0,0.0,0.0,0.0,0.0,0.0,0.0,0.0,0.0,0.0,0.0,0.0,0.0,0.0,0.0,0.0,0.0,0.0,0.0,0.0,0.0,0.0,0.0,0.0,0.0,0.0,0.0,0.0,0.0,0.0,0.0,0.0,0.0,0.0,0.0,0.0,0.0,0.0,0.0,0.0,0.0,0.0,0.0,0.0,0.0,0.0,0.0,0.0,0.0,0.0,0.0,0.0,0.0,0.0,0.0,0.0,0.0,0.0,0.0,0.0,0.0,0.0,0.0,0.2143,-0.2048,-0.4068,-0.0422,0.1765,0.3253,0.3972,0.3766,0.278,0.0827,0.0,0.0,0.0,0.0,0.0,0.0,0.0,0.0,0.0,0.0,0.0,0.0,0.0,0.0,0.0,0.0,0.0,0.0,0.0,0.0,0.0,0.0,0.0,0.0,0.0,0.0,0.0,0.0,0.0,0.0,0.0,0.0,0.0,0.0,0.0,0.0,0.0,0.0,0.0,0.0,0.0,0.0,0.0,0.0,0.0,0.0,0.0,0.0,0.0,0.0,0.0,0.0,0.0,0.0,0.0,0.0,0.0,0.0,0.0,0.0,0.0,0.0,0.0,0.0,0.0,0.0,0.0,0.0,0.0,0.0,0.0,0.0,0.0,0.0,0.0,0.0,0.0,0.0,0.0,0.0,0.0,0.0,0.0,0.0,0.0,0.0,0.0,0.0,0.0,0.0,0.0,0.0,0.0,0.0,0.0,0.0,0.0,0.0,0.0,0.0,0.0,0.0,-0.2022,0.5175,0.7226,-0.0538,0.4896,0.7957,0.5183,0.4117,0.3119,0.1958,0.0,0.0,0.0,0.0,0.0,0.0,0.0,0.0,0.0,0.0,0.0,0.0,0.0,0.0,0.0,0.0,0.0,0.0,0.0,0.0,0.0,0.0,0.0,0.0,0.0,0.0,0.0,0.0,0.0,0.0,0.0,0.0,0.0,0.0,0.0,0.0,0.0,0.0,0.0,0.0,0.0,0.0,0.0,0.0,0.0,0.0,0.0,0.0,0.0,0.0,0.0,0.0,0.0,0.0,0.0,0.0,0.0,0.0,0.0,0.0,-2.7075,0.0,0.0,0.0,0.0,0.0,0.0,0.0,0.0,0.0,0.0,0.0,0.0,0.0,0.0,0.0,0.0,0.0,0.0,0.0,0.0,0.0,0.0,0.0,0.0,0.0,0.0,0.0,0.0,0.0,0.0,0.0,0.0,0.0,0.0,0.0,0.0,0.0,0.0,0.0,0.0,0.0,0.3708,1.0683,1.3781,0.9736,1.0267,0.9816,0.7134,0.4871,0.3336,0.2689,0.0,0.0,0.0,0.0,0.0,0.0,0.0,0.0,0.0,0.0,0.0,0.0,0.0,0.0,0.0,0.0,0.0,0.0,0.0,0.0,0.0,0.0,0.0,0.0,0.0,0.0,0.0,0.0,0.0,0.0,0.0,0.0,0.0,0.0,0.0,0.0,0.0,0.0,0.0,0.0,0.0,0.0,0.0,0.0,0.0,0.0,0.0,0.0,0.0,0.0,0.0,0.0,0.0,0.0,0.0,0.0,0.0,0.0,0.0,0.0,0.0,-2.7055,0.0,0.0,0.0,0.0,0.0,0.0,0.0,0.0,0.0,0.0,0.0,0.0,0.0,0.0,0.0,0.0,0.0,0.0,0.0,0.0,0.0,0.0,0.0,0.0,0.0,0.0,0.0,0.0,0.0,0.0,0.0,0.0,0.0,0.0,0.0,0.0,0.0,0.0,0.0,0.0,0.5066,1.0058,1.311,1.2746,1.2329,1.1024,0.8417,0.6091,0.4333,0.332,0.155,0.0,0.0,0.0,0.0,0.0,0.0,0.0,0.0,0.0,0.0,0.0,0.0,0.0,0.0,0.0,0.0,0.0,0.0,0.0,0.0,0.0,0.0,0.0,0.0,0.0,0.0,0.0,0.0,0.0,0.0,0.0,0.0,0.0,0.0,0.0,0.0,0.0,0.0,0.0,0.0,0.0,0.0,0.0,0.0,0.0,0.0,0.0,0.0,0.0,0.0,0.0,0.0,0.0,-2.7609,-2.8026,-2.8729,-2.873,-2.8708,-2.8628,-2.8606,-2.8757,-2.8946,0.0,0.0,0.0,0.0,0.0,0.0,0.0,0.0,0.0,0.0,0.0,0.0,0.0,0.0,0.0,0.0,0.0,0.0,0.0,0.0,0.0,0.0,0.0,0.0,0.0,-2.6721,-2.504,0.0,0.0,0.0,0.0,0.0,0.0,0.0,0.0,0.0,0.0,0.0,0.0,0.4605,0.7704,1.0504,1.2809,1.3076,1.2181,0.987,0.7704,0.5694,0.3923,0.2486,0.0828,0.0,0.0,0.0,0.0,0.0,0.0,0.0,0.0,0.0,0.0,0.0,0.0,0.0,0.0,0.0,0.0,0.0,0.0,0.0,0.0,0.0,0.0,0.0,0.0,0.0,0.0,0.0,0.0,0.0,0.0,0.0,0.0,-2.3658,-2.3898,0.0,0.0,0.0,0.0,0.0,0.0,0.0,0.0,0.0,0.0,0.0,0.0,0.0,0.0,-2.896,-2.9613,-2.9994,-3.0111,-3.0173,-3.0272,-3.0389,-3.0506,-3.0485,-3.0384,-3.0482,0.0,-2.8179,-2.7298,0.0,0.0,0.0,0.0,0.0,0.0,0.0,0.0,0.0,0.0,0.0,0.0,0.0,0.0,0.0,0.0,0.0,0.0,0.0,0.0,0.0,0.0,-2.5994,-2.6569,-2.669,-2.6775,0.0,-2.4073,-2.0208,-1.6564,0.0,0.0,0.0,0.0,0.0,0.0,0.0,0.0,0.4469,0.8335,1.1673,1.3793,1.441,1.4174,1.2914,0.9877,0.7017,0.4687,0.2478,0.0547,-0.1125,-0.2697,0.0,0.0,0.0,0.0,0.0,0.0,0.0,0.0,0.0,0.0,0.0,0.0,0.0,0.0,0.0,0.0,0.0,0.0,0.0,0.0,0.0,0.0,0.0,0.0,0.0,0.0,0.0,0.0,0.0,-2.6252,-2.7335,-2.6436,-2.7159,-2.7351,0.0,0.0,0.0,0.0,0.0,0.0,0.0,0.0,0.0,-2.6968,-2.8377,-2.9213,-2.9475,-3.0527,-3.083,-3.0384,-3.0561,-3.0633,-3.0652,-3.0696,-3.0693,-3.065,-3.0713,-3.0253,-2.941,-2.8125,-2.7283,-2.6659,0.0,0.0,0.0,0.0,0.0,-2.5674,-2.6496,-2.665,0.0,0.0,0.0,0.0,0.0,0.0,0.0,0.0,0.0,0.0,0.0,0.0,0.0,-2.4564,-2.3784,-2.2828,-2.3519,-2.2491,-2.0819,0.0,-1.4213,-0.9728,-0.6766,0.0,0.0,0.0,0.0,0.0,0.5117,0.8314,1.1407,1.4243,1.4718,1.4694,1.4374,1.2666,1.053,0.8028,0.464,0.2481,0.1916,-0.0654,-0.2972,0.0,0.0,0.0,0.0,0.0,0.0,0.0,0.0,0.0,0.0,0.0,0.0,0.0,0.0,0.0,0.0,0.0,0.0,0.0,0.0,0.0,0.0,0.0,0.0,0.0,0.0,0.0,0.0,-2.8153,-2.8955,-2.7923,-2.8316,-2.8222,0.0,0.0,0.0,0.0,0.0,0.0,-2.6767,-2.7456,-2.7923,-2.8034,-2.9476,-3.0,-2.9476,-3.0259,-3.0464,-3.0075,-3.0076,-3.0191,-3.0385,-3.0203,-3.012,-3.0101,-2.9894,-2.9802,-2.9691,-2.8569,-2.7683,-2.6889,-2.5537,-2.4956,-2.4996,-2.574,-2.5989,-2.617,-2.7735,-2.8114,-2.7665,-2.6245,0.0,-2.3136,-2.1133,0.0,0.0,0.0,0.0,-1.8796,-2.0511,-2.0592,-2.0415,-2.1292,-1.9926,-1.8346,-1.7909,-1.8216,-1.8571,0.0,-1.4991,-1.0783,-0.753,0.0,0.0,0.0,0.0,0.2701,0.5504,0.816,1.0945,1.3955,1.4574,1.5008,1.5555,1.4968,1.3699,1.1664,0.8046,0.5728,0.5232,0.274,-0.0546,-0.4678,0.0,0.0,0.0,0.0,0.0,0.0,0.0,0.0,0.0,0.0,0.0,0.0,0.0,0.0,0.0,0.0,0.0,0.0,0.0,0.0,0.0,0.0,0.0,0.0,0.0,0.0,0.0,0.0,0.0,-2.6116,-2.5979,0.0,0.0,0.0,0.0,-2.5775,-2.5775,-2.5727,-2.5595,-2.6118,-2.6607,-2.7079,-2.8033,-2.8724,-2.9134,-2.8815,-2.9009,-2.9729,-2.9017,-2.9096,-2.9822,-2.911,-2.88,-2.8742,-2.7991,-2.7612,-2.7577,-2.7746,-2.7744,-2.743,-2.5279,-2.4411,-2.4458,-2.5455,-2.5814,-2.5997,-2.7442,-2.7893,-2.7786,-2.7201,-2.5038,-2.2594,-2.211,-2.0268,0.0,0.0,-1.9195,-1.914,-2.1124,-2.1628,-2.0614,-1.6734,-1.5701,-1.5201,-1.3666,-1.2922,-1.3194,0.0,-1.3321,-1.0151,-0.7292,0.0,-0.4292,-0.189,0.0879,0.3348,0.504,0.8063,1.0778,1.2709,1.4155,1.5539,1.6874,1.6149,1.5409,1.4892,1.2782,1.0383,0.7723,0.763,0.4188,-0.3166,-0.9059,0.0,0.0,0.0,0.0,0.0,0.0,0.0,0.0,0.0,0.0,0.0,0.0,0.0,0.0,0.0,0.0,0.0,0.0,0.0,0.0,0.0,0.0,0.0,0.0,0.0,0.0,0.0,0.0,-2.721,-2.7175,0.0,0.0,-2.6313,-2.6756,-2.59,-2.6304,-2.6511,-2.6357,-2.6198,-2.6331,-2.6869,-2.72,-2.77,-2.837,-2.8379,-2.8496,-2.8727,-2.8641,-2.8762,-2.9024,-2.8765,-2.8633,-2.8577,-2.7825,-2.749,-2.7381,-2.6313,-2.6016,-2.6136,-2.4694,-2.4008,-2.3923,-2.5153,-2.5427,-2.5366,-2.6877,-2.7023,-2.6353,-2.5172,-2.3429,-2.1672,-2.0827,-1.9598,-1.847,-1.8384,-1.8199,-1.8152,-1.8867,-1.8335,-1.6711,-1.3168,-1.2837,-1.3097,-1.2256,-1.1906,-1.1628,-1.1293,-0.9853,-0.7784,-0.4966,-0.4117,-0.2973,-0.058,0.1551,0.3548,0.5546,0.7134,0.9186,1.2046,1.3409,1.5042,1.7348,1.8468,1.8686,1.786,1.7075,1.6221,1.5311,0.8332,0.2341,-0.2215,-1.0865,-1.4298,0.0,0.0,0.0,0.0,0.0,0.0,0.0,0.0,0.0,0.0,0.0,0.0,0.0,0.0,0.0,0.0,0.0,0.0,0.0,0.0,0.0,0.0,0.0,0.0,0.0,0.0,-2.7313,-2.74,-2.7186,-2.6441,-2.5023,-2.6333,-2.6822,-2.5762,-2.6316,-2.6493,-2.5945,-2.5702,-2.5579,-2.5582,-2.605,-2.651,-2.6922,-2.712,-2.7341,-2.7561,-2.7442,-2.7574,-2.7807,-2.7556,-2.743,-2.7394,-2.6606,-2.6146,-2.5859,-2.4686,-2.418,-2.4109,-2.3822,-2.3454,-2.3298,-2.4557,-2.4846,-2.4702,-2.5765,-2.5334,-2.4092,-2.281,-2.1319,-1.9837,-1.8797,-1.8012,-1.7422,-1.7324,-1.7088,-1.6797,-1.6786,-1.5223,-1.3122,-1.1083,-1.082,-1.0972,-1.0805,-1.0463,-0.9577,-0.7816,-0.7575,-0.6762,-0.3875,-0.3054,-0.2031,0.0233,0.2225,0.4047,0.5642,0.709,0.8879,1.1164,1.3035,1.5154,1.767,1.9597,2.0689,2.0745,1.9886,1.8851,1.768,0.9511,0.2453,-0.2934,-1.1885,-1.5284,-1.2901,0.0,0.0,0.0,0.0,0.0,0.0,0.0,0.0,0.0,0.0,0.0,0.0,0.0,0.0,0.0,0.0,0.0,0.0,0.0,0.0,0.0,0.0,0.0,-2.6486,-2.6265,-2.6106,-2.6404,-2.5701,-2.5182,-2.5182,-2.5652,-2.5762,-2.5221,-2.5652,-2.5451,-2.4216,-2.4501,-2.4226,-2.3178,-2.4447,-2.4993,-2.471,-2.4896,-2.5412,-2.6168,-2.5429,-2.5463,-2.6101,-2.5412,-2.506,-2.4977,-2.4193,-2.3474,-2.2886,-2.29,-2.2322,-2.1542,-2.258,-2.2723,-2.2443,-2.3567,-2.3994,-2.4014,-2.4042,-2.2816,-2.1135,-2.0377,-1.8863,-1.7138,-1.6286,-1.5576,-1.5359,-1.6311,-1.5908,-1.5203,-1.5105,-1.2687,-1.0342,-1.0342,-0.9445,-0.8651,-0.9024,-0.8143,-0.6861,-0.5284,-0.6654,-0.7114,-0.4219,-0.2795,-0.1398,0.0502,0.2984,0.0,0.5305,0.8037,0.9927,1.0002,1.2979,1.5802,1.7829,1.9224,2.0983,2.3223,2.0946,1.7932,1.4332,1.1281,0.4838,-0.5505,-1.1993,-1.4641,-1.336,0.0,0.0,0.0,0.0,0.0,0.0,0.0,0.0,0.0,0.0,0.0,0.0,0.0,0.0,0.0,0.0,0.0,0.0,0.0,0.0,0.0,0.0,-2.4596,-2.5499,-2.5489,-2.5433,-2.555,-2.5357,-2.5067,-2.4672,-2.5105,-2.5221,-2.4657,-2.4752,-2.4426,-2.3455,-2.2786,-2.215,-2.1599,-2.1604,-2.1994,-2.2844,-2.297,-2.3124,-2.333,-2.4085,-2.377,-2.2564,-2.3864,-2.3912,-2.2959,-2.2777,-2.2555,-2.2317,-2.1261,-2.0458,-1.9996,-2.0813,-2.0941,-2.069,-2.1034,-2.121,-2.1272,-2.0901,-1.978,-1.844,-1.8254,-1.6715,-1.4851,-1.3969,-1.3683,-1.3562,-1.3408,-1.377,-1.3831,-1.2134,-1.0423,-0.8771,-0.7135,-0.6506,-0.6222,-0.6059,-0.5389,-0.4417,-0.324,-0.3019,-0.264,-0.1297,0.011,0.1499,0.3019,0.477,0.0,0.6531,0.7384,0.8377,0.9724,1.1406,1.3294,1.5445,1.595,1.668,0.0,1.6786,1.5379,1.3829,0.8246,0.0351,-0.995,-1.126,-1.1395,0.0,0.0,0.0,0.0,0.0,0.0,0.0,0.0,0.0,0.0,0.0,0.0,0.0,0.0,0.0,0.0,0.0,0.0,0.0,0.0,0.0,0.0,-2.3705,-2.3909,-2.4133,-2.4561,-2.4855,-2.4855,-2.4672,-2.4292,-2.3749,-2.4179,-2.4056,-2.3031,-2.3113,-2.2636,-2.115,-2.0447,-1.9918,-1.9439,-1.9301,-1.971,-2.0698,-2.0937,-2.0914,-2.059,-2.1347,-2.0926,-1.9441,-2.0657,-2.0825,0.0,-2.0067,-1.9906,-1.9586,-1.8742,-1.8084,0.0,0.0,0.0,0.0,0.0,-1.871,-1.8533,-1.8201,-1.7221,-1.5873,-1.5184,-1.3912,-1.2399,-1.1129,-1.1024,-1.1247,-1.143,-1.0877,-0.9743,-0.7681,-0.6497,-0.5632,-0.4926,-0.4452,-0.4177,-0.3987,-0.299,-0.2027,-0.1373,0.0,0.0,0.1454,0.2274,0.3219,0.4214,0.597,0.7244,0.0,0.8151,0.8948,0.9733,1.1376,1.2869,1.3964,1.4143,0.0,0.0,0.0,1.1037,0.7735,0.2763,0.0,0.0,0.0,0.0,0.0,0.0,0.0,0.0,-0.5765,-0.5755,0.0,0.0,0.0,0.0,0.0,0.0,0.0,0.0,0.0,0.0,0.0,0.0,0.0,0.0,0.0,0.0,-2.3212,-2.3098,-2.2515,-2.3332,-2.4013,-2.407,-2.3694,-2.3187,-2.2634,-2.304,-2.2615,-2.0913,-2.125,-2.0526,-1.8203,0.0,0.0,0.0,0.0,-1.7884,-1.8375,-1.8797,-1.8626,-1.785,-1.8008,-1.7581,-1.6645,-1.6774,-1.6828,-1.6742,-1.6731,-1.6448,-1.6016,-1.5938,-1.5456,-1.4844,-1.6701,-1.7066,-1.6528,-1.6407,-1.6011,0.0,0.0,0.0,0.0,-1.1661,-1.0657,-0.9781,-0.8205,-0.8122,-0.8766,-0.977,-0.7731,-0.4876,-0.2885,-0.1909,-0.1789,-0.3189,-0.28,-0.2072,-0.2072,-0.0851,0.0321,0.0321,0.176,0.3147,0.3827,0.3991,0.4251,0.4831,0.686,0.8293,0.8105,0.959,1.0466,0.9874,0.0,0.0,1.2846,1.2939,1.3103,1.3384,1.0549,0.6132,0.0052,-0.254,-0.4867,-0.7008,-0.6252,-0.5004,-0.343,-0.2154,-0.0858,0.0442,-0.0958,-0.1352,0.0,0.0,0.0,0.0,0.0,0.0,0.0,0.0,0.0,0.0,0.0,0.0,0.0,0.0,0.0,-2.1757,-2.1953,-2.1796,-2.1075,-2.1192,-2.1586,-2.2136,-2.2118,-2.2025,-2.1899,-2.1979,-2.1514,-2.028,-2.0259,-1.948,-1.7573,-1.7368,0.0,-1.6011,-1.6042,-1.5974,-1.5886,-1.5972,-1.5679,-1.4907,0.0,0.0,-1.3841,-1.4857,-1.5084,-1.4657,-1.4601,-1.483,-1.5359,-1.4763,-1.3288,-1.1548,-1.3208,-1.2948,-1.1759,-1.17,-1.1616,-1.1517,-1.1517,-1.0932,-0.997,-0.8862,-0.7989,-0.7191,-0.6117,-0.6523,0.0,-0.6613,-0.5873,-0.4584,-0.1386,0.0265,0.08,-0.0466,0.0467,0.1671,0.1671,0.193,0.2189,0.2189,0.3489,0.4681,0.481,0.5343,0.599,0.6686,0.8253,0.94,0.9341,0.967,0.9967,1.0031,1.0857,1.1124,1.0491,0.9795,0.9125,0.8459,0.6206,0.4291,0.2962,0.1064,-0.0176,-0.0698,-0.0477,0.0,0.0825,0.1882,0.2823,0.3483,0.1382,0.0771,0.0,0.0,0.0,0.0,0.0,0.0,0.0,0.0,0.0,0.0,0.0,-2.185,0.0,0.0,-2.108,-2.0997,-2.0818,-2.0429,-1.9699,-1.9315,-1.9469,-2.0463,-2.0611,-2.0463,-2.0191,-2.0141,-1.9595,-1.8203,-1.7894,-1.7041,-1.5339,-1.5003,-1.4624,-1.4134,-1.4051,-1.3877,-1.3626,-1.3478,-1.2847,-1.1692,-1.2327,-1.19,-1.051,-1.1148,-1.1284,-1.1043,-1.0965,-1.0923,-1.084,-1.0014,-0.8731,-0.7329,-0.8091,-0.8702,-0.9191,-0.9191,-0.892,-0.851,-0.851,-0.793,-0.709,-0.6185,-0.5611,-0.5104,-0.4268,-0.4406,-0.4532,-0.3131,-0.1997,-0.0799,0.1263,0.2,0.2072,0.147,0.2072,0.2678,0.2678,0.3407,0.4002,0.4002,0.5387,0.6561,0.6561,0.724,0.7819,0.8083,0.9284,1.012,1.012,1.0279,1.0296,1.0149,1.0796,1.084,0.9806,0.8622,0.7618,0.674,0.5355,0.4556,0.455,0.3668,0.3208,0.3218,0.323,0.3537,0.4231,0.4726,0.5308,0.5922,0.5255,0.4676,0.0,0.0,0.0,0.0,0.0,0.0,0.0,0.0,-2.4253,-2.2325,-2.1458,-2.0941,-2.0454,-2.0361,-2.0285,-2.0168,-1.9679,-1.8976,-1.8201,-1.7523,-1.7413,-1.8201,-1.8666,-1.875,-1.8352,-1.8158,-1.7448,-1.6129,-1.5563,-1.4516,-1.2752,-1.2448,-1.213,-1.1789,-1.1781,-1.1603,-1.1248,-1.1083,-1.0287,-0.8972,-0.8974,-0.8504,-0.7708,-0.7565,-0.7452,-0.7474,-0.745,-0.7048,-0.627,-0.5438,-0.4655,-0.3959,-0.3835,-0.5098,-0.6963,-0.6963,-0.6494,-0.5825,-0.5825,-0.5356,-0.4629,-0.3786,-0.3326,-0.2998,-0.2088,-0.1752,-0.1412,0.0135,0.1763,0.3123,0.361,0.3404,0.3127,0.3326,0.3461,0.3664,0.3862,0.5001,0.6011,0.6011,0.7281,0.8406,0.8359,0.9079,0.9512,0.9116,0.9957,1.0624,1.0624,1.0828,1.0788,1.0262,1.0968,1.098,0.9728,0.8365,0.7341,0.6715,0.6129,0.5811,0.5801,0.5958,0.594,0.5743,0.6314,0.6814,0.7195,0.7629,0.803,0.8389,0.9431,0.871,-1.454,0.0,0.0,-2.5916,-2.6096,-2.5919,0.0,0.0,-2.2961,-2.2453,-2.1043,-1.9661,-1.8958,-1.8713,-1.8543,-1.8544,-1.8097,-1.7423,-1.6446,-1.573,-1.4986,-1.4182,-1.5665,-1.6885,-1.7249,-1.6434,-1.578,-1.5432,-1.4593,-1.3113,-1.0826,-1.1087,-1.053,-0.9011,-0.9336,-0.9193,-0.8436,-0.8446,-0.8318,-0.8135,-0.812,-0.7643,-0.6716,-0.5963,-0.5628,-0.5571,-0.5632,-0.5517,-0.5404,-0.4531,-0.4069,-0.3944,-0.3127,-0.3008,-0.3274,-0.3274,-0.3205,-0.3139,-0.3139,-0.3074,-0.2806,-0.1936,-0.1001,-0.0067,0.1183,0.1586,0.1701,0.2561,0.3343,0.4021,0.4094,0.4247,0.452,0.5425,0.6213,0.6995,0.7901,0.8255,0.8399,0.8399,0.9167,0.9804,0.9577,1.0205,1.0451,0.9396,1.0021,1.0624,1.0624,1.0654,1.0634,1.0571,1.0662,1.0322,0.9439,0.8489,0.7916,0.7857,0.7742,0.7678,0.7718,0.8256,0.8248,0.7444,0.9988,1.092,1.004,1.1981,1.2453,1.153,1.2734,1.1578,-1.7721,0.0,0.0,0.0,-2.7155,-2.6267,-2.5442,-2.4374,-2.2999,-2.0943,-1.9707,-1.8803,-1.8109,-1.7455,-1.687,0.0,-1.6169,-1.5543,-1.41,-1.3688,-1.2916,-1.1353,-1.1926,-1.3147,-1.5074,-1.4851,-1.4221,-1.3285,-1.2574,-1.1145,-0.8758,-0.8539,-0.7917,-0.6679,-0.6858,-0.6519,-0.5649,-0.5702,-0.5446,-0.4888,-0.4908,-0.4709,-0.4312,-0.3941,-0.3801,-0.3732,-0.3183,-0.2644,-0.2051,-0.1095,-0.041,0.02,0.0553,0.0702,0.042,-0.1896,-0.2006,-0.1002,-0.1002,-0.0271,0.0763,0.1132,0.1556,0.197,0.2503,0.2993,0.3401,0.3824,0.4549,0.5396,0.5854,0.6069,0.6418,0.7398,0.7901,0.8468,0.943,1.0053,1.0598,1.1112,1.1959,1.2483,1.2424,1.2674,1.276,1.2282,1.1269,1.0624,1.0624,1.0989,1.1476,1.1973,1.1973,1.1841,1.1454,1.1121,1.0927,1.0927,1.115,1.1248,1.1248,1.1802,1.1895,1.1575,1.2749,1.314,1.2743,1.363,1.3841,1.3372,1.3991,1.3597,-1.9059,0.0,0.0,-2.7447,-2.7281,-2.6279,-2.4232,-2.3339,-2.2034,-1.8906,-1.7664,-1.6829,-1.5809,-1.5224,0.0,-1.4095,-1.3907,-1.3332,-1.1992,-1.1682,-1.0994,-0.9556,-0.9169,-0.9879,-1.1963,-1.2395,-1.2073,-1.0979,-1.0267,-0.8908,-0.6583,-0.6101,-0.5516,-0.4619,-0.4602,-0.425,-0.3636,-0.3652,-0.3192,-0.225,-0.2297,-0.2012,-0.1429,-0.1204,-0.111,-0.1055,-0.035,0.0349,0.1046,0.1745,0.2465,0.3107,0.3069,0.3113,0.2736,-0.0071,-0.0206,0.1005,0.1005,0.1946,0.3069,0.3069,0.3509,0.3978,0.3983,0.4727,0.5622,0.5759,0.6346,0.7086,0.7658,0.787,0.8082,0.9082,0.9575,0.9919,1.0695,1.1805,1.2694,1.3089,1.3942,1.4547,1.4446,1.443,1.4396,1.4296,1.2744,1.1617,1.1617,1.2112,1.2735,1.3306,1.3368,1.3368,1.3368,1.3368,1.3368,1.3368,1.3609,1.3813,1.3813,1.4332,1.4541,1.4279,1.4849,1.5033,1.4827,1.5138,1.519,1.4923,1.5401,1.5454,0.0,0.0,-2.5021,-2.4932,-2.5373,-2.5321,-2.3364,-2.1342,-1.9068,-1.6445,-1.4726,-1.3083,-1.1347,-1.1377,-1.1634,-1.1616,-1.1172,-1.0749,-1.0434,-0.9771,-0.9244,-0.8897,-0.8214,-0.7794,0.0,-0.8571,-0.8874,-0.8826,-0.7956,-0.6444,-0.4232,-0.4097,-0.371,-0.2819,-0.2787,-0.2766,-0.2766,-0.2751,-0.2212,-0.116,-0.1143,-0.0156,0.1709,0.252,0.2901,0.2953,0.2953,0.2953,0.3031,0.3024,0.3096,0.3095,0.3098,0.31,0.31,0.2939,0.2928,0.3042,0.3042,0.302,0.3098,0.3102,0.4464,0.6115,0.6135,0.7546,0.9125,0.9125,0.9165,0.9215,0.9266,0.9276,0.9502,1.0467,1.1409,1.2138,1.2184,1.3772,1.4846,1.3852,1.449,1.5085,1.4728,1.4662,1.4613,1.4338,1.4262,1.418,1.418,1.418,1.4246,1.4246,1.4246,1.4246,1.4246,1.4246,1.4246,1.4246,1.4254,1.4262,1.4262,1.5053,1.5127,1.4345,1.6262,1.6864,1.6021,1.7263,1.7394,1.6531,1.7472,1.7413,0.0,0.0,-2.2348,-2.213,-2.1313,-1.996,-1.7739,-1.6402,-1.4903,-1.2401,-1.1175,-1.0207,-0.8881,-0.8867,-0.9003,-0.899,-0.9442,-0.9543,-0.8772,-0.7821,-0.6934,-0.6159,-0.5203,0.0,0.0,0.0,0.0,-0.6056,-0.5622,-0.4543,-0.2522,-0.1664,-0.0757,0.0153,0.0764,0.1143,0.1143,0.1162,0.1316,0.1672,0.1701,0.2026,0.2646,0.2989,0.3069,0.3112,0.3112,0.3503,0.413,0.4126,0.4595,0.5226,0.5226,0.5665,0.6252,0.6237,0.6616,0.6908,0.4847,0.5098,0.6247,0.6186,0.7179,0.8277,0.8268,0.8742,0.9296,0.9296,0.9286,0.9567,1.0908,1.1205,1.1643,1.3331,1.3988,1.4347,1.4996,1.5641,1.6219,1.6507,1.6802,1.7033,1.6903,1.6875,1.6828,1.6766,1.5331,1.4476,1.4997,1.5127,1.533,1.5863,1.5872,1.5872,1.5872,1.5872,1.5872,1.5872,1.6197,1.6346,1.6346,1.6874,1.7016,1.6747,1.7446,1.7658,1.7359,1.7794,1.7862,1.7579,1.7862,1.7862,0.0,-1.6824,-1.8758,-1.8166,-1.7033,-1.5402,-1.2933,-1.1539,-1.0077,-0.7851,-0.6857,-0.6218,-0.5595,-0.5506,-0.5634,-0.6013,-0.6608,-0.6868,-0.619,-0.5511,-0.4844,-0.4231,-0.3202,0.0,0.0,0.0,0.0,-0.3522,-0.3057,-0.2118,-0.0549,0.0625,0.148,0.2105,0.2731,0.3124,0.3124,0.3124,0.3278,0.3663,0.4441,0.4595,0.421,0.421,0.4208,0.4281,0.4281,0.4825,0.5838,0.5838,0.6461,0.7403,0.7338,0.7774,0.8348,0.8367,0.878,0.9037,0.7034,0.7223,0.8331,0.8312,0.9025,0.9818,0.9873,1.0073,1.0351,1.0351,1.064,1.1149,1.2391,1.2968,1.3621,1.4863,1.5446,1.579,1.607,1.6645,1.7207,1.7432,1.7794,1.8008,1.8008,1.8008,1.8008,1.8008,1.6633,1.5818,1.6356,1.6356,1.6562,1.7122,1.7187,1.7187,1.7187,1.7187,1.7187,1.7187,1.7451,1.7607,1.7607,1.7871,1.8008,1.8008,1.8008,1.8008,1.8008,1.8008,1.8008,1.8008,1.8008,1.8008,-0.7237,-1.1887,-1.4087,-1.3069,-1.2391,-1.128,-0.8669,-0.6467,-0.453,-0.2659,-0.1579,-0.1071,0.0,0.0,-0.1724,-0.28,-0.2995,-0.3047,-0.3087,-0.3058,-0.2994,0.0,0.0,0.0,0.0,0.0,0.0,-0.1175,0.0,0.0624,0.1645,0.2657,0.3202,0.3278,0.3278,0.3279,0.3355,0.3355,0.3824,0.4919,0.693,0.7403,0.649,0.649,0.649,0.649,0.649,0.7022,0.7859,0.7859,0.8466,0.9301,0.9332,0.9347,0.9397,0.9373,0.9379,0.9416,0.9469,0.9406,0.9361,0.9388,1.0049,1.0843,1.0843,1.1546,1.2378,1.2372,1.3025,1.3825,1.3818,1.4522,1.5305,1.5305,1.6,1.6428,1.5517,1.6724,1.7725,1.6853,1.7432,1.8076,1.8008,1.8008,1.8076,1.8076,1.8076,1.8076,1.8008,1.8008,1.8008,1.8008,1.8008,1.8008,1.8008,1.8008,1.8008,1.8008,1.8008,1.8008,1.8008,1.8008,1.8008,1.8008,1.8008,1.8008,1.8008,1.8008,1.8008,1.8008,1.8008,1.8008,-0.3075,-0.5263,-0.5936,-0.5649,-0.3851,-0.1577,0.0428,0.2471,0.441,0.6317,0.5828,0.5054,0.0,0.0,0.0,-0.047,-0.1425,0.0,-0.3022,-0.2479,0.0,0.0,0.0,-0.0078,0.0705,0.1254,0.0,0.0,0.2184,0.2419,0.2735,0.3748,0.46,0.536,0.5458,0.5854,0.6612,0.6612,0.6769,0.7007,0.8309,0.877,0.8542,0.8542,0.8542,0.8542,0.8542,0.8694,0.8917,0.8917,0.9069,0.9296,0.9306,0.976,1.0426,1.0398,1.0902,1.1569,1.1509,1.1037,1.045,1.0438,1.1095,1.1887,1.1887,1.2594,1.3366,1.3375,1.4065,1.4992,1.5675,1.6018,1.6455,1.7157,1.7442,1.7579,1.7364,1.7657,1.794,1.7716,1.8385,1.8787,1.8144,1.8529,1.8977,1.8977,1.8977,1.8721,1.8076,1.8008,1.8008,1.8008,1.8008,1.8008,1.8008,1.8008,1.8008,1.8008,1.8008,1.8008,1.8008,1.8008,1.8008,1.8008,1.8008,1.8008,1.8008,1.8008,1.8008,1.8008,1.8008,1.8008,0.2479,0.1389,0.1167,0.1958,0.3824,0.584,0.7651,0.9585,1.1192,1.1906,1.1208,0.0,0.0,0.0,0.0,0.0,0.0,0.0,-0.1009,-0.0574,0.0,0.0,0.1016,0.0,0.219,0.3122,0.3665,0.0,0.3826,0.3826,0.3826,0.4844,0.5851,0.6835,0.6934,0.7403,0.8466,0.8912,0.8912,0.8466,0.9442,0.9744,0.9296,0.9296,0.9296,0.9296,0.0,0.9523,0.997,0.997,1.0196,1.0651,1.0651,1.0944,1.1539,1.1922,1.2445,1.2959,1.3433,1.3178,1.2663,1.2197,1.2428,1.3006,1.3426,1.3905,1.4346,1.4379,1.5084,1.5955,1.6446,1.6941,1.7382,1.7872,1.8008,1.8008,1.8008,1.8008,1.8144,1.8529,1.9299,1.9694,1.9243,1.9562,1.989,1.989,1.989,1.9694,1.9177,1.911,1.911,1.911,1.911,1.8977,1.8586,1.8911,1.8787,1.8076,1.8721,1.8977,1.8596,1.8596,1.8596,1.8596,1.8202,1.8008,1.8008,1.8008,1.8008,1.8008,1.8395,1.8405,0.8373,0.7865,0.7668,0.9433,1.074,1.2116,1.3972,1.5745,1.6839,1.626,0.0,0.0,1.1999,0.0,0.6391,0.4283,0.0,0.1411,0.1948,0.1996,0.2254,0.2976,0.3122,0.32,0.3509,0.5129,0.5983,0.5381,0.5303,0.5226,0.5151,0.6089,0.7099,0.8008,0.8161,0.8537,0.9296,1.0265,1.034,0.9523,1.049,1.0565,0.9674,0.9674,0.9674,0.9674,0.0,0.0,1.1013,1.1013,1.1613,1.2519,1.2519,1.2592,1.2806,1.36,1.389,1.4042,1.4928,1.5185,1.5072,1.4174,1.3924,1.4057,1.4907,1.5267,1.5418,1.5418,1.6052,1.6784,1.6784,1.7354,1.8008,1.8008,1.8008,1.8008,1.8144,1.8269,1.8596,1.9299,2.0204,2.0719,2.059,2.0719,2.0782,2.0782,2.0782,2.0782,2.091,2.0719,2.059,2.059,2.059,2.0268,1.9562,2.0139,1.9944,1.8462,1.9748,2.0204,1.9375,1.9431,1.9431,1.9299,1.8654,1.8337,1.8337,1.8337,1.8337,1.8327,1.911,1.9044,1.2372,1.3374,1.461,1.5597,1.722,1.8988,2.0661,2.2258,0.0,0.0,0.0,1.9448,1.7625,0.0,0.0,0.8494,0.0,0.0,0.0,0.0,0.3841,0.0,0.0,0.0,0.0,0.0,0.0,0.0,0.0,0.0,0.7314,0.8232,0.8846,0.9069,0.9814,0.9965,0.9296,1.0265,1.0708,1.0559,1.1545,1.1922,1.1774,1.1774,1.1774,1.1774,0.0,0.0,1.207,1.207,1.2586,1.3455,1.3455,1.3954,1.4736,1.4879,1.495,1.495,1.5117,1.5196,1.5188,1.4996,1.4932,1.4984,1.5155,1.5738,1.6333,1.6333,1.7017,1.7794,1.7794,1.7862,1.8008,1.8008,1.8008,1.8202,1.8911,1.9617,2.0204,2.0333,2.1112,2.1428,2.0719,2.1175,2.169,2.169,2.169,2.1939,2.2567,2.1479,2.059,2.059,2.059,2.0526,2.0398,2.0526,2.0462,2.0139,2.0398,2.0204,1.9375,2.0009,2.0009,1.9299,1.9879,2.0139,2.0139,2.0139,2.0139,2.0139,2.0333,2.0268,1.7583,1.8816,2.027,2.1101,2.2031,2.3213,2.4962,0.0,0.0,0.0,0.0,0.0,1.9986,0.0,0.0,0.0,0.0,0.0,0.0,0.0,0.0,0.0,0.0,0.0,0.0,0.0,0.0,0.0,0.0,0.0,0.8694,0.9518,1.0115,1.0115,1.1093,1.1323,1.0875,1.1316,1.1835,1.2338,1.2799,1.331,1.3803,1.3803,1.3803,1.381,1.3237,0.0,1.3803,1.3237,1.3593,1.4458,1.4458,1.4807,1.5234,1.5728,1.5939,1.6009,1.6515,1.6655,1.6655,1.6655,1.6321,1.6032,1.6528,1.6943,1.73,1.73,1.7978,1.8654,1.8654,1.8977,1.9365,1.9365,1.9365,1.9497,1.9879,2.0655,2.1302,2.1302,2.1928,2.2372,2.199,2.2249,2.2506,2.2506,2.2506,2.2628,2.3078,2.2372,2.1928,2.1928,2.1928,2.1741,2.129,2.1678,2.1542,2.0655,2.1416,2.1542,2.0719,2.1037,2.1112,2.0655,2.059,2.059,2.059,2.059,2.059,2.059,2.1049,2.1037,2.2311,2.3378,2.4671,2.5518,2.5591,2.5964,2.7759,2.8064,0.0,0.0,0.0,0.0,0.0,0.0,0.0,0.0,0.0,0.0,0.0,0.0,0.0,0.0,0.0,0.0,0.0,0.0,0.0,0.0,0.0,0.0,1.0051,1.072,1.1087,1.1087,1.2063,1.2592,1.2592,1.2806,1.331,1.4027,1.4027,1.4458,1.5234,1.5234,1.5234,1.5163,1.4378,0.0,0.0,1.4386,1.4593,1.5517,1.5517,1.5587,1.5877,1.6645,1.6922,1.7001,1.7725,1.8008,1.8008,1.8202,1.7628,1.707,1.7794,1.8008,1.8008,1.8008,1.8664,1.9299,1.9299,1.9944,2.059,2.059,2.0719,2.0846,2.0846,2.1553,2.2137,2.2137,2.2689,2.3078,2.3078,2.3078,2.3078,2.3078,2.3078,2.3078,2.3078,2.3078,2.3078,2.3078,2.3078,2.2823,2.2199,2.2763,2.2555,2.1227,2.2372,2.2763,2.1939,2.2075,2.2075,2.1877,2.1428,2.1164,2.1164,2.1164,2.1164,2.1164,2.1815,2.1803,2.5311,2.6187,2.7041,2.7804,2.761,2.7555,2.8933,0.0,0.0,0.0,0.0,0.0,0.0,0.0,0.0,0.0,0.0,0.0,0.0,0.0,0.0,0.0,0.0,0.0,0.0,0.0,0.0,0.0,0.0,0.0,0.0,1.2077,1.215,1.215,1.3091,1.36,1.36,1.445,1.495,1.5092,1.5092,1.5092,1.5234,1.5234,1.5234,1.5163,0.0,0.0,0.0,1.5092,1.5658,1.6489,1.6489,1.7001,1.7725,1.7862,1.7872,1.7862,1.794,1.8008,1.8144,1.8911,1.8586,1.7872,1.794,1.8008,1.8008,1.8008,1.8664,1.9299,1.9299,1.9944,2.059,2.059,2.1164,2.1753,2.1753,2.2445,2.3005,2.3005,2.3078,2.3078,2.3078,2.3078,2.3078,2.3078,2.3078,2.3078,2.3078,2.3078,2.3078,2.3078,2.3078,2.3078,2.3017,2.3078,2.3005,2.2884,2.3005,2.2763,2.1939,2.2628,2.2641,2.1877,2.2567,2.2884,2.2884,2.2884,2.2884,2.2884,2.2944,2.2944,2.795,2.8521,2.9141,2.9428,2.907,2.9076,3.0839,0.0,0.0,0.0,2.9502,2.7704,0.0,0.0,0.0,0.0,0.0,0.0,0.0,0.0,0.0,0.0,0.0,0.0,0.0,0.0,0.0,0.0,0.0,0.0,0.0,1.4019,1.4019,1.4019,1.4378,1.4593,1.4593,1.5021,1.5517,1.607,1.607,1.6358,1.6872,1.6872,1.6872,1.6862,0.0,0.0,0.0,1.6289,1.6576,1.7432,1.7432,1.7647,1.8008,1.8008,1.8008,1.8076,1.8586,1.8787,1.8921,1.9814,1.9814,1.9562,1.9562,1.9562,1.9562,1.9562,2.0204,2.0846,2.0846,2.1479,2.2113,2.2113,2.2372,2.2628,2.2628,2.2884,2.3078,2.3078,2.3078,2.3078,2.3078,2.3078,2.3078,2.3078,2.3078,2.3078,2.3078,2.3078,2.3078,2.3078,2.3078,2.3078,2.3078,2.3078,2.3078,2.3078,2.3078,2.2944,2.2641,2.2944,2.2944,2.2628,2.2944,2.3078,2.3078,2.3489,2.3653,2.3665,2.3991,2.4142,3.008,3.0509,3.0942,3.0938,3.051,3.0454,0.0,0.0,0.0,3.1714,3.0704,2.8968,2.6598,0.0,0.0,0.0,0.0,0.0,0.0,0.0,0.0,0.0,0.0,0.0,0.0,0.0,0.0,0.0,0.0,0.0,0.0,1.6018,1.5799,1.5234,1.5446,1.5579,1.5579,1.5869,1.6367,1.6991,1.6991,1.7354,1.8008,1.8008,1.8008,1.794,0.0,0.0,0.0,1.7285,1.7432,1.8008,1.8008,1.8008,1.8008,1.8008,1.8008,1.8134,1.8977,1.9299,1.9497,2.059,2.0974,2.1037,2.129,2.0974,2.059,2.059,2.1239,2.1939,2.2187,2.2702,2.3078,2.3078,2.3078,2.3078,2.3078,2.3078,2.3078,2.3078,2.3078,2.3078,2.3078,2.3078,2.3078,2.3078,2.3078,2.3128,2.3364,2.3389,2.3452,2.3615,2.3566,2.3502,2.3103,2.3288,2.3389,2.3389,2.354,2.3566,2.3566,2.3566,2.3566,2.3566,2.3566,2.3566,2.3566,2.4042,2.4243,2.4255,2.4644,2.4732,3.1591,3.2139,3.2474,3.2491,3.2015,3.1754,0.0,0.0,0.0,0.0,3.2015,3.1002,2.9194,2.7458,2.4929,2.0939,0.0,0.0,0.0,0.0,0.0,0.0,0.0,0.0,0.0,0.0,0.0,0.0,0.0,0.0,0.0,1.794,1.7157,1.5234,1.607,1.6567,1.6567,1.7501,1.8008,1.8008,1.8008,1.8008,1.8008,1.8008,1.8008,0.0,0.0,0.0,0.0,1.8008,1.8008,1.8008,1.8008,1.8008,1.8008,1.8008,1.8008,1.8134,1.8977,1.9299,1.9562,2.1302,2.1877,2.2075,2.2823,2.1928,2.059,2.059,2.1239,2.2063,2.2884,2.3065,2.3078,2.3078,2.3078,2.3078,2.3078,2.3078,2.3078,2.3078,2.3078,2.3078,2.3078,2.3078,2.3078,2.3078,2.3078,2.3339,2.3916,2.3991,2.4192,2.4745,2.4808,2.4356,2.3226,2.3665,2.3991,2.3991,2.4506,2.4808,2.4808,2.4808,2.4808,2.4808,2.4808,2.4808,2.4808,2.4808,2.4808,2.4808,2.482,2.4531,3.1771,3.2127,3.2491,3.2491,3.2054,3.1844,3.2786,0.0,0.0,0.0,0.0,3.0808,2.8211,2.6949,2.4908,2.0635,0.0,0.0,0.0,0.0,0.0,0.0,0.0,0.0,0.0,0.0,0.0,0.0,0.0,0.0,0.0,1.8008,1.7725,1.7148,1.7432,1.7579,1.7579,1.7862,1.8008,1.8008,1.8008,1.8008,1.8008,1.8008,0.0,0.0,0.0,0.0,0.0,1.8008,1.8008,1.8008,1.8008,1.8327,1.8854,1.8202,1.8721,1.9814,2.0074,2.0803,2.1811,2.2943,2.359,2.3963,2.4154,2.3628,2.3016,2.3381,2.3695,2.3963,2.423,2.4293,2.4293,2.4293,2.4293,2.4293,2.4293,2.4293,2.4293,2.4293,2.4293,2.4293,2.4293,2.4293,2.4293,2.4293,2.4293,2.4356,2.4544,2.4556,2.4619,2.4808,2.482,2.4682,2.4318,2.4456,2.4556,2.4556,2.472,2.482,2.482,2.482,2.482,2.482,2.482,2.482,2.482,2.5172,2.5548,2.5937,2.5536,2.5259,0.0,3.2419,3.282,3.2948,3.2702,0.0,0.0,0.0,0.0,0.0,0.0,0.0,0.0,2.5858,2.3694,2.0064,1.8922,0.0,0.0,0.0,0.0,0.0,0.0,0.0,0.0,0.0,0.0,0.0,0.0,0.0,0.0,0.0,1.8008,1.8008,1.8008,1.8008,1.8008,1.8008,1.8008,1.8008,1.8008,1.8008,1.8008,1.8008,0.0,0.0,0.0,0.0,0.0,1.8008,1.8008,1.8008,1.8327,1.8854,1.933,1.9308,1.9951,2.0958,2.1541,2.2274,2.3155,2.4039,2.4544,2.4858,2.5059,2.4745,2.4381,2.472,2.482,2.482,2.482,2.482,2.482,2.482,2.482,2.482,2.482,2.482,2.482,2.482,2.482,2.482,2.482,2.482,2.482,2.482,2.482,2.4895,2.5096,2.5109,2.5197,2.5423,2.5435,2.5435,2.5435,2.5234,2.5109,2.5109,2.5322,2.5435,2.5435,2.5435,2.5435,2.5435,2.5435,2.5435,2.5435,2.5762,2.6,2.6126,2.5762,2.5372,0.0,3.2757,3.3313,3.3715,3.3807,0.0,0.0,0.0,0.0,0.0,0.0,0.0,0.0,0.0,2.1665,1.9456,0.0,0.0,0.0,0.0,0.0,0.0,0.0,0.0,0.0,0.0,0.0,0.0,0.0,0.0,0.0,0.0,1.8134,1.8202,1.8134,1.8076,1.8076,1.8076,1.8134,1.8202,1.8076,1.8076,1.8202,1.8144,0.0,0.0,0.0,0.0,0.0,1.8271,1.8213,1.8251,1.9127,1.9526,1.9777,2.1008,2.1508,2.1841,2.3058,2.3604,2.3773,2.4648,2.4946,2.5021,2.5511,2.5297,2.4883,2.4921,2.4946,2.4946,2.4946,2.4946,2.4946,2.4946,2.4946,2.4946,2.4946,2.4946,2.4946,2.4946,2.4998,2.4998,2.4998,2.5062,2.5114,2.5114,2.5114,2.5291,2.5785,2.5836,2.6051,2.6595,2.6589,2.6589,2.6589,2.603,2.5649,2.5649,2.6163,2.6533,2.6533,2.6533,2.6533,2.6533,2.6533,2.6533,2.6533,2.6533,2.6163,2.5598,2.5561,2.4983,3.037,0.0,3.3313,3.3715,3.3807,3.3807,0.0,0.0,0.0,0.0,0.0,0.0,0.0,0.0,0.0,0.0,0.0,0.0,0.0,0.0,0.0,0.0,0.0,0.0,0.0,0.0,0.0,0.0,0.0,0.0,0.0,0.0,1.9291,1.9944,1.9365,1.8977,1.8977,1.8977,1.9299,1.9944,1.8664,1.8721,1.9944,1.9299,0.0,0.0,0.0,0.0,1.9096,2.0601,2.055,1.9729,2.1024,2.1913,2.2472,2.2117,2.2846,2.3961,2.3598,2.4244,2.5207,2.5857,2.6076,2.6101,2.6214,2.5862,2.5511,2.595,2.6076,2.6076,2.6076,2.6076,2.6076,2.6076,2.6076,2.6076,2.6076,2.6076,2.6076,2.6076,2.6575,2.7013,2.7013,2.7573,2.8008,2.8008,2.8008,2.8062,2.8197,2.8211,2.8265,2.8414,2.7802,2.7417,2.7417,2.671,2.6319,2.6319,2.6445,2.6533,2.6533,2.6533,2.6533,2.6533,2.6533,2.6533,2.6533,2.6533,2.6163,2.5586,2.5197,2.4644,2.9248,3.0949,3.2474,3.2875,3.3258,3.3486,3.3258,0.0,0.0,0.0,0.0,0.0,0.0,0.0,0.0,0.0,0.0,0.0,0.0,0.0,0.0,0.0,0.0,0.0,0.0,0.0,0.0,0.0,0.0,0.0,0.0,0.0,1.9312,1.9431,2.0358,2.0554,1.989,1.9497,1.9759,2.059,1.9908,1.9897,2.0602,2.0369,0.0,0.0,0.0,0.0,2.0324,2.1677,2.1764,2.1213,2.2366,2.3089,2.3537,2.3696,2.4329,2.5144,2.4915,2.54,2.605,2.642,2.6533,2.6533,2.6533,2.6239,2.605,2.6445,2.6533,2.6533,2.6533,2.6533,2.6533,2.6533,2.6533,2.6533,2.6533,2.6533,2.6533,2.6533,2.685,2.7297,2.767,2.8117,2.8556,2.8939,2.9002,2.9002,2.9002,2.9002,2.9002,2.9002,2.8556,2.8298,2.8298,2.792,2.7284,2.6521,2.685,2.704,2.704,2.7417,2.7484,2.704,2.7417,2.7484,2.704,2.6771,2.6531,2.6317,2.5052,2.4317,2.8202,2.963,3.0927,3.1384,3.2074,3.2481,3.1799,0.0,0.0,0.0,0.0,0.0,0.0,0.0,0.0,0.0,0.0,0.0,0.0,0.0,0.0,0.0,0.0,0.0,0.0,0.0,0.0,0.0,0.0,0.0,0.0,0.0,0.0,1.9059,2.1481,2.2298,2.1277,2.0358,2.0358,2.1213,2.1438,2.1416,2.1277,2.157,2.1547,0.0,0.0,0.0,2.1754,2.2525,2.272,2.2583,2.357,2.3953,2.4068,2.5282,2.5724,2.5799,2.6289,2.6533,2.6533,2.6533,2.6533,2.6533,2.6533,2.6533,2.6533,2.6533,2.6533,2.6533,2.6533,2.6533,2.6533,2.6533,2.6589,2.6658,2.6658,2.6782,2.6905,2.6905,2.6973,2.7284,2.7986,2.8182,2.8556,2.9254,2.938,2.938,2.938,2.938,2.938,2.938,2.9254,2.9192,2.9192,2.9066,2.8363,2.6973,2.755,2.792,2.792,2.862,2.862,2.792,2.862,2.8579,2.7722,2.7296,2.7072,2.6996,2.5205,2.4382,2.6728,2.7572,2.8308,2.8948,2.9668,2.9784,0.0,0.0,0.0,0.0,0.0,0.0,0.0,0.0,0.0,0.0,0.0,0.0,0.0,0.0,0.0,0.0,0.0,0.0,0.0,0.0,0.0,0.0,0.0,0.0,0.0,0.0,0.0,2.3745,2.3478,2.3622,2.4159,2.3263,2.3263,2.4159,2.2724,2.2803,2.4159,2.349,2.3544,0.0,0.0,2.4256,2.3321,2.5074,2.5115,2.4101,2.5499,2.6065,2.6077,2.6289,2.6327,2.6408,2.6496,2.6533,2.6533,2.6533,2.6533,2.6533,2.6533,2.6533,2.6533,2.6533,2.6533,2.6533,2.6533,2.6533,2.6533,2.6533,2.704,2.755,2.755,2.8117,2.862,2.862,2.9192,2.9766,2.9889,3.0464,3.097,3.1087,3.1087,3.1087,3.1087,3.1087,3.1087,3.1087,3.0524,3.0072,3.0072,2.9442,2.8876,2.862,2.8748,2.8812,2.8812,2.8939,2.8939,2.8812,2.8939,2.8614,2.7933,2.7899,2.7344,2.6318,2.6004,2.5636,2.4309,2.4849,2.5164,2.4678,2.5877,2.6537,0.0,0.0,0.0,0.0,0.0,0.0,0.0,0.0,0.0,0.0,0.0,0.0,0.0,0.0,0.0,0.0,0.0,0.0,0.0,0.0,0.0,0.0,0.0,0.0,0.0,0.0,0.0,0.0,2.419,2.4602,2.4536,2.4909,2.4987,2.4755,2.4268,2.4323,2.4833,2.469,2.4666,2.4845,0.0,2.5249,2.473,2.5977,2.6083,2.5573,2.6214,2.6533,2.6533,2.6533,2.6533,2.6533,2.6533,2.6533,2.6533,2.6533,2.6533,2.6533,2.6533,2.6533,2.6533,2.6533,2.6533,2.6533,2.6533,2.6533,2.6589,2.704,2.7417,2.7868,2.8298,2.8748,2.9002,2.9002,2.9317,2.9766,3.0208,3.0584,3.1029,3.1409,3.1482,3.1482,3.1482,3.1482,3.1482,3.1482,3.1161,3.097,3.097,3.0584,3.0147,2.9752,2.969,2.9889,3.0329,3.0329,3.0133,2.969,3.0133,2.9832,2.8711,2.8358,2.7968,2.7446,2.6302,2.5828,2.2498,2.2542,2.2124,2.0457,0.0,0.0,0.0,0.0,0.0,0.0,0.0,0.0,0.0,0.0,0.0,0.0,0.0,0.0,0.0,0.0,0.0,0.0,0.0,0.0,0.0,0.0,0.0,0.0,0.0,0.0,0.0,0.0,0.0,0.0,2.4878,2.5505,2.4788,2.594,2.6038,2.5209,2.5598,2.5586,2.5222,2.5611,2.5586,2.5222,2.5624,2.5799,2.5837,2.6276,2.6533,2.6533,2.6533,2.6533,2.6533,2.6533,2.6533,2.6533,2.6533,2.6533,2.6533,2.6533,2.6533,2.6533,2.6533,2.6533,2.6521,2.6714,2.6782,2.6714,2.6521,2.6658,2.6905,2.7537,2.7986,2.8492,2.9192,2.9442,2.9566,2.9566,2.9566,2.9827,3.0464,3.0584,3.0777,3.1409,3.1482,3.1482,3.1482,3.1482,3.1482,3.1482,3.1482,3.1482,3.1482,3.1482,3.1219,3.0644,3.0584,3.0837,3.1467,3.1482,3.1219,3.0584,3.1219,3.0819,2.9348,2.8897,2.8601,2.8353,2.6673,2.6215,2.2441,2.1433,1.9756,1.7417,1.83,0.0,0.0,0.0,0.0,0.0,0.0,0.0,0.0,0.0,0.0,0.0,0.0,0.0,0.0,0.0,0.0,0.0,0.0,0.0,0.0,0.0,0.0,0.0,0.0,0.0,0.0,0.0,0.0,0.0,0.0,2.6402,2.6321,2.644,2.6483,2.6408,2.6445,2.6445,2.6408,2.6445,2.6445,2.6352,2.6445,2.6471,2.6471,2.6508,2.6533,2.6533,2.6533,2.6533,2.6533,2.6533,2.6533,2.6533,2.6533,2.6533,2.6533,2.6533,2.6533,2.6533,2.6533,2.6533,2.6658,2.7417,2.7604,2.7417,2.6714,2.704,2.7604,2.767,2.8939,3.0133,3.0208,3.0777,3.1351,3.1351,3.1351,3.1351,3.1409,3.1409,3.1409,3.1482,3.1482,3.1482,3.1482,3.1482,3.1482,3.1482,3.1482,3.1482,3.1482,3.1482,3.1467,3.1409,3.1409,3.1409,3.1482,3.1482,3.1467,3.1409,3.1467,3.0854,2.9585,2.954,2.8853,2.7649,2.7539,2.7458,1.9973,1.8806,0.0,1.6604,0.0,0.0,0.0,0.0,0.0,0.0,0.0,0.0,0.0,0.0,0.0,0.0,0.0,0.0,0.0,0.0,0.0,0.0,0.0,0.0,0.0,0.0,0.0,0.0,0.0,0.0,0.0,0.0,0.0,0.0,0.0,2.6533,2.6533,2.6533,2.6533,2.6533,2.6533,2.6533,2.6533,2.6533,2.6533,2.6533,2.6533,2.6533,2.6533,2.6533,2.6533,2.6533,2.6533,2.6533,2.6533,2.6533,2.6533,2.6533,2.6533,2.685,2.7229,2.7229,2.7229,2.7351,2.7855,2.767,2.7417,2.8233,2.8492,2.8427,2.8117,2.8298,2.862,2.9192,2.9827,3.045,3.097,3.1278,3.1482,3.1482,3.1482,3.1482,3.1482,3.1482,3.1482,3.1482,3.1482,3.1482,3.1482,3.1482,3.1482,3.1482,3.1482,3.1482,3.1482,3.1482,3.1482,3.1482,3.1482,3.1482,3.1482,3.1482,3.1482,3.1482,3.1106,3.0462,2.9579,2.9175,2.8712,2.8203,2.7769,2.7799,1.7867,1.656,0.0,0.0,0.0,0.0,0.0,0.0,0.0,0.0,0.0,0.0,0.0,0.0,0.0,0.0,0.0,0.0,0.0,0.0,0.0,0.0,0.0,0.0,0.0,0.0,0.0,0.0,0.0,0.0,0.0,0.0,0.0,0.0,0.0,0.0,2.6533,2.6533,2.6533,2.6533,2.6533,2.6533,2.6533,2.6533,2.6533,2.6533,2.6533,2.6533,2.6533,2.6533,2.6533,2.6533,2.6533,2.6658,2.685,2.6589,2.6658,2.6905,2.6905,2.7229,2.7736,2.8051,2.8117,2.8247,2.8812,2.8556,2.8298,2.9192,2.938,2.9442,2.969,2.9566,2.9566,3.0147,3.0524,3.0837,3.1409,3.1482,3.1482,3.1482,3.1482,3.1482,3.1482,3.1482,3.1482,3.1482,3.1482,3.1482,3.1482,3.1482,3.1482,3.1482,3.1482,3.1556,3.1824,3.1839,3.1928,3.2138,3.2153,3.2063,3.1795,3.2048,3.2153,3.2153,3.1689,3.1031,3.0193,2.9744,2.931,2.8891,2.8427,2.8457,1.6572,1.498,0.0,0.0,0.0,0.0,0.0,0.0,0.0,0.0,0.0,0.0,0.0,0.0,0.0,0.0,0.0,0.0,0.0,0.0,0.0,0.0,0.0,0.0,0.0,0.0,0.0,0.0,0.0,0.0,0.0,0.0,0.0,0.0,0.0,0.0,2.6533,2.6533,2.6533,2.6533,2.6533,2.6533,2.6533,2.6533,2.6533,2.6533,2.6533,2.6533,2.6533,2.6533,2.6533,2.6533,2.6533,2.6973,2.7604,2.6782,2.704,2.7736,2.7736,2.7736,2.7855,2.8748,2.9002,2.9002,2.9002,2.9002,2.9192,3.0072,3.0329,3.0524,3.1278,3.0896,3.0329,3.0329,3.0896,3.1482,3.1482,3.1482,3.1482,3.1482,3.1482,3.1482,3.1482,3.1482,3.1482,3.1482,3.1482,3.1482,3.1482,3.1482,3.1482,3.1482,3.1482,3.1735,3.2452,3.2527,3.2811,3.3455,3.3499,3.3215,3.2557,3.3155,3.3499,3.3499,3.3484,3.2841,3.1482,3.1482,3.0866,2.9609,2.9609,2.9609,1.5294,1.3563,0.0,0.0,0.0,0.0,0.0,0.0,0.0,0.0,0.0,0.0,0.0,0.0,0.0,0.0,0.0,0.0,0.0,0.0,0.0,0.0,0.0,0.0,0.0,0.0,0.0,0.0,0.0,0.0,0.0,0.0,0.0,0.0,0.0,0.0,2.6533,2.6533,2.6533,2.6533,2.6533,2.6533,2.6533,2.6533,2.6533,2.6533,2.6533,2.6533,2.6533,2.6533,2.6533,2.6589,2.7095,2.7484,2.7736,2.8117,2.8427,2.862,2.862,2.9002,2.9566,2.9827,2.9889,3.0011,3.0584,3.0329,3.0072,3.0896,3.1161,3.1219,3.1409,3.1351,3.1161,3.1161,3.1351,3.1482,3.1482,3.1482,3.1482,3.1482,3.1482,3.1482,3.1482,3.1482,3.1482,3.1482,3.1482,3.1482,3.1482,3.1482,3.1482,3.1482,3.1482,3.1556,3.1809,3.2976,3.3784,3.3978,3.4113,3.3888,3.323,3.3395,3.3499,3.3499,3.3036,3.2617,3.2213,3.1764,3.1345,3.0956,3.0956,3.0956,1.4162,0.0,0.0,0.0,0.0,0.0,0.0,0.0,0.0,0.0,0.0,0.0,0.0,0.0,0.0,0.0,0.0,0.0,0.0,0.0,0.0,0.0,0.0,0.0,0.0,0.0,0.0,0.0,0.0,0.0,0.0,0.0,0.0,0.0,0.0,0.0,2.6533,2.6533,2.6533,2.6533,2.6533,2.6533,2.6533,2.6533,2.6533,2.6521,2.685,2.6973,2.6973,2.6973,2.7162,2.7484,2.767,2.8117,2.8748,2.8939,2.9192,2.9504,2.9504,2.9889,3.0329,3.0644,3.0777,3.0896,3.1351,3.1161,3.0896,3.1351,3.1719,3.1928,3.1928,3.2123,3.2183,3.1601,3.1482,3.1482,3.1482,3.1482,3.1482,3.1482,3.1482,3.1482,3.1482,3.1482,3.1482,3.1482,3.1764,3.1958,3.1989,3.1989,3.1855,3.1511,3.1482,3.1749,3.2273,3.3484,3.4352,3.4696,3.4816,3.4711,3.4307,3.4292,3.4292,3.4292,3.3903,3.3574,3.329,3.2901,3.2557,3.2317,3.2317,3.2317,1.3171,0.0,0.0,0.0,0.0,0.0,0.0,0.0,0.0,0.0,0.0,0.0,0.0,0.0,0.0,0.0,0.0,0.0,0.0,0.0,0.0,0.0,0.0,0.0,0.0,0.0,0.0,0.0,0.0,0.0,0.0,0.0,0.0,0.0,0.0,0.0,2.6589,2.6521,2.6521,0.0,2.6521,2.6533,2.6533,2.6533,2.6521,2.6658,2.7351,2.7736,2.7802,2.7802,2.8298,2.8939,2.8247,2.8939,3.0208,2.9504,2.9752,3.0389,3.0389,3.0389,3.0524,3.1278,3.1482,3.1482,3.1482,3.1511,3.1556,3.1556,3.2093,3.2602,3.2602,3.3036,3.3185,3.2003,3.1616,3.1556,3.1556,3.1511,3.1482,3.1482,3.1482,3.1497,3.1556,3.1511,3.1482,3.1482,3.2108,3.2632,3.2811,3.2736,3.2348,3.1556,3.1691,3.2377,3.3574,3.4068,3.4666,3.5459,3.5504,3.5504,3.5504,3.5504,3.5504,3.5504,3.5504,3.519,3.4562,3.4562,3.4233,3.3589,3.3649,3.3649,1.266,1.187,0.0,0.0,0.0,0.0,0.0,0.0,0.0,0.0,0.0,0.0,0.0,0.0,0.0,0.0,0.0,0.0,0.0,0.0,0.0,0.0,0.0,0.0,0.0,0.0,0.0,0.0,0.0,0.0,0.0,0.0,0.0,0.0,0.0,2.6782,2.7417,2.685,2.685,0.0,2.6782,2.6533,2.6533,2.6533,2.685,2.7484,2.7604,2.8117,2.8748,2.8748,2.8812,2.9066,2.9566,2.995,3.0329,3.0777,3.1087,3.1219,3.1219,3.1219,3.1278,3.1409,3.1482,3.1482,3.1482,3.1898,3.2302,3.2302,3.2781,3.3275,3.3275,3.338,3.3425,3.314,3.2677,3.2302,3.2302,3.1898,3.1482,3.1482,3.1482,3.1704,3.2213,3.1884,3.1482,3.1482,3.2184,3.2916,3.3305,3.2452,3.1691,3.1497,3.3395,3.4771,3.5055,3.516,3.531,3.5489,3.5504,3.5504,3.5504,3.5504,3.5504,3.5504,3.5504,3.5429,3.528,3.528,3.4936,3.4277,3.4816,3.4786,1.3241,0.0,0.0,0.0,0.0,0.0,0.0,0.0,0.0,0.0,0.0,0.0,0.0,0.0,0.0,0.0,0.0,0.0,0.0,0.0,0.0,0.0,0.0,0.0,0.0,0.0,0.0,0.0,0.0,0.0,0.0,0.0,0.0,0.0,2.6533,2.6714,2.7095,2.6714,2.6905,2.767,2.7297,2.7284,2.767,2.7297,2.755,2.8363,2.8748,2.9192,2.9628,2.9628,2.9827,3.0208,3.0269,3.0524,3.0896,3.1351,3.1482,3.1482,3.1482,3.1482,3.1482,3.1482,3.1482,3.1482,3.1482,3.1988,3.2512,3.2512,3.3215,3.3963,3.3963,3.4218,3.4457,3.4457,3.3694,3.2976,3.2976,3.2706,3.2482,3.2482,3.2482,3.2587,3.2916,3.2706,3.2542,3.2781,3.32,3.3724,3.4382,3.3858,3.344,3.344,3.4681,3.5504,3.5504,3.5504,3.5504,3.5504,3.5504,3.5504,3.5504,3.5504,3.5504,3.5504,3.5504,3.5504,3.5504,3.5504,3.5325,3.4981,3.534,3.531,1.412,0.0,0.0,0.0,0.0,0.0,0.0,0.0,0.0,0.0,0.0,0.0,0.0,0.0,0.0,0.0,0.0,0.0,0.0,0.0,0.0,0.0,0.0,0.0,0.0,0.0,0.0,0.0,0.0,0.0,0.0,0.0,2.6589,2.6714,2.6714,2.685,2.7162,2.704,2.7351,2.8182,2.7986,2.8363,2.9192,2.8492,2.8556,2.9254,3.0011,3.0389,3.0524,3.0524,3.0896,3.1409,3.0777,3.0896,3.1482,3.1482,3.1482,3.1482,3.1482,3.1482,3.1482,3.1482,3.1482,3.1497,3.1616,3.2153,3.2706,3.2826,3.3724,3.4651,3.4651,3.507,3.5504,3.5668,3.4763,3.3799,3.3694,3.3574,3.3499,3.3499,3.3589,3.3634,3.3514,3.3679,3.3903,3.4053,3.4277,3.4681,3.5415,3.5504,3.5504,3.5504,3.5504,3.5504,3.5504,3.5504,3.5504,3.5504,3.5504,3.5504,3.5504,3.5504,3.5504,3.5504,3.5619,3.5619,3.5504,3.5619,3.5619,3.5504,3.5504,3.5504,0.0,0.0,0.0,0.0,0.0,0.0,0.0,0.0,0.0,0.0,0.0,0.0,0.0,0.0,0.0,0.0,0.0,0.0,0.0,0.0,0.0,0.0,0.0,0.0,0.0,0.0,0.0,0.0,0.0,0.0,0.0,2.6533,2.685,2.755,2.7537,2.8247,2.9766,2.9066,2.9129,2.995,2.9192,2.9254,3.0133,3.0011,3.0011,3.0133,3.0269,3.0703,3.1351,3.1351,3.1409,3.1482,3.1409,3.1409,3.1482,3.1482,3.1482,3.1482,3.1482,3.1482,3.1482,3.1482,3.1482,3.1586,3.2213,3.2841,3.3484,3.4053,3.4771,3.537,3.537,3.5429,3.5668,3.6275,3.5806,3.507,3.4472,3.3903,3.3499,3.3499,3.3963,3.4158,3.3589,3.4457,3.4861,3.3754,3.4577,3.537,3.5489,3.5504,3.5504,3.5504,3.5504,3.5504,3.5504,3.5504,3.5504,3.5504,3.5504,3.5504,3.5504,3.5504,3.5504,3.5504,3.6117,3.6165,3.5504,3.6165,3.6102,3.5504,3.5504,3.5504,1.7684,0.0,0.0,0.0,0.0,0.0,0.0,0.0,0.0,0.0,0.0,0.0,0.0,0.0,0.0,0.0,0.0,0.0,0.0,0.0,0.0,0.0,0.0,0.0,0.0,0.0,0.0,0.0,0.0,0.0,2.7855,2.7417,2.7537,2.8427,2.8427,2.8812,2.9566,2.9192,2.9442,3.0329,3.0389,3.0584,3.097,3.097,3.097,3.097,3.097,3.1161,3.1482,3.1482,3.1482,3.1482,3.1482,3.1482,3.1482,3.1482,3.1482,3.1482,3.1482,3.1482,3.1541,3.1958,3.2078,3.2213,3.2871,3.3529,3.4098,3.4397,3.4966,3.5504,3.5504,3.5504,3.5668,3.6446,3.6322,3.6151,3.6319,3.5446,3.4718,3.5156,3.5446,3.5738,3.5854,3.6137,3.5934,3.476,3.513,3.5504,3.5504,3.5504,3.6133,3.7905,3.8076,3.7397,3.5619,3.6022,3.607,3.5569,3.5504,3.5504,3.5504,3.5504,3.5504,3.5504,3.5846,3.5831,3.5504,3.5846,3.5846,3.5504,3.5504,3.5504,0.0,0.0,0.0,0.0,0.0,0.0,0.0,0.0,0.0,0.0,0.0,0.0,0.0,0.0,0.0,0.0,0.0,0.0,0.0,0.0,0.0,0.0,0.0,0.0,0.0,0.0,0.0,0.0,0.0,0.0,2.8939,2.8363,2.8427,2.9317,2.9317,2.9442,2.9628,2.9628,2.995,3.0584,3.1219,3.1482,3.1482,3.1482,3.1482,3.1482,3.1482,3.1482,3.1482,3.1482,3.1482,3.1482,3.1482,3.1482,3.1482,3.1482,3.1482,3.1482,3.1482,3.1586,3.1869,3.2362,3.2632,3.2886,3.3544,3.4083,3.4517,3.4696,3.5277,3.5782,3.5782,3.591,3.6243,3.7024,3.7008,3.7084,3.769,3.689,3.6258,3.6798,3.6904,3.7024,3.7515,3.7259,3.666,3.5668,3.5809,3.626,3.6615,3.6646,3.7557,3.985,4.007,3.9156,3.6874,3.6646,3.6415,3.591,3.5619,3.5504,3.5504,3.5504,3.5504,3.5504,3.5504,3.5504,3.5504,3.591,3.5846,3.5504,3.5668,3.5668,0.0,0.0,0.0,0.0,0.0,0.0,0.0,0.0,0.0,0.0,0.0,0.0,0.0,0.0,0.0,0.0,0.0,0.0,0.0,0.0,0.0,0.0,0.0,0.0,0.0,0.0,0.0,0.0,0.0,0.0,2.9002,2.8939,2.9317,3.0208,3.0208,3.0584,3.1351,3.1351,3.1409,3.1409,3.1467,3.1482,3.1482,3.1482,3.1482,3.1482,3.1482,3.1482,3.1482,3.1482,3.1482,3.1482,3.1482,3.1482,3.1482,3.1482,3.1482,3.1482,3.1482,3.1943,3.2467,3.2497,3.2931,3.3559,3.4218,3.4442,3.4607,3.5265,3.5976,3.6554,3.6554,3.71,3.7863,3.8619,3.8246,3.7764,3.7806,3.7764,3.769,3.7748,3.7748,3.7573,3.71,3.701,3.6679,3.5623,3.6731,3.8219,3.9648,3.985,3.9901,4.007,4.007,4.002,3.985,3.7219,3.5958,3.6874,3.6022,3.5504,3.5504,3.5504,3.5504,3.5504,3.5504,3.5504,3.5504,3.6951,3.6951,3.5504,3.6228,3.6165,0.0,0.0,0.0,0.0,0.0,0.0,0.0,0.0,0.0,0.0,0.0,0.0,0.0,0.0,0.0,0.0,0.0,0.0,0.0,0.0,0.0,0.0,0.0,0.0,0.0,0.0,0.0,0.0,0.0,0.0,3.118,3.0362,3.0208,3.1029,3.1087,3.1219,3.1482,3.1482,3.1482,3.1482,3.1482,3.1482,3.1482,3.1482,3.1482,3.1482,3.1482,3.1482,3.1482,3.1482,3.1482,3.1482,3.1482,3.1796,3.2231,3.2231,3.2231,3.2277,3.2634,3.2682,3.2647,3.3499,3.3933,3.4247,3.4936,3.513,3.5304,3.5978,3.6384,3.6722,3.7219,3.7573,3.7978,3.8745,3.9086,3.9279,3.9279,3.8502,3.7921,3.8414,3.8525,3.858,3.8924,3.8987,3.8846,3.8509,3.8947,3.9463,4.002,4.007,4.007,4.007,4.007,4.007,4.007,3.8635,3.7616,3.7515,3.6692,3.6228,3.6228,3.5718,3.5504,3.5504,3.5504,3.5504,3.5504,3.6523,3.6737,3.6228,3.6508,3.6446,0.0,0.0,0.0,0.0,0.0,0.0,0.0,0.0,0.0,0.0,0.0,0.0,0.0,0.0,0.0,0.0,0.0,0.0,0.0,0.0,0.0,0.0,0.0,0.0,0.0,0.0,0.0,0.0,0.0,0.0,3.2751,3.1707,3.119,3.1482,3.1482,3.1482,3.1482,3.1482,3.1482,3.1482,3.1482,3.1482,3.1539,3.1739,3.1853,3.1853,3.1853,3.1739,3.1482,3.1482,3.164,3.1853,3.1853,3.2327,3.298,3.3199,3.3131,3.3005,3.3686,3.3729,3.3638,3.4312,3.4796,3.5241,3.5419,3.5668,3.5943,3.643,3.6948,3.7483,3.8019,3.8374,3.8723,3.9209,3.9714,4.007,4.007,3.9279,3.8707,3.9209,3.9315,3.9489,4.002,4.007,4.007,4.007,4.007,4.007,4.007,4.007,4.007,4.007,4.007,4.007,4.007,3.9279,3.8596,3.8206,3.744,3.7024,3.7024,3.629,3.5894,3.5894,3.5619,3.5504,3.5504,3.6523,3.6843,3.6615,3.6843,3.6737,0.0,0.0,0.0,0.0,0.0,0.0,0.0,0.0,0.0,0.0,0.0,0.0,0.0,0.0,0.0,0.0,0.0,0.0,0.0,0.0,0.0,0.0,0.0,0.0,0.0,0.0,0.0,0.0,0.0,3.3499,3.3529,3.2901,3.2243,3.1526,3.1497,3.1497,3.1482,3.1482,3.1482,3.1482,3.1482,3.1482,3.1524,3.2216,3.2602,3.2586,3.2586,3.2231,3.1582,3.1524,3.1951,3.2641,3.2672,3.3071,3.3761,3.4466,3.4295,3.3727,3.453,3.5183,3.5548,3.4785,3.5506,3.6446,3.5718,3.6054,3.6615,3.6661,3.7758,3.8908,3.8908,3.9489,4.007,4.007,4.007,4.007,4.007,4.007,4.007,4.007,4.007,4.007,4.007,4.007,4.007,4.007,4.007,4.007,4.007,4.007,4.007,4.007,4.007,4.007,4.007,3.9189,3.8739,3.8908,3.8246,3.7806,3.7806,3.7084,3.66,3.6615,3.5894,3.5504,3.5569,3.6995,3.7381,3.66,3.7397,3.6951,1.8833,0.0,0.0,0.0,0.0,0.0,0.0,0.0,0.0,0.0,0.0,0.0,0.0,0.0,0.0,0.0,0.0,0.0,0.0,0.0,0.0,0.0,0.0,0.0,0.0,0.0,0.0,0.0,3.3769,3.3709,3.4188,3.3589,3.2916,3.2258,3.2243,3.2018,3.1482,3.1482,3.1482,3.1482,3.1482,3.1482,3.1539,3.1682,3.212,3.2586,3.2586,3.2734,3.2971,3.2477,3.268,3.3387,3.3911,3.4507,3.52,3.5971,3.6062,3.6003,3.6697,3.6741,3.6416,3.6121,3.6276,3.6554,3.6384,3.6446,3.6843,3.793,3.8564,3.9016,3.961,3.9952,4.007,4.007,4.007,4.007,4.007,4.007,4.007,4.007,4.007,4.007,4.007,4.007,4.007,4.007,4.007,4.007,4.007,4.007,4.007,4.007,4.007,4.007,4.007,3.985,3.9679,3.9782,3.9032,3.858,3.858,3.7847,3.7203,3.66,3.6384,3.6275,3.6275,3.6737,3.6783,3.6615,3.6859,3.6415,0.0,0.0,0.0,0.0,0.0,0.0,0.0,0.0,0.0,0.0,0.0,0.0,0.0,0.0,0.0,0.0,0.0,0.0,0.0,0.0,0.0,0.0,0.0,0.0,0.0,0.0,0.0,0.0,3.4562,3.4382,3.4472,3.4113,3.3604,3.2946,3.2916,3.2617,3.1943,3.1943,3.1809,3.1482,3.1482,3.164,3.1951,3.2256,3.2772,3.3443,3.3443,3.4014,3.4841,3.3864,3.3861,3.4524,3.4945,3.5727,3.6719,3.7436,3.7484,3.731,3.8035,3.8014,3.7623,3.7239,3.7306,3.7526,3.7203,3.7306,3.7758,3.8619,3.9139,3.9489,3.9952,4.007,4.007,4.007,4.007,4.007,4.007,4.007,4.007,4.007,4.007,4.007,4.007,4.007,4.007,4.007,4.007,4.007,4.007,4.007,4.007,4.007,4.007,4.007,4.007,4.007,4.007,4.007,3.9662,3.9262,3.8908,3.8189,3.7573,3.7084,3.6783,3.6798,3.7084,3.6783,3.6615,3.66,3.6275,3.5894,0.0,0.0,0.0,0.0,0.0,0.0,0.0,0.0,0.0,0.0,0.0,0.0,0.0,0.0,0.0,0.0,0.0,0.0,0.0,0.0,0.0,0.0,0.0,0.0,0.0,0.0,0.0,3.5504,3.5504,3.5235,3.4622,3.4592,3.4277,3.3619,3.3604,3.329,3.2632,3.2617,3.2287,3.1586,3.1586,3.197,3.2641,3.3235,3.3935,3.4691,3.4625,3.5471,3.6793,3.5438,3.5248,3.5844,3.5927,3.6751,3.8007,3.8819,3.8656,3.8121,3.8817,3.9016,3.8908,3.8133,3.8374,3.8799,3.8133,3.8358,3.8908,3.9032,3.9542,4.007,4.007,4.007,4.007,4.007,4.007,4.007,4.007,4.007,4.007,4.007,4.007,4.007,4.007,4.007,4.007,4.007,4.007,4.007,4.007,4.007,4.007,4.007,4.007,4.007,4.007,4.007,4.007,4.007,4.007,3.9782,3.9086,3.8414,3.7978,3.7822,3.7024,3.6964,3.7822,3.6964,3.6615,3.6615,3.5831,3.5504,0.0,0.0,0.0,0.0,0.0,0.0,0.0,0.0,0.0,0.0,0.0,0.0,0.0,0.0,0.0,0.0,0.0,0.0,0.0,0.0,0.0,0.0,0.0,0.0,0.0,0.0,3.5504,3.5504,3.5504,3.5444,3.531,3.5295,3.4996,3.4307,3.4277,3.3963,3.3305,3.3305,3.2976,3.2317,3.2317,3.2425,3.2586,3.2749,3.3798,3.5432,3.4839,3.5771,3.7635,3.6747,3.6481,3.6619,3.7225,3.7658,3.8075,3.9377,3.98,3.9648,3.98,3.985,3.9731,3.8924,3.8799,3.8854,3.8745,3.8799,3.9032,3.9662,3.9952,4.007,4.007,4.007,4.007,4.007,4.007,4.007,4.007,4.007,4.007,4.007,4.007,4.007,4.007,4.007,4.007,4.007,4.007,4.007,4.007,4.007,4.007,4.007,4.007,4.007,4.007,4.007,4.007,4.007,4.007,4.002,3.9885,3.9731,3.9065,3.7806,3.7024,3.6964,3.7822,3.6964,3.6615,3.6615,3.5831,3.5504,0.0,0.0,0.0,2.1856,0.0,0.0,0.0,0.0,0.0,0.0,0.0,0.0,0.0,0.0,0.0,0.0,0.0,0.0,0.0,0.0,0.0,0.0,0.0,0.0,0.0,0.0,3.5504,3.5504,3.5504,3.5504,3.5504,3.5504,3.5355,3.4996,3.4996,3.4826,3.4546,3.4531,3.4419,3.4131,3.3789,3.3779,3.4178,3.4178,3.4935,3.6233,3.6233,3.7079,3.8396,3.7652,3.7567,3.7922,3.8294,3.8667,3.9089,3.9817,4.007,4.007,4.007,4.007,4.002,3.961,3.9489,3.9489,3.9489,3.9489,3.9594,4.002,4.007,4.007,4.007,4.007,4.007,4.007,4.007,4.007,4.007,4.007,4.007,4.007,4.007,4.007,4.007,4.007,4.007,4.007,4.007,4.007,4.007,4.007,4.007,4.007,4.007,4.007,4.007,4.007,4.007,4.007,4.007,3.9901,3.9542,3.9489,3.9156,3.8358,3.7946,3.7946,3.8374,3.7188,3.6615,3.6615,3.5831,3.5504,0.0,0.0,0.0,0.0,0.0,2.3264,0.0,0.0,0.0,0.0,0.0,0.0,0.0,0.0,0.0,0.0,0.0,0.0,0.0,0.0,0.0,0.0,0.0,0.0,0.0,0.0,3.5574,3.5703,3.5428,3.5398,3.5718,3.5554,3.5504,3.5504,3.5504,3.5574,3.5794,3.5778,3.5833,3.5979,3.5364,3.5331,3.5679,3.5877,3.6237,3.6823,3.7584,3.8328,3.8937,3.8362,3.8548,3.9191,3.9056,3.9343,3.9884,4.002,4.007,4.007,4.007,4.007,4.007,4.007,4.007,4.007,4.007,4.007,4.007,4.007,4.007,4.007,4.007,4.007,4.007,4.007,4.007,4.007,4.007,4.007,4.007,4.007,4.007,4.007,4.007,4.007,4.007,4.007,4.007,4.007,4.007,4.007,4.007,4.007,4.007,4.007,4.007,4.007,4.007,4.007,4.007,3.9782,3.9139,3.8962,3.8962,3.9139,3.8854,3.8745,3.8908,3.7492,3.6801,3.6739,3.6027,3.5759,0.0,0.0,0.0,0.0,2.5108,0.0,0.0,0.0,0.0,0.0,0.0,0.0,0.0,0.0,0.0,0.0,0.0,0.0,0.0,0.0,0.0,0.0,0.0,0.0,0.0,0.0,0.0,3.6399,3.5276,3.5122,3.6446,3.5831,3.5504,3.5504,3.5504,3.58,3.6491,3.6491,3.6554,3.6717,3.6581,3.627,3.5696,3.6389,3.672,3.6823,3.7584,3.8328,3.8988,3.8903,3.9292,3.9884,3.9242,3.9039,3.9191,3.9834,4.007,4.007,4.007,4.007,4.007,4.007,4.007,4.007,4.007,4.007,4.007,4.007,4.007,4.007,4.007,4.007,4.007,4.007,4.007,4.007,4.007,4.007,4.007,4.007,4.007,4.007,4.007,4.007,4.007,4.007,4.007,4.007,4.007,4.007,4.007,4.007,4.007,4.007,4.007,4.007,4.007,4.007,4.007,4.007,3.9969,3.9262,3.9262,3.9952,3.8596,3.8262,3.8908,3.7983,3.7514,3.7451,3.6708,3.6671,0.0,0.0,0.0,0.0,0.0,0.0,0.0,0.0,2.5618,0.0,0.0,0.0,0.0,0.0,0.0,0.0,0.0,0.0,0.0,0.0,0.0,0.0,0.0,0.0,0.0,0.0,0.0,0.0,0.0,3.5524,3.6538,3.6337,3.6165,3.6165,3.6165,3.6737,3.793,3.793,3.8196,3.8692,3.8278,3.7918,3.7618,3.792,3.8068,3.8108,3.8853,3.9343,3.9631,3.9631,3.98,4.0054,3.9732,3.9631,3.9665,3.9969,4.007,4.007,4.007,4.007,4.007,4.007,4.007,4.007,4.007,4.007,4.007,4.007,4.007,4.007,4.007,4.007,4.007,4.007,4.007,4.007,4.007,4.007,4.007,4.007,4.007,4.007,4.007,4.007,4.007,4.007,4.007,4.007,4.007,4.007,4.007,4.007,4.007,4.007,4.007,4.007,4.007,4.007,4.007,3.9901,3.9437,3.9542,3.9782,4.007,3.8995,3.8358,3.8246,3.7836,3.7584,3.7491,3.7203,3.6971,3.0518,0.0,0.0,0.0,0.0,0.0,0.0,0.0,0.0,0.0,0.0,0.0,0.0,0.0,0.0,0.0,0.0,0.0,0.0,0.0,0.0,0.0,0.0,0.0,0.0,0.0,0.0,0.0,0.0,0.0,3.7137,3.6843,3.6737,3.6904,3.6722,3.735,3.8908,3.8908,3.9315,4.007,3.9546,3.9191,3.9005,3.9191,3.9073,3.8751,3.9681,3.9969,3.9783,4.0003,4.007,4.007,4.007,4.007,4.007,4.007,4.007,4.007,4.007,4.007,4.007,4.007,4.007,4.007,4.007,4.007,4.007,4.007,4.007,4.007,4.007,4.007,4.007,4.007,4.007,4.007,4.007,4.007,4.007,4.007,4.007,4.007,4.007,4.007,4.007,4.007,4.007,4.007,4.007,4.007,4.007,4.007,4.007,4.007,4.007,4.007,4.002,3.9782,3.9558,3.9332,3.8908,3.9437,3.9885,4.0087,3.9102,3.8399,3.8035,3.7701,3.7496,3.7404,3.7599,3.7539,0.0,0.0,0.0,0.0,0.0,0.0,0.0,0.0,2.6587,0.0,0.0,0.0,0.0,0.0,0.0,0.0,0.0,0.0,0.0,0.0,0.0,0.0,0.0,0.0,0.0,0.0,0.0,0.0,0.0,0.0,3.8689,3.7408,3.6964,3.7748,3.704,3.735,3.8908,3.8908,3.9315,4.007,4.0054,3.9681,3.9005,3.9715,3.9276,3.8024,3.9462,3.9681,3.9089,3.9783,4.007,4.007,4.007,4.007,4.007,4.007,4.007,4.007,4.007,4.007,4.007,4.007,4.007,4.007,4.007,4.007,4.007,4.007,4.007,4.007,4.007,4.007,4.007,4.007,4.007,4.007,4.007,4.007,4.007,4.007,4.007,4.007,4.007,4.007,4.007,4.007,4.007,4.007,4.007,4.007,4.007,4.007,4.007,4.007,4.007,4.007,3.9782,3.8978,3.8262,3.8189,3.8854,3.8908,3.9315,4.007,3.8596,3.8142,3.877,3.7866,3.7389,3.7419,3.8063,3.8706,0.0,0.0,3.3066,3.1315,0.0,0.0,0.0,0.0,0.0,0.0,0.0,0.0,0.0,0.0,0.0,0.0,0.0,0.0,0.0,0.0,0.0,0.0,0.0,0.0,0.0,0.0,0.0,0.0,0.0,0.0,0.0,3.8398,3.8003,3.7822,3.7515,3.7905,3.8908,3.8908,3.9315,4.007,4.007,3.9952,3.9715,3.9969,3.9817,3.9377,3.9868,3.9935,3.9732,3.9969,4.007,4.007,4.007,4.007,4.007,4.007,4.007,4.007,4.007,4.007,4.007,4.007,4.007,4.007,4.007,4.007,4.007,4.007,4.007,4.007,4.007,4.007,4.007,4.007,4.007,4.007,4.007,4.007,4.007,4.007,4.007,4.007,4.007,4.007,4.007,4.007,4.007,4.007,4.007,4.007,4.007,4.007,4.007,4.007,4.007,4.007,3.9782,3.8962,3.9156,3.8995,3.8189,3.9156,3.9558,3.9315,3.9221,3.9072,3.8802,3.8849,3.8584,3.8078,3.8751,3.896,3.3608,3.3799,0.0,0.0,3.2007,0.0,0.0,0.0,0.0,0.0,0.0,0.0,0.0,0.0,0.0,0.0,0.0,0.0,0.0,0.0,0.0,0.0,0.0,0.0,0.0,0.0,0.0,0.0,0.0,0.0,0.0,0.0,3.8799,3.8596,3.8318,3.8541,3.9315,3.9315,3.961,4.007,4.007,4.007,4.007,4.007,4.007,4.007,4.007,4.007,4.007,4.007,4.007,4.007,4.007,4.007,4.007,4.007,4.007,4.007,4.007,4.007,4.007,4.007,4.007,4.007,4.007,4.007,4.007,4.007,4.007,4.007,4.007,4.007,4.007,4.007,4.007,4.007,4.007,4.007,4.007,4.007,4.0237,4.0336,4.0121,4.0336,4.0417,4.0121,4.007,4.007,4.007,4.007,4.007,4.007,4.007,4.007,4.007,3.9799,3.9401,3.8908,3.9156,3.8941,3.8189,3.8887,3.9156,3.8908,3.904,3.8942,3.876,3.9009,3.9039,3.8766,3.9215,3.9185]},{"header":{"parameterUnit":"m.s-1","parameterCategory":1,"la1":30.6,"la2":29.2853,"lo1":-89.7004,"lo2":-87.6739,"dx":0.0162,"dy":0.0183,"nx":112,"ny":82,"refTime":"2022-12-27T06:00:00:Z","depth":0,"parameterNumber":3,"parameterNumberName":"V-component_of_WINDS"},"data":[0.0,0.0,0.0,0.0,0.0,0.0,0.0,0.0,0.0,0.0,0.0,0.0,0.0,0.0,0.0,0.0,0.0,0.0,0.0,0.0,0.0,0.0,0.0,0.0,0.0,0.0,0.0,0.0,0.0,0.0,0.0,0.0,0.0,0.0,0.0,0.0,0.0,0.0,0.0,0.0,0.0,0.0,0.0,0.0,0.0,0.0,0.0,0.0,0.0,0.0,0.0,0.0,0.0,0.0,0.0,0.0,0.0,0.0,0.0,0.0,0.0,0.0,0.0,0.0,0.0,0.0,0.0,0.0,0.0,0.0,0.0,0.0,0.0,0.0,0.0,0.0,0.0,0.0,0.0,0.0,0.0,0.0,0.0,0.0,0.0,0.0,0.0,0.0,0.0,0.0,0.0,-0.1205,-0.7561,-1.2668,-1.5472,-1.6781,-1.7089,-1.6203,0.0,0.0,0.0,0.0,0.0,0.0,0.0,0.0,0.0,0.0,0.0,0.0,0.0,0.0,0.0,0.0,0.0,0.0,0.0,0.0,0.0,0.0,0.0,0.0,0.0,0.0,0.0,0.0,0.0,0.0,0.0,0.0,0.0,0.0,0.0,0.0,0.0,0.0,0.0,0.0,0.0,0.0,0.0,0.0,0.0,0.0,0.0,0.0,0.0,0.0,0.0,0.0,0.0,0.0,0.0,0.0,0.0,0.0,0.0,0.0,0.0,0.0,0.0,0.0,0.0,0.0,0.0,0.0,0.0,0.0,0.0,0.0,0.0,0.0,0.0,0.0,0.0,0.0,0.0,0.0,0.0,0.0,0.0,0.0,0.0,0.0,0.0,0.0,0.0,0.0,0.0,0.0,0.0,0.0,0.0,0.0,0.0,0.0,0.0,0.0,0.0,0.0,0.0,0.0,0.0111,-0.5421,-1.0739,-1.4504,-1.5974,-1.791,-1.8397,-1.6862,0.0,0.0,0.0,0.0,0.0,0.0,0.0,0.0,0.0,0.0,0.0,0.0,0.0,0.0,0.0,0.0,0.0,0.0,0.0,0.0,0.0,0.0,0.0,0.0,0.0,0.0,0.0,0.0,0.0,0.0,0.0,0.0,0.0,0.0,0.0,0.0,0.0,0.0,0.0,0.0,0.0,0.0,0.0,0.0,0.0,0.0,0.0,0.0,0.0,0.0,0.0,0.0,0.0,0.0,0.0,0.0,0.0,0.0,0.0,0.0,0.0,0.0,0.0,0.0,0.0,0.0,0.0,0.0,0.0,0.0,0.0,0.0,0.0,0.0,0.0,0.0,0.0,0.0,0.0,0.0,0.0,0.0,0.0,0.0,0.0,0.0,0.0,0.0,0.0,0.0,0.0,0.0,0.0,0.0,0.0,0.0,0.0,0.0,0.0,0.0,0.0,0.0,0.0,0.1673,-0.2457,-0.731,-1.1904,-1.5262,-1.6872,-1.8608,-1.8851,-1.7071,-1.5819,0.0,0.0,0.0,0.0,0.0,0.0,0.0,0.0,0.0,0.0,0.0,0.0,0.0,0.0,0.0,0.0,0.0,0.0,0.0,0.0,0.0,0.0,0.0,0.0,0.0,0.0,0.0,0.0,0.0,0.0,0.0,0.0,0.0,0.0,0.0,0.0,0.0,0.0,0.0,0.0,0.0,0.0,0.0,0.0,0.0,0.0,0.0,0.0,0.0,0.0,0.0,0.0,0.0,0.0,0.0,0.0,0.0,0.0,0.0,0.0,0.0,0.0,0.0,0.0,0.0,0.0,0.0,0.0,0.0,0.0,0.0,0.0,0.0,0.0,0.0,0.0,0.0,0.0,0.0,0.0,0.0,0.0,0.0,0.0,0.0,0.0,0.0,0.0,0.0,0.0,0.0,0.0,0.0,0.0,0.0,0.0,0.0,0.0,0.0,0.0,0.0,0.0,-0.0236,-0.4147,-0.8444,-1.2661,-1.5902,-1.7683,-1.9131,-1.9128,-1.7254,-1.579,0.0,0.0,0.0,0.0,0.0,0.0,0.0,0.0,0.0,0.0,0.0,0.0,0.0,0.0,0.0,0.0,0.0,0.0,0.0,0.0,0.0,0.0,0.0,0.0,0.0,0.0,0.0,0.0,0.0,0.0,0.0,0.0,0.0,0.0,0.0,0.0,0.0,0.0,0.0,0.0,0.0,0.0,0.0,0.0,0.0,0.0,0.0,0.0,0.0,0.0,0.0,0.0,0.0,0.0,0.0,0.0,0.0,0.0,0.0,0.0,0.0,0.0,0.0,0.0,0.0,0.0,0.0,0.0,0.0,0.0,0.0,0.0,0.0,0.0,0.0,0.0,0.0,0.0,0.0,0.0,0.0,0.0,0.0,0.0,0.0,0.0,0.0,0.0,0.0,0.0,0.0,0.0,0.0,0.0,0.0,0.0,0.0,0.0,0.0,0.0,0.0,0.0,-0.0552,-0.4052,-0.9501,-1.3802,-1.681,-1.8149,-1.9486,-1.9479,-1.7657,-1.5706,0.0,0.0,0.0,0.0,0.0,0.0,0.0,0.0,0.0,0.0,0.0,0.0,0.0,0.0,0.0,0.0,0.0,0.0,0.0,0.0,0.0,0.0,0.0,0.0,0.0,0.0,0.0,0.0,0.0,0.0,0.0,0.0,0.0,0.0,0.0,0.0,0.0,0.0,0.0,0.0,0.0,0.0,0.0,0.0,0.0,0.0,0.0,0.0,0.0,0.0,0.0,0.0,0.0,0.0,0.0,0.0,0.0,0.0,0.0,0.0,0.0,0.0,0.0,0.0,0.0,0.0,0.0,0.0,0.0,0.0,0.0,0.0,0.0,0.0,0.0,0.0,0.0,0.0,0.0,0.0,0.0,0.0,0.0,0.0,0.0,0.0,0.0,0.0,0.0,0.0,0.0,0.0,0.0,0.0,0.0,0.0,0.0,0.0,0.0,0.0,0.0,0.0,-0.1131,-0.4961,0.0,-1.4579,-1.7356,-1.9087,-1.9935,-1.9373,-1.7063,0.0,0.0,0.0,0.0,0.0,0.0,0.0,0.0,0.0,0.0,0.0,0.0,0.0,0.0,0.0,0.0,0.0,0.0,0.0,0.0,0.0,0.0,0.0,0.0,0.0,0.0,0.0,0.0,0.0,0.0,0.0,0.0,0.0,0.0,0.0,0.0,0.0,0.0,0.0,0.0,0.0,0.0,0.0,0.0,0.0,0.0,0.0,0.0,0.0,0.0,0.0,0.0,0.0,0.0,0.0,0.0,0.0,0.0,0.0,0.0,0.0,0.0,0.0,0.0,0.0,0.0,0.0,0.0,0.0,0.0,0.0,0.0,0.0,0.0,0.0,0.0,0.0,0.0,0.0,0.0,0.0,0.0,0.0,0.0,0.0,0.0,0.0,0.0,0.0,0.0,0.0,0.0,0.0,0.0,0.0,0.0,0.0,0.0,0.0,0.0,0.0,0.0,0.2211,-0.1109,-0.5322,0.0,-1.5192,-1.8064,-1.9744,-2.0192,-1.9264,-1.6662,0.0,0.0,0.0,0.0,0.0,0.0,0.0,0.0,0.0,0.0,0.0,0.0,0.0,0.0,0.0,0.0,0.0,0.0,0.0,0.0,0.0,0.0,0.0,0.0,0.0,0.0,0.0,0.0,0.0,0.0,0.0,0.0,0.0,0.0,0.0,0.0,0.0,0.0,0.0,0.0,0.0,0.0,0.0,0.0,0.0,0.0,0.0,0.0,0.0,0.0,0.0,0.0,0.0,0.0,0.0,0.0,0.0,0.0,0.0,0.0,0.0,0.0,0.0,0.0,0.0,0.0,0.0,0.0,0.0,0.0,0.0,0.0,0.0,0.0,0.0,0.0,0.0,0.0,0.0,0.0,0.0,0.0,0.0,0.0,0.0,0.0,0.0,0.0,0.0,0.0,0.0,0.0,0.0,0.0,0.0,0.0,0.0,0.0,0.0,0.0,0.0,0.0,0.3553,-0.038,-0.4933,-1.0739,-1.5707,-1.9016,-2.0024,-2.0221,-1.9205,0.0,0.0,0.0,0.0,0.0,0.0,0.0,0.0,0.0,0.0,0.0,0.0,0.0,0.0,0.0,0.0,0.0,0.0,0.0,0.0,0.0,0.0,0.0,0.0,0.0,0.0,0.0,0.0,0.0,0.0,0.0,0.0,0.0,0.0,0.0,0.0,0.0,0.0,0.0,0.0,0.0,0.0,0.0,0.0,0.0,0.0,0.0,0.0,0.0,0.0,0.0,0.0,0.0,0.0,0.0,0.0,0.0,0.0,0.0,0.0,0.0,0.0,0.0,0.0,0.0,0.0,0.0,0.0,0.0,0.0,0.0,0.0,0.0,0.0,0.0,0.0,0.0,0.0,0.0,0.0,0.0,0.0,0.0,0.0,0.0,0.0,0.0,0.0,0.0,0.0,0.0,0.0,0.0,0.0,0.0,0.0,0.0,0.0,0.0,0.0,0.0,0.0,0.0,0.3641,-0.0346,-0.5787,-1.3895,-1.7226,-1.9277,-2.0234,-2.0391,-1.9065,-1.5858,0.0,0.0,0.0,0.0,0.0,0.0,0.0,0.0,0.0,0.0,0.0,0.0,0.0,0.0,0.0,0.0,0.0,0.0,0.0,0.0,0.0,0.0,0.0,0.0,0.0,0.0,0.0,0.0,0.0,0.0,0.0,0.0,0.0,0.0,0.0,0.0,0.0,0.0,0.0,0.0,0.0,0.0,0.0,0.0,0.0,0.0,0.0,0.0,0.0,0.0,0.0,0.0,0.0,0.0,0.0,0.0,0.0,0.0,0.0,0.0,0.0,0.0,0.0,0.0,0.0,0.0,0.0,0.0,0.0,0.0,0.0,0.0,0.0,0.0,0.0,0.0,0.0,0.0,0.0,0.0,0.0,0.0,0.0,0.0,0.0,0.0,0.0,0.0,0.0,0.0,0.0,0.0,0.0,0.0,0.0,0.0,0.0,0.0,0.0,0.0,0.0,0.0,0.5809,0.1218,-0.4325,-1.1379,-1.6115,-1.9179,-2.0199,-2.0318,-1.9174,-1.6464,0.0,0.0,0.0,0.0,0.0,0.0,0.0,0.0,0.0,0.0,0.0,0.0,0.0,0.0,0.0,0.0,0.0,0.0,0.0,0.0,0.0,0.0,0.0,0.0,0.0,0.0,0.0,0.0,0.0,0.0,0.0,0.0,0.0,0.0,0.0,0.0,0.0,0.0,0.0,0.0,0.0,0.0,0.0,0.0,0.0,0.0,0.0,0.0,0.0,0.0,0.0,0.0,0.0,0.0,0.0,0.0,0.0,0.0,0.0,0.0,0.0,0.0,0.0,0.0,0.0,0.0,0.0,0.0,0.0,0.0,0.0,0.0,0.0,0.0,0.0,0.0,0.0,0.0,0.0,0.0,0.0,0.0,0.0,0.0,0.0,0.0,0.0,0.0,0.0,0.0,0.0,0.0,0.0,0.0,0.0,0.0,0.0,0.0,0.0,0.0,0.0,0.0,0.9614,0.4098,-0.1193,-0.5462,-1.3453,-1.8859,-1.9862,-2.0011,-1.9419,-1.7881,0.0,0.0,0.0,0.0,0.0,0.0,0.0,0.0,0.0,0.0,0.0,0.0,0.0,0.0,0.0,0.0,0.0,0.0,0.0,0.0,0.0,0.0,0.0,0.0,0.0,0.0,0.0,0.0,0.0,0.0,0.0,0.0,0.0,0.0,0.0,0.0,0.0,0.0,0.0,0.0,0.0,0.0,0.0,0.0,0.0,0.0,0.0,0.0,0.0,0.0,0.0,0.0,0.0,0.0,0.0,0.0,0.0,0.0,0.0,0.0,-0.514,0.0,0.0,0.0,0.0,0.0,0.0,0.0,0.0,0.0,0.0,0.0,0.0,0.0,0.0,0.0,0.0,0.0,0.0,0.0,0.0,0.0,0.0,0.0,0.0,0.0,0.0,0.0,0.0,0.0,0.0,0.0,0.0,0.0,0.0,0.0,0.0,0.0,0.0,0.0,0.0,0.0,1.4212,0.8087,0.1357,-0.4722,-1.3564,-1.8957,-1.8705,-1.9357,-1.9165,-1.7727,0.0,0.0,0.0,0.0,0.0,0.0,0.0,0.0,0.0,0.0,0.0,0.0,0.0,0.0,0.0,0.0,0.0,0.0,0.0,0.0,0.0,0.0,0.0,0.0,0.0,0.0,0.0,0.0,0.0,0.0,0.0,0.0,0.0,0.0,0.0,0.0,0.0,0.0,0.0,0.0,0.0,0.0,0.0,0.0,0.0,0.0,0.0,0.0,0.0,0.0,0.0,0.0,0.0,0.0,0.0,0.0,0.0,0.0,0.0,0.0,0.0,-0.4225,0.0,0.0,0.0,0.0,0.0,0.0,0.0,0.0,0.0,0.0,0.0,0.0,0.0,0.0,0.0,0.0,0.0,0.0,0.0,0.0,0.0,0.0,0.0,0.0,0.0,0.0,0.0,0.0,0.0,0.0,0.0,0.0,0.0,0.0,0.0,0.0,0.0,0.0,0.0,0.0,1.4925,1.0325,0.4578,-0.1791,-0.9851,-1.5599,-1.7646,-1.8886,-1.9345,-1.8831,-1.8176,0.0,0.0,0.0,0.0,0.0,0.0,0.0,0.0,0.0,0.0,0.0,0.0,0.0,0.0,0.0,0.0,0.0,0.0,0.0,0.0,0.0,0.0,0.0,0.0,0.0,0.0,0.0,0.0,0.0,0.0,0.0,0.0,0.0,0.0,0.0,0.0,0.0,0.0,0.0,0.0,0.0,0.0,0.0,0.0,0.0,0.0,0.0,0.0,0.0,0.0,0.0,0.0,0.0,0.0663,0.0245,0.0251,0.0063,-0.0438,-0.1187,-0.1624,-0.2516,-0.3682,0.0,0.0,0.0,0.0,0.0,0.0,0.0,0.0,0.0,0.0,0.0,0.0,0.0,0.0,0.0,0.0,0.0,0.0,0.0,0.0,0.0,0.0,0.0,0.0,0.0,1.2107,1.1083,0.0,0.0,0.0,0.0,0.0,0.0,0.0,0.0,0.0,0.0,0.0,0.0,1.4604,1.239,0.8506,0.2374,-0.4791,-1.1309,-1.6673,-1.8372,-1.9376,-1.995,-1.888,-1.8067,0.0,0.0,0.0,0.0,0.0,0.0,0.0,0.0,0.0,0.0,0.0,0.0,0.0,0.0,0.0,0.0,0.0,0.0,0.0,0.0,0.0,0.0,0.0,0.0,0.0,0.0,0.0,0.0,0.0,0.0,0.0,0.0,0.4172,0.416,0.0,0.0,0.0,0.0,0.0,0.0,0.0,0.0,0.0,0.0,0.0,0.0,0.0,0.0,0.2661,0.2591,0.2492,0.2502,0.1581,0.1123,0.1128,0.0333,-0.0466,-0.126,-0.0599,0.0,-0.2403,-0.2388,0.0,0.0,0.0,0.0,0.0,0.0,0.0,0.0,0.0,0.0,0.0,0.0,0.0,0.0,0.0,0.0,0.0,0.0,0.0,0.0,0.0,0.0,1.656,1.5964,1.5722,1.5615,0.0,1.3969,1.3312,1.5514,0.0,0.0,0.0,0.0,0.0,0.0,0.0,0.0,1.6252,1.6271,1.3789,0.7257,-0.0818,-0.8643,-1.5805,-1.7458,-1.852,-1.9523,-1.9826,-1.9289,-1.7757,-1.7271,0.0,0.0,0.0,0.0,0.0,0.0,0.0,0.0,0.0,0.0,0.0,0.0,0.0,0.0,0.0,0.0,0.0,0.0,0.0,0.0,0.0,0.0,0.0,0.0,0.0,0.0,0.0,0.0,0.0,0.7219,0.6942,0.6347,0.6083,0.5938,0.0,0.0,0.0,0.0,0.0,0.0,0.0,0.0,0.0,0.6041,0.5902,0.5811,0.5796,0.4903,0.4333,0.4135,0.2741,0.2075,0.2076,0.1676,0.134,0.0936,0.1341,0.1123,0.0513,-0.0123,0.0357,0.1455,0.0,0.0,0.0,0.0,0.0,0.658,0.6914,0.7391,0.0,0.0,0.0,0.0,0.0,0.0,0.0,0.0,0.0,0.0,0.0,0.0,0.0,1.8679,1.8666,1.8734,1.9216,1.8956,1.85,0.0,1.8192,1.801,1.7067,0.0,0.0,0.0,0.0,0.0,1.7001,1.7045,1.4733,0.8643,0.2994,-0.3291,-1.0685,-1.4765,-1.7438,-1.8574,-1.9514,-1.9846,-1.9457,-1.8739,-1.7523,0.0,0.0,0.0,0.0,0.0,0.0,0.0,0.0,0.0,0.0,0.0,0.0,0.0,0.0,0.0,0.0,0.0,0.0,0.0,0.0,0.0,0.0,0.0,0.0,0.0,0.0,0.0,0.0,0.942,0.9548,0.8604,0.8657,0.8561,0.0,0.0,0.0,0.0,0.0,0.0,0.8697,0.8394,0.8404,0.8839,0.8452,0.832,0.8452,0.6986,0.6129,0.5982,0.4361,0.364,0.3664,0.3374,0.3232,0.323,0.3142,0.3264,0.3383,0.2186,0.2239,0.3123,0.3816,0.4569,0.537,0.6717,0.7575,0.8126,0.8812,0.9475,0.9933,0.9552,0.0,1.309,1.2761,0.0,0.0,0.0,0.0,1.8796,1.9894,2.0147,2.0326,2.1107,2.1182,2.1292,2.2115,2.2495,2.2329,0.0,2.0445,1.9859,1.9117,0.0,0.0,0.0,0.0,1.7804,1.7863,1.74,1.5416,1.1101,0.6873,0.181,-0.4424,-1.053,-1.4626,-1.5981,-1.8395,-1.9976,-2.0414,-1.9811,-1.923,-1.8762,0.0,0.0,0.0,0.0,0.0,0.0,0.0,0.0,0.0,0.0,0.0,0.0,0.0,0.0,0.0,0.0,0.0,0.0,0.0,0.0,0.0,0.0,0.0,0.0,0.0,0.0,0.0,0.0,0.0,1.0751,1.0827,0.0,0.0,0.0,0.0,1.0808,1.0808,1.112,1.1799,1.0486,1.0147,1.1078,0.8906,0.8169,0.9116,0.7991,0.757,0.7827,0.6633,0.6185,0.6339,0.5198,0.469,0.4681,0.4433,0.4807,0.5423,0.3961,0.3837,0.4713,0.5894,0.677,0.7711,0.9771,1.0561,1.0835,1.2218,1.2785,1.2736,1.2182,1.4602,1.7652,1.7666,1.7619,0.0,0.0,2.0316,2.0979,2.2066,2.2692,2.3096,2.3138,2.3169,2.3407,2.4403,2.3073,2.2399,0.0,2.4792,2.4208,2.3668,0.0,2.0633,2.0087,1.9179,1.8746,1.9314,1.8324,1.7332,1.6713,1.0813,0.5503,0.1997,-0.4327,-0.8896,-1.077,-1.6435,-1.963,-1.9482,-2.0272,-2.0135,-1.8917,-1.626,0.0,0.0,0.0,0.0,0.0,0.0,0.0,0.0,0.0,0.0,0.0,0.0,0.0,0.0,0.0,0.0,0.0,0.0,0.0,0.0,0.0,0.0,0.0,0.0,0.0,0.0,0.0,0.0,1.2257,1.2241,0.0,0.0,1.234,1.2406,1.2702,1.29,1.2787,1.2291,1.2216,1.2069,1.1823,1.0989,1.0842,1.1534,1.054,1.0161,1.0385,0.9375,0.8931,0.9012,0.8589,0.8414,0.8397,0.8044,0.8078,0.8306,0.7857,0.7337,0.682,0.7609,0.8325,0.9183,1.0872,1.1789,1.2372,1.3327,1.4368,1.5292,1.5959,1.7816,1.9946,2.1101,2.1671,2.2109,2.3111,2.3504,2.3763,2.4148,2.4554,2.4891,2.4896,2.5331,2.5703,2.5552,2.5243,2.5222,2.5971,2.4541,2.3264,2.3365,2.3053,2.2204,2.046,2.0273,2.0119,1.95,1.8956,1.8029,1.6428,1.4892,1.1646,0.5889,0.2472,-0.1964,-0.7952,-1.1463,-1.4734,-1.7848,-2.0753,-2.1376,-1.9444,-1.5734,-1.1734,0.0,0.0,0.0,0.0,0.0,0.0,0.0,0.0,0.0,0.0,0.0,0.0,0.0,0.0,0.0,0.0,0.0,0.0,0.0,0.0,0.0,0.0,0.0,0.0,0.0,0.0,1.4067,1.3811,1.4227,1.4581,1.4666,1.4372,1.4412,1.4949,1.4965,1.461,1.3941,1.4101,1.3961,1.3459,1.3059,1.3145,1.3717,1.3008,1.2677,1.2852,1.2218,1.1918,1.2019,1.191,1.1856,1.184,1.1499,1.1233,1.111,1.1577,1.1275,1.0483,1.0358,1.0751,1.1489,1.3057,1.3914,1.4478,1.5329,1.6609,1.8072,1.9396,2.1134,2.292,2.4277,2.4792,2.4997,2.5443,2.5696,2.5864,2.5848,2.6235,2.6608,2.6591,2.712,2.7501,2.7084,2.6904,2.6859,2.6814,2.497,2.3581,2.4124,2.4006,2.3212,2.1385,2.1172,2.0821,1.9676,1.9347,1.8616,1.7109,1.7299,1.5421,1.0253,0.8318,0.4209,-0.3239,-0.4046,-0.5944,-0.98,-1.3774,-1.5273,-1.3953,-0.912,-0.504,-0.1813,0.0,0.0,0.0,0.0,0.0,0.0,0.0,0.0,0.0,0.0,0.0,0.0,0.0,0.0,0.0,0.0,0.0,0.0,0.0,0.0,0.0,0.0,0.0,1.3061,1.4936,1.6234,1.5476,1.669,1.7633,1.7633,1.6978,1.681,1.7578,1.6978,1.6607,1.6799,1.6063,1.5733,1.593,1.4981,1.4869,1.5666,1.5182,1.5044,1.5338,1.5054,1.5074,1.5375,1.5044,1.4909,1.4934,1.4609,1.4175,1.3751,1.4942,1.5486,1.5508,1.4247,1.413,1.4855,1.6501,1.7115,1.7288,1.8365,1.9659,2.1043,2.2336,2.4472,2.6644,2.7105,2.6843,2.6337,2.6358,2.6739,2.7146,2.7111,2.768,2.8223,2.8223,2.8433,2.8746,2.9061,2.7939,2.7013,2.7505,2.6441,2.5653,2.6265,2.502,2.3709,2.3022,2.1927,0.0,1.9972,1.9524,1.9274,1.9213,1.7947,1.6507,1.5093,1.3028,0.9342,0.3574,0.5515,0.6174,0.4622,0.0789,-0.1607,-0.2224,0.3524,0.7826,1.0532,0.0,0.0,0.0,0.0,0.0,0.0,0.0,0.0,0.0,0.0,0.0,0.0,0.0,0.0,0.0,0.0,0.0,0.0,0.0,0.0,0.0,0.0,1.659,1.6245,1.6871,1.7235,1.6991,1.7346,1.7797,1.834,1.7743,1.7578,1.8328,1.8232,1.7585,1.6423,1.7015,1.6691,1.5124,1.5986,1.6573,1.6673,1.7388,1.8148,1.8892,1.7985,1.8239,1.9443,1.8147,1.8019,1.8759,1.7956,1.7543,1.7436,1.784,1.826,1.8565,1.731,1.7186,1.7907,1.9022,2.004,2.0904,2.1738,2.2555,2.3391,2.4224,2.5987,2.7784,2.8172,2.7899,2.7502,2.7643,2.777,2.7892,2.7906,2.8443,2.8914,2.8616,2.9046,2.9587,2.978,2.9075,2.829,2.7898,2.7019,2.6215,2.5827,2.5195,2.4505,2.3734,2.3186,0.0,2.1531,2.1295,2.0735,1.9398,1.9077,1.8298,1.6709,1.609,1.4183,0.0,1.0136,1.0276,1.066,0.8354,0.669,0.589,0.9491,1.2711,0.0,0.0,0.0,0.0,0.0,0.0,0.0,0.0,0.0,0.0,0.0,0.0,0.0,0.0,0.0,0.0,0.0,0.0,0.0,0.0,0.0,0.0,1.7381,1.8346,1.8855,1.8424,1.8058,1.8058,1.834,1.8809,1.949,1.8891,1.8794,1.9497,1.9309,1.866,1.7668,1.833,1.8013,1.6456,1.8078,1.8868,1.8636,2.0043,2.1097,2.1792,2.1162,2.1387,2.2463,2.1485,2.1377,0.0,2.1425,2.1068,2.0912,2.1465,2.1744,0.0,0.0,0.0,0.0,0.0,2.2697,2.3615,2.4044,2.4708,2.5526,2.6168,2.7304,2.8515,2.8992,2.8907,2.8737,2.8833,2.89,2.891,2.8919,2.9308,2.9665,2.9434,2.9786,3.0201,3.0285,2.9694,2.8992,2.858,0.0,0.0,2.664,2.5994,2.5304,2.4523,2.4397,2.407,0.0,2.2702,2.2147,2.1235,2.0737,2.0007,1.8872,1.9201,0.0,0.0,0.0,1.7493,1.7273,1.6291,0.0,0.0,0.0,0.0,0.0,0.0,0.0,0.0,2.027,2.0578,0.0,0.0,0.0,0.0,0.0,0.0,0.0,0.0,0.0,0.0,0.0,0.0,0.0,0.0,0.0,0.0,1.922,2.0168,2.0904,1.9927,1.9101,1.9061,1.9619,2.0245,2.0832,2.0294,2.0184,2.0822,2.0253,1.9822,1.9692,0.0,0.0,0.0,0.0,2.1503,2.1138,2.2802,2.384,2.4233,2.4116,2.4309,2.4794,2.4636,2.46,2.4705,2.4689,2.4385,2.397,2.5139,2.5346,2.4827,2.3306,2.3064,2.3715,2.4554,2.5254,0.0,0.0,0.0,0.0,2.798,2.8503,2.9021,2.9586,2.9792,2.9832,2.9848,2.9895,2.9938,2.9959,3.0135,3.0338,3.0341,3.0477,3.0594,3.0594,2.9988,2.9451,2.9451,2.8774,2.8165,2.812,2.711,2.6101,2.5444,2.5601,2.5522,2.4762,2.4037,2.3647,2.3837,0.0,0.0,2.1379,2.2186,2.2926,2.3418,2.5311,2.5544,2.3633,2.3673,2.3146,2.1894,2.2932,2.3796,2.4409,2.5926,2.6216,2.5328,2.1932,2.1344,0.0,0.0,0.0,0.0,0.0,0.0,0.0,0.0,0.0,0.0,0.0,0.0,0.0,0.0,0.0,1.959,2.0561,2.1513,2.2112,2.1945,2.1586,2.1191,2.1266,2.1363,2.152,2.1411,2.1327,2.1278,2.1163,2.0798,2.0127,2.1069,0.0,2.0678,2.2911,2.4021,2.3775,2.5071,2.5965,2.6483,0.0,0.0,2.7165,2.5995,2.5864,2.6578,2.6341,2.6078,2.5816,2.6497,2.7245,2.7879,2.6784,2.6845,2.7536,2.7731,2.7871,2.7976,2.7976,2.8294,2.875,2.8988,2.9302,2.9668,3.0068,3.0042,0.0,3.0142,3.0216,3.0221,3.0222,3.0389,3.0536,3.0543,3.0563,3.0599,3.0599,3.0466,3.0351,3.0351,2.9482,2.8742,2.8741,2.7812,2.702,2.6816,2.658,2.6362,2.6197,2.6036,2.563,2.4827,2.4242,2.3992,2.4127,2.4396,2.5071,2.6228,2.7151,2.7479,2.7045,2.7069,2.6933,2.667,2.732,2.7422,2.6999,2.7788,2.7433,2.6018,2.5314,2.5242,0.0,0.0,0.0,0.0,0.0,0.0,0.0,0.0,0.0,0.0,0.0,1.7615,0.0,0.0,2.0625,2.1181,2.2033,2.2789,2.327,2.364,2.3513,2.2627,2.2493,2.2627,2.2922,2.2966,2.2742,2.2279,2.2801,2.2717,2.1805,2.2883,2.3404,2.3065,2.4836,2.5691,2.5493,2.6452,2.724,2.7882,2.705,2.7368,2.8682,2.7767,2.7755,2.8397,2.8197,2.8088,2.8057,2.8279,2.8783,2.9393,2.8929,2.8914,2.9152,2.9152,2.9175,2.9195,2.9195,2.9338,2.9532,2.9735,2.9908,3.0098,3.0366,3.0385,3.0327,3.0425,3.0462,3.0497,3.0462,3.052,3.0594,3.0609,3.0594,3.0606,3.0606,3.0494,3.0402,3.0402,2.979,2.9294,2.9294,2.8771,2.8194,2.7733,2.7746,2.7805,2.7805,2.7309,2.6822,2.6439,2.5589,2.5231,2.5713,2.634,2.7013,2.7808,2.8545,2.8762,2.8328,2.8338,2.8158,2.7704,2.8352,2.8295,2.7489,2.824,2.7958,2.6715,2.7033,2.6862,0.0,0.0,0.0,0.0,0.0,0.0,0.0,0.0,1.5977,1.7521,1.8571,1.9699,2.1274,2.1739,2.2235,2.3098,2.3872,2.4508,2.4823,2.5378,2.5335,2.4264,2.3784,2.3892,2.4688,2.454,2.4236,2.38,2.4429,2.4521,2.3857,2.4696,2.5288,2.5427,2.6461,2.7007,2.6988,2.7604,2.8264,2.8893,2.8462,2.8708,2.9538,2.9252,2.9342,2.9699,2.9604,2.9642,2.9817,2.9702,2.9814,3.0072,3.0148,3.0059,2.9863,2.9863,2.9909,2.9966,2.9966,2.9994,3.0075,3.0292,3.0365,3.0439,3.0828,3.0849,3.0788,3.1035,3.1044,3.1015,3.108,3.1084,3.1054,3.0994,3.0979,3.0956,3.0892,3.0709,3.0567,3.0567,3.033,3.0057,2.9888,2.9698,2.9275,2.8479,2.8713,2.8994,2.8994,2.8208,2.7742,2.8003,2.6977,2.6507,2.7096,2.8016,2.8644,2.8798,2.9467,2.9551,2.8836,2.8645,2.8249,2.7612,2.8188,2.8112,2.733,2.8225,2.8236,2.7438,2.7985,2.7624,-2.1761,0.0,0.0,-0.0339,0.4955,0.9306,0.0,0.0,1.8101,1.9778,2.1601,2.3122,2.3727,2.4833,2.5758,2.5878,2.683,2.7481,2.7236,2.7521,2.76,2.7099,2.5562,2.5151,2.6688,2.5796,2.5376,2.6068,2.5404,2.519,2.5661,2.5805,2.6227,2.6931,2.7502,2.8084,2.8708,2.9214,2.9494,2.9585,2.9529,2.9555,2.9679,2.964,2.9646,2.9697,2.9665,2.9766,2.9886,2.9873,2.99,2.9956,3.0386,3.0536,3.0508,3.0508,3.0496,3.0503,3.0503,3.0529,3.0535,3.0564,3.0569,3.0762,3.1873,3.1581,3.1164,3.2536,3.2485,3.2171,3.2753,3.2812,3.2677,3.242,3.2338,3.2218,3.1988,3.1919,3.1901,3.1901,3.1709,3.1334,3.0607,3.028,2.9927,2.9353,2.9104,2.8994,2.8994,2.8879,2.8824,2.8847,2.8709,2.875,2.9052,2.9364,2.9544,2.958,2.967,2.9687,2.9576,2.8557,2.8071,2.8275,2.8206,2.79,2.7398,2.8396,2.864,2.8182,2.8602,2.8478,-2.2887,0.0,0.0,0.0,0.8108,1.2529,1.6443,1.8958,2.0983,2.2956,2.4554,2.5762,2.6349,2.7137,2.7801,0.0,2.8147,2.8186,2.8434,2.9024,2.8841,2.7241,2.7592,2.7876,2.7619,2.7495,2.7761,2.8652,2.7431,2.6417,2.58,2.7289,2.8308,2.8646,2.8844,2.9103,2.9404,2.9334,3.0117,3.1755,3.2838,3.2986,3.2213,3.0981,3.0408,3.0397,3.0282,3.0217,3.0282,3.1368,3.1286,3.0585,3.1694,3.216,3.2107,3.0997,3.0598,3.0609,3.0609,3.1053,3.1768,3.2422,3.2404,3.2205,3.2717,3.2578,3.2361,3.2923,3.289,3.2682,3.2782,3.2743,3.2637,3.2368,3.2289,3.2166,3.1836,3.1644,3.1446,3.1164,3.0953,3.0704,3.0369,3.0224,3.006,2.9836,2.9357,2.8994,2.8994,2.8815,2.8583,2.8378,2.8378,2.8412,2.8529,2.8597,2.8651,2.8651,2.9047,2.9302,2.9302,2.921,2.9256,2.9384,2.9321,2.9169,2.8961,2.9396,2.9513,2.9343,3.0004,3.0184,-1.7851,0.0,0.0,0.729,1.2146,1.6104,1.9887,2.2052,2.3837,2.5784,2.6814,2.7598,2.8374,2.9089,0.0,2.9717,2.9655,2.9768,3.0249,3.1038,3.0833,2.8767,3.0466,3.1331,3.0176,3.0487,3.0846,3.1004,3.0032,2.8913,2.7685,2.9333,3.0501,3.0907,3.0791,3.0723,3.0723,3.0859,3.1695,3.3225,3.5042,3.5431,3.4462,3.2458,3.1797,3.2229,3.2068,3.1951,3.1955,3.3294,3.317,3.2273,3.3394,3.3881,3.3815,3.2441,3.1406,3.0687,3.0687,3.1815,3.3394,3.4218,3.4097,3.3613,3.3652,3.3634,3.3595,3.3513,3.3426,3.3337,3.317,3.3101,3.3029,3.2748,3.2587,3.2443,3.2196,3.1785,3.1419,3.1214,3.095,3.067,3.0459,3.0423,3.0353,3.0141,2.9663,2.9305,2.9305,2.9061,2.8772,2.8534,2.8505,2.8505,2.8505,2.8505,2.8505,2.8505,2.9018,2.9289,2.9289,2.9712,2.998,3.0106,3.0112,3.0152,3.0232,3.0361,3.0466,3.0598,3.1059,3.1338,0.0,0.0,0.6296,1.3678,1.7357,1.9872,2.276,2.4769,2.6487,2.7919,2.8137,2.8379,2.9368,3.0839,3.1536,3.0458,3.1992,3.3329,3.3347,3.4076,3.4202,3.3204,3.4545,3.5522,0.0,3.5363,3.4623,3.294,3.314,3.3149,3.2696,3.2201,3.2563,3.3926,3.3537,3.3284,3.3284,3.495,3.491,3.3222,3.4903,3.5683,3.5584,3.391,3.4017,3.5541,3.5541,3.5541,3.5535,3.5457,3.5392,3.5373,3.5412,3.5431,3.5431,3.5366,3.3466,3.0886,3.0886,3.2869,3.5412,3.545,3.5088,3.468,3.4795,3.4757,3.4659,3.4659,3.4507,3.4392,3.4581,3.4619,3.4557,3.4236,3.3852,3.3576,3.3705,3.3046,3.2577,3.3033,3.2737,3.2166,3.1405,3.1264,3.0985,3.0229,3.007,3.0066,3.0066,3.0066,3.0035,3.0035,3.0035,3.0035,3.0035,3.0035,3.0035,3.0035,3.0053,3.007,3.007,2.9704,2.9689,3.0074,3.0108,3.0267,3.0612,3.0984,3.138,3.1756,3.1359,3.1414,0.0,0.0,1.5721,2.2422,2.4845,2.5895,2.6928,2.8125,2.9408,3.0695,3.1556,3.2128,3.2297,3.309,3.36,3.326,3.3479,3.3836,3.4226,3.4916,3.5262,3.493,3.5342,0.0,0.0,0.0,0.0,3.4789,3.5001,3.5098,3.4968,3.4647,3.4679,3.5156,3.5011,3.4923,3.4923,3.5508,3.5464,3.4804,3.5408,3.5685,3.5605,3.5048,3.5081,3.5567,3.5567,3.557,3.5562,3.5523,3.5505,3.5496,3.5496,3.527,3.5012,3.5372,3.4846,3.3953,3.3953,3.4627,3.543,3.5084,3.4894,3.4811,3.4773,3.4737,3.4694,3.4694,3.4656,3.4499,3.4078,3.3981,3.3813,3.3205,3.2955,3.28,3.253,3.2247,3.2004,3.1878,3.1768,3.1534,3.1293,3.1242,3.1156,3.0879,3.0417,3.0011,2.9754,2.9689,2.9606,2.9369,2.9386,2.9386,2.9386,2.9386,2.9386,2.9386,2.9832,3.0106,3.0106,3.0441,3.0697,3.0844,3.0836,3.0896,3.0997,3.1133,3.1252,3.1389,3.1252,3.1252,0.0,1.9612,2.401,2.8791,3.0105,3.0228,3.0284,3.0863,3.1719,3.2703,3.3704,3.4384,3.4352,3.4762,3.5078,3.4995,3.5225,3.5335,3.5103,3.5809,3.6181,3.5747,3.5696,0.0,0.0,0.0,0.0,3.5764,3.5846,3.5914,3.5953,3.5795,3.5692,3.57,3.5696,3.5703,3.5703,3.5703,3.567,3.5593,3.5524,3.5505,3.5572,3.5572,3.5553,3.5504,3.5504,3.5454,3.5361,3.5361,3.5292,3.5207,3.528,3.5066,3.4774,3.485,3.4889,3.4944,3.5362,3.5503,3.538,3.4622,3.4584,3.4814,3.4717,3.4558,3.4394,3.4394,3.4265,3.4061,3.3588,3.3348,3.3087,3.2613,3.2384,3.2196,3.2057,3.1806,3.1528,3.1449,3.1291,3.119,3.119,3.119,3.119,3.119,3.0795,3.0387,3.0123,3.0123,3.0033,2.9807,2.977,2.977,2.977,2.977,2.977,2.977,3.0226,3.0497,3.0497,3.0954,3.119,3.119,3.119,3.119,3.119,3.119,3.119,3.119,3.119,3.119,3.1664,3.117,3.0734,3.2552,3.2921,3.2761,3.2638,3.2886,3.3287,3.3782,3.4436,3.5042,0.0,0.0,3.5896,3.5574,3.7027,3.767,3.6197,3.6807,3.7008,0.0,0.0,0.0,0.0,0.0,0.0,3.5899,0.0,3.5756,3.588,3.5761,3.5696,3.567,3.567,3.5689,3.5663,3.5663,3.5635,3.556,3.5243,3.5207,3.5446,3.5446,3.5446,3.5446,3.5446,3.5304,3.5088,3.5088,3.4926,3.4713,3.4826,3.4883,3.4768,3.4086,3.3821,3.3953,3.5032,3.5413,3.5243,3.4143,3.4199,3.4652,3.4652,3.4259,3.378,3.3762,3.3494,3.3172,3.3154,3.2809,3.2451,3.2451,3.2092,3.1897,3.235,3.1787,3.1329,3.1696,3.1449,3.1151,3.119,3.119,3.1151,3.1151,3.1151,3.1151,3.119,3.119,3.119,3.119,3.119,3.119,3.119,3.119,3.119,3.119,3.119,3.119,3.119,3.119,3.119,3.119,3.119,3.119,3.119,3.119,3.119,3.119,3.119,3.119,3.2688,3.2764,3.2827,3.3313,3.3156,3.2833,3.2712,3.3248,3.35,3.2497,3.3917,3.5403,0.0,0.0,0.0,3.5895,3.6281,0.0,3.9494,3.7829,0.0,0.0,0.0,3.5957,3.5891,3.5896,0.0,0.0,3.5714,3.5719,3.5755,3.5663,3.5543,3.5338,3.5461,3.5457,3.5244,3.5244,3.5234,3.5228,3.4944,3.4851,3.4908,3.4908,3.4908,3.4908,3.4908,3.487,3.4793,3.4793,3.4754,3.4694,3.4732,3.4607,3.4371,3.4278,3.4059,3.3839,3.4148,3.4221,3.418,3.3877,3.3894,3.4039,3.4039,3.3909,3.3717,3.3314,3.3135,3.2897,3.2317,3.2127,3.1949,3.16,3.1466,3.1389,3.1487,3.1368,3.123,3.1312,3.0902,3.0658,3.1112,3.0838,3.0518,3.0518,3.0518,3.0699,3.1151,3.119,3.119,3.119,3.119,3.119,3.119,3.119,3.119,3.119,3.119,3.119,3.119,3.119,3.119,3.119,3.119,3.119,3.119,3.119,3.119,3.119,3.119,3.119,3.3365,3.3487,3.3417,3.3204,3.2923,3.2705,3.2811,3.3154,3.3451,3.339,3.4494,0.0,0.0,0.0,0.0,0.0,0.0,0.0,3.8522,3.7554,3.6426,0.0,3.5825,0.0,3.5812,3.5684,3.5613,0.0,3.5655,3.5655,3.5655,3.559,3.5438,3.5162,3.5262,3.5207,3.4926,3.4774,3.4774,3.4926,3.4634,3.4551,3.4694,3.4694,3.4694,3.4694,0.0,3.4632,3.4486,3.4486,3.442,3.4302,3.4302,3.4189,3.3993,3.3902,3.3734,3.3541,3.3459,3.3455,3.3424,3.3285,3.3241,3.3229,3.323,3.316,3.2993,3.2679,3.2533,3.2354,3.1932,3.1694,3.1521,3.1269,3.119,3.119,3.119,3.119,3.1112,3.0838,3.0293,3.0038,3.0351,3.0123,2.9908,2.9908,2.9908,3.0038,3.0393,3.0435,3.0435,3.0435,3.0435,3.0518,3.0781,3.0559,3.0658,3.1151,3.0699,3.0518,3.0797,3.0797,3.0797,3.0797,3.1055,3.119,3.119,3.119,3.119,3.119,3.0918,3.0935,3.3581,3.3403,3.2887,3.2364,3.2098,3.1981,3.2133,3.2283,3.2696,3.39,0.0,0.0,3.3419,0.0,3.5345,3.5524,0.0,3.591,3.5689,3.6567,3.6845,3.5814,3.5684,3.5677,3.5628,3.5372,3.5277,3.5473,3.5485,3.5496,3.5527,3.5438,3.5289,3.5034,3.4999,3.4889,3.4694,3.4379,3.4357,3.4632,3.4311,3.4288,3.4591,3.4591,3.4591,3.4591,0.0,0.0,3.4147,3.4147,3.3968,3.3707,3.3707,3.368,3.3578,3.3243,3.3124,3.3081,3.2948,3.2938,3.2882,3.2599,3.2409,3.233,3.2335,3.2188,3.1964,3.1964,3.1847,3.1733,3.1733,3.147,3.119,3.119,3.119,3.119,3.1112,3.1015,3.0797,3.0293,2.9673,2.9316,2.9406,2.9316,2.9271,2.9271,2.9271,2.9271,2.918,2.9316,2.9406,2.9406,2.9406,2.9629,3.0123,2.9717,2.9848,3.0878,2.9978,2.9673,3.0267,3.0208,3.0208,3.0293,3.074,3.0975,3.0975,3.0975,3.0975,3.0958,3.0435,3.0477,3.2657,3.209,3.1331,3.0611,2.9976,2.9239,2.8178,2.9007,0.0,0.0,0.0,3.1582,3.0374,0.0,0.0,3.5723,0.0,0.0,0.0,0.0,3.5791,0.0,0.0,0.0,0.0,0.0,0.0,0.0,0.0,0.0,3.5165,3.4962,3.4832,3.4754,3.451,3.4467,3.4694,3.4379,3.4223,3.4269,3.4012,3.3902,3.3954,3.3954,3.3954,3.3954,0.0,0.0,3.385,3.385,3.3662,3.3302,3.3302,3.3075,3.2713,3.2648,3.2616,3.2616,3.2603,3.2588,3.257,3.253,3.2022,3.1414,3.1419,3.1393,3.1374,3.1374,3.1342,3.1291,3.1291,3.1252,3.119,3.119,3.119,3.1055,3.0559,3.0064,2.9673,2.9585,2.9058,2.8826,2.9316,2.9012,2.8654,2.8654,2.8654,2.8463,2.7993,2.8764,2.9406,2.9406,2.9406,2.9451,2.954,2.9451,2.9496,2.9717,2.954,2.9673,3.0267,2.9805,2.9805,3.0293,2.9892,2.9717,2.9717,2.9717,2.9717,2.9717,2.9585,2.9629,3.015,3.0112,2.977,2.7875,2.7697,2.7664,2.642,0.0,0.0,0.0,0.0,0.0,3.0196,0.0,0.0,0.0,0.0,0.0,0.0,0.0,0.0,0.0,0.0,0.0,0.0,0.0,0.0,0.0,0.0,0.0,3.487,3.4614,3.4423,3.4423,3.4141,3.4087,3.4232,3.4068,3.3891,3.367,3.356,3.3361,3.3118,3.3118,3.3118,3.3136,3.339,0.0,3.3118,3.339,3.3225,3.2858,3.2858,3.2681,3.2484,3.2248,3.2144,3.2109,3.1896,3.1823,3.1823,3.1823,3.1689,3.1464,3.125,3.1205,3.121,3.121,3.0982,3.074,3.074,3.0518,3.0251,3.0251,3.0251,3.0166,2.9892,2.9361,2.8919,2.8919,2.8448,2.8125,2.84,2.8222,2.8042,2.8042,2.8042,2.7944,2.7625,2.8125,2.8448,2.8448,2.8448,2.8591,2.8904,2.8638,2.8717,2.9361,2.881,2.8717,2.9316,2.9088,2.9058,2.9361,2.9406,2.9406,2.9406,2.9406,2.9406,2.9406,2.9104,2.9088,2.7799,2.7985,2.7642,2.4859,2.5258,2.5964,2.4775,2.5603,0.0,0.0,0.0,0.0,0.0,0.0,0.0,0.0,0.0,0.0,0.0,0.0,0.0,0.0,0.0,0.0,0.0,0.0,0.0,0.0,0.0,0.0,3.4483,3.426,3.4123,3.4123,3.3831,3.368,3.368,3.3578,3.3361,3.3045,3.3045,3.2858,3.2484,3.2484,3.2484,3.2517,3.2872,0.0,0.0,3.289,3.2777,3.235,3.235,3.2316,3.2196,3.1806,3.166,3.164,3.1329,3.119,3.119,3.1055,3.1317,3.1603,3.1291,3.119,3.119,3.119,3.0757,3.0293,3.0293,2.9848,2.9406,2.9406,2.9316,2.9225,2.9225,2.8732,2.8334,2.8334,2.7894,2.7625,2.7625,2.7625,2.7625,2.7625,2.7625,2.7625,2.7625,2.7625,2.7625,2.7625,2.7625,2.781,2.8286,2.786,2.7978,2.895,2.8125,2.786,2.8463,2.8383,2.8383,2.8511,2.8826,2.8996,2.8996,2.8996,2.8996,2.8996,2.8559,2.8543,2.6789,2.6073,2.4347,2.2116,2.2358,2.2917,2.2001,0.0,0.0,0.0,0.0,0.0,0.0,0.0,0.0,0.0,0.0,0.0,0.0,0.0,0.0,0.0,0.0,0.0,0.0,0.0,0.0,0.0,0.0,0.0,0.0,3.3868,3.3842,3.3842,3.3447,3.3243,3.3243,3.284,3.2616,3.255,3.255,3.255,3.2484,3.2484,3.2484,3.2517,0.0,0.0,0.0,3.255,3.2282,3.1844,3.1844,3.164,3.1329,3.1252,3.1269,3.1252,3.123,3.119,3.1112,3.0559,3.0781,3.1269,3.123,3.119,3.119,3.119,3.0757,3.0293,3.0293,2.9848,2.9406,2.9406,2.8996,2.8606,2.8606,2.8091,2.766,2.766,2.7625,2.7625,2.7625,2.7625,2.7625,2.7625,2.7625,2.7625,2.7625,2.7625,2.7625,2.7625,2.7625,2.7625,2.7675,2.7625,2.766,2.776,2.766,2.786,2.8463,2.7944,2.7959,2.8511,2.7993,2.776,2.776,2.776,2.776,2.776,2.771,2.771,2.3662,2.2183,2.0595,2.0797,2.0355,1.9797,1.9458,0.0,0.0,0.0,1.9619,2.2335,0.0,0.0,0.0,0.0,0.0,0.0,0.0,0.0,0.0,0.0,0.0,0.0,0.0,0.0,0.0,0.0,0.0,0.0,0.0,3.3027,3.3027,3.3027,3.2872,3.2777,3.2777,3.2583,3.235,3.2057,3.2057,3.1933,3.1731,3.1731,3.1731,3.1714,0.0,0.0,0.0,3.1968,3.1842,3.1449,3.1449,3.1351,3.119,3.119,3.119,3.1151,3.0781,3.0658,3.0576,2.9935,2.9935,3.0123,3.0123,3.0123,3.0123,3.0123,2.9673,2.9225,2.9225,2.8764,2.8304,2.8304,2.8125,2.7944,2.7944,2.776,2.7625,2.7625,2.7625,2.7625,2.7625,2.7625,2.7625,2.7625,2.7625,2.7625,2.7625,2.7625,2.7625,2.7625,2.7625,2.7625,2.7625,2.7625,2.7625,2.7625,2.7625,2.771,2.7959,2.771,2.771,2.7944,2.771,2.7625,2.7625,2.7993,2.8188,2.8203,2.8592,2.8771,2.0577,1.925,1.8317,1.9521,1.888,1.8029,0.0,0.0,0.0,1.462,1.7283,2.0568,2.3019,0.0,0.0,0.0,0.0,0.0,0.0,0.0,0.0,0.0,0.0,0.0,0.0,0.0,0.0,0.0,0.0,0.0,0.0,3.2127,3.2213,3.2484,3.2384,3.2298,3.2298,3.2179,3.195,3.1623,3.1623,3.147,3.119,3.119,3.119,3.123,0.0,0.0,0.0,3.1507,3.1449,3.119,3.119,3.119,3.119,3.119,3.119,3.1095,3.0518,3.0293,3.0166,2.9406,2.9134,2.9088,2.8904,2.9134,2.9406,2.9406,2.8966,2.8463,2.8271,2.791,2.7625,2.7625,2.7625,2.7625,2.7625,2.7625,2.7625,2.7625,2.7625,2.7625,2.7625,2.7625,2.7625,2.7625,2.7625,2.7685,2.7844,2.7874,2.7949,2.8143,2.821,2.8008,2.7655,2.7754,2.7874,2.7874,2.8053,2.821,2.821,2.821,2.821,2.821,2.821,2.821,2.821,2.8652,2.8891,2.8906,2.937,2.9475,1.8056,1.7999,1.8,1.801,1.8021,1.7966,0.0,0.0,0.0,0.0,1.5356,1.8444,1.9692,2.2235,2.5368,2.9087,0.0,0.0,0.0,0.0,0.0,0.0,0.0,0.0,0.0,0.0,0.0,0.0,0.0,0.0,0.0,3.123,3.16,3.2484,3.2057,3.1825,3.1825,3.1411,3.119,3.119,3.119,3.119,3.119,3.119,3.119,0.0,0.0,0.0,0.0,3.119,3.119,3.119,3.119,3.119,3.119,3.119,3.119,3.1095,3.0518,3.0293,3.0123,2.8919,2.8511,2.8383,2.781,2.8448,2.9406,2.9406,2.8966,2.8367,2.776,2.761,2.7625,2.7625,2.7625,2.7625,2.7625,2.7625,2.7625,2.7625,2.7625,2.7625,2.7625,2.7625,2.7625,2.7625,2.7625,2.7814,2.8502,2.8592,2.8831,2.949,2.9564,2.9026,2.7679,2.8203,2.8592,2.8592,2.9205,2.9564,2.9564,2.9564,2.9564,2.9564,2.9564,2.9564,2.9564,2.9564,2.9564,2.9564,2.9579,2.9235,1.7975,1.6105,1.4128,1.4128,1.4104,1.4095,1.4086,0.0,0.0,0.0,0.0,1.5026,1.8059,2.1245,2.4477,2.776,0.0,0.0,0.0,0.0,0.0,0.0,0.0,0.0,0.0,0.0,0.0,0.0,0.0,0.0,0.0,3.119,3.1329,3.1582,3.1449,3.1389,3.1389,3.1252,3.119,3.119,3.119,3.119,3.119,3.119,0.0,0.0,0.0,0.0,0.0,3.119,3.119,3.119,3.119,3.0958,3.0617,3.1055,3.0699,2.9935,2.9761,2.971,2.9611,2.8843,2.8873,2.9199,2.9042,2.8919,2.8935,2.9394,2.9392,2.9199,2.9004,2.8951,2.8951,2.8951,2.8951,2.8951,2.8951,2.8951,2.8951,2.8951,2.8951,2.8951,2.8951,2.8951,2.8951,2.8951,2.8951,2.9026,2.925,2.9265,2.934,2.9564,2.9579,2.9415,2.8981,2.9146,2.9265,2.9265,2.946,2.9579,2.9579,2.9579,2.9579,2.9579,2.9579,2.9579,2.9579,2.9998,3.0447,3.0911,3.0432,3.0103,0.0,1.4096,1.2271,1.2319,1.2308,0.0,0.0,0.0,0.0,0.0,0.0,0.0,0.0,1.9752,2.4007,2.7114,2.956,0.0,0.0,0.0,0.0,0.0,0.0,0.0,0.0,0.0,0.0,0.0,0.0,0.0,0.0,0.0,3.119,3.119,3.119,3.119,3.119,3.119,3.119,3.119,3.119,3.119,3.119,3.119,0.0,0.0,0.0,0.0,0.0,3.119,3.119,3.119,3.0958,3.0617,3.0342,3.0749,3.043,2.9793,2.9785,2.9828,2.977,2.9162,2.925,2.9624,2.9864,2.949,2.9056,2.946,2.9579,2.9579,2.9579,2.9579,2.9579,2.9579,2.9579,2.9579,2.9579,2.9579,2.9579,2.9579,2.9579,2.9579,2.9579,2.9579,2.9579,2.9579,2.9579,2.9669,2.9909,2.9924,3.0028,3.0298,3.0313,3.0313,3.0313,3.0073,2.9924,2.9924,3.0178,3.0313,3.0313,3.0313,3.0313,3.0313,3.0313,3.0313,3.0313,3.0702,3.0986,3.1135,3.0702,3.0238,0.0,1.2492,1.229,1.2271,1.2305,0.0,0.0,0.0,0.0,0.0,0.0,0.0,0.0,0.0,2.4487,2.753,0.0,0.0,0.0,0.0,0.0,0.0,0.0,0.0,0.0,0.0,0.0,0.0,0.0,0.0,0.0,0.0,3.1095,3.1055,3.1095,3.1151,3.1151,3.1151,3.1095,3.1055,3.1151,3.1151,3.1055,3.1112,0.0,0.0,0.0,0.0,0.0,3.1173,3.123,3.1139,3.0609,3.0356,3.031,3.0424,3.0433,3.0339,3.046,3.0485,3.0428,2.99,2.9729,2.9819,3.0402,3.0148,2.9654,2.9699,2.9729,2.9729,2.9729,2.9729,2.9729,2.9729,2.9729,2.9729,2.9729,2.9729,2.9729,2.9729,2.966,2.966,2.966,2.9605,2.9535,2.9535,2.9535,2.9744,3.0324,3.0383,3.0636,3.1276,3.1409,3.1409,3.1409,3.0884,3.0567,3.0567,3.118,3.1482,3.1482,3.1482,3.1482,3.1482,3.1482,3.1482,3.1482,3.1482,3.118,3.0507,3.0462,2.9774,1.6921,0.0,1.229,1.2271,1.2305,1.2305,0.0,0.0,0.0,0.0,0.0,0.0,0.0,0.0,0.0,0.0,0.0,0.0,0.0,0.0,0.0,0.0,0.0,0.0,0.0,0.0,0.0,0.0,0.0,0.0,0.0,0.0,3.0136,2.9848,3.0251,3.0518,3.0518,3.0518,3.0293,2.9848,3.0757,3.0699,2.9848,3.0293,0.0,0.0,0.0,0.0,3.0559,3.1124,3.1344,3.1269,3.117,3.0863,3.0508,3.1006,3.0595,2.9855,3.0341,3.0479,3.0579,3.0953,3.1076,3.1106,3.124,3.0821,3.0402,3.0926,3.1076,3.1076,3.1076,3.1076,3.1076,3.1076,3.1076,3.1076,3.1076,3.1076,3.1076,3.1076,3.0572,3.0133,3.0133,2.9568,2.913,2.913,2.913,2.9186,2.9327,2.9341,2.9397,2.9552,3.0208,3.0584,3.0584,3.0998,3.1228,3.1228,3.1377,3.1482,3.1482,3.1482,3.1482,3.1482,3.1482,3.1482,3.1482,3.1482,3.118,3.0492,3.0028,2.937,1.6801,1.4597,1.2303,1.2291,1.227,1.2271,1.227,0.0,0.0,0.0,0.0,0.0,0.0,0.0,0.0,0.0,0.0,0.0,0.0,0.0,0.0,0.0,0.0,0.0,0.0,0.0,0.0,0.0,0.0,0.0,0.0,0.0,3.0168,3.0208,3.0041,2.9907,2.9908,3.0166,2.9995,2.9406,3.0364,3.0348,2.9422,3.0057,0.0,0.0,0.0,0.0,3.0417,3.1101,3.1373,3.1302,3.1068,3.0779,3.0536,3.0882,3.0586,3.0098,3.0767,3.0951,3.1046,3.1347,3.1482,3.1482,3.1482,3.127,3.1046,3.1377,3.1482,3.1482,3.1482,3.1482,3.1482,3.1482,3.1482,3.1482,3.1482,3.1482,3.1482,3.1482,3.1161,3.0718,3.0329,2.9889,2.9442,2.9066,2.9002,2.9002,2.9002,2.9002,2.9002,2.9002,2.9442,2.969,2.969,3.0072,3.0703,3.1467,3.1161,3.097,3.097,3.0584,3.0524,3.097,3.0584,3.0524,3.097,3.0661,2.9987,2.8973,2.9074,2.8598,1.5956,1.4854,1.3608,1.3241,1.3615,1.3955,1.3662,0.0,0.0,0.0,0.0,0.0,0.0,0.0,0.0,0.0,0.0,0.0,0.0,0.0,0.0,0.0,0.0,0.0,0.0,0.0,0.0,0.0,0.0,0.0,0.0,0.0,0.0,3.095,3.0116,2.959,2.9421,3.0041,3.0041,2.9467,3.0194,3.0163,2.9421,3.0101,3.0069,0.0,0.0,0.0,3.0497,3.1146,3.1415,3.1369,3.0856,3.0658,3.0668,3.0669,3.0657,3.0746,3.133,3.1482,3.1482,3.1482,3.1482,3.1482,3.1482,3.1482,3.1482,3.1482,3.1482,3.1482,3.1482,3.1482,3.1482,3.1482,3.1409,3.1351,3.1351,3.1219,3.1087,3.1087,3.1029,3.0703,3.0011,2.9827,2.9442,2.8748,2.862,2.862,2.862,2.862,2.862,2.862,2.8748,2.8812,2.8812,2.8939,2.9628,3.1029,3.0464,3.0072,3.0072,2.938,2.938,3.0072,2.938,2.9338,2.999,2.9399,2.8403,2.7114,2.7871,2.7559,1.8455,1.9396,1.9638,1.7653,1.9544,2.1441,0.0,0.0,0.0,0.0,0.0,0.0,0.0,0.0,0.0,0.0,0.0,0.0,0.0,0.0,0.0,0.0,0.0,0.0,0.0,0.0,0.0,0.0,0.0,0.0,0.0,0.0,0.0,2.9852,3.0186,3.0099,2.9569,3.018,3.018,2.9569,3.071,3.0676,2.9569,3.0202,3.0135,0.0,0.0,3.0494,3.053,3.1241,3.1433,3.1409,3.1349,3.1339,3.1354,3.133,3.1375,3.1332,3.1437,3.1482,3.1482,3.1482,3.1482,3.1482,3.1482,3.1482,3.1482,3.1482,3.1482,3.1482,3.1482,3.1482,3.1482,3.1482,3.097,3.0464,3.0464,2.9889,2.938,2.938,2.8812,2.8247,2.8117,2.755,2.704,2.6905,2.6905,2.6905,2.6905,2.6905,2.6905,2.6905,2.7484,2.792,2.792,2.8556,2.9129,2.938,2.9254,2.9192,2.9192,2.9066,2.9066,2.9192,2.9066,2.8865,2.8549,2.8391,2.7704,2.6549,2.6693,2.6316,2.0039,2.1696,2.2957,2.1358,2.3712,2.6191,0.0,0.0,0.0,0.0,0.0,0.0,0.0,0.0,0.0,0.0,0.0,0.0,0.0,0.0,0.0,0.0,0.0,0.0,0.0,0.0,0.0,0.0,0.0,0.0,0.0,0.0,0.0,0.0,3.0547,3.0517,3.0571,3.0897,3.0582,2.9633,3.0509,3.0441,2.9594,3.0219,3.0189,2.9609,0.0,3.0493,3.0539,3.1234,3.1501,3.144,3.1519,3.1482,3.1482,3.1482,3.1482,3.1482,3.1482,3.1482,3.1482,3.1482,3.1482,3.1482,3.1482,3.1482,3.1482,3.1482,3.1482,3.1482,3.1482,3.1482,3.1409,3.097,3.0584,3.0147,2.969,2.9254,2.9002,2.9002,2.8684,2.8247,2.7802,2.7417,2.6973,2.6589,2.6533,2.6533,2.6533,2.6533,2.6533,2.6533,2.685,2.704,2.704,2.7417,2.7868,2.8233,2.8298,2.8117,2.767,2.767,2.7855,2.8298,2.7855,2.7576,2.7485,2.7147,2.631,2.515,2.5622,2.5492,2.1632,2.314,2.4679,2.4597,0.0,0.0,0.0,0.0,0.0,0.0,0.0,0.0,0.0,0.0,0.0,0.0,0.0,0.0,0.0,0.0,0.0,0.0,0.0,0.0,0.0,0.0,0.0,0.0,0.0,0.0,0.0,0.0,0.0,0.0,3.0997,3.094,3.1443,3.1468,3.1031,3.0043,3.0507,3.0492,3.0058,3.0522,3.0492,3.0058,3.0537,3.0746,3.0791,3.1315,3.1482,3.1482,3.1482,3.1482,3.1482,3.1482,3.1482,3.1482,3.1482,3.1482,3.1482,3.1482,3.1482,3.1482,3.1482,3.1482,3.1467,3.1278,3.1219,3.1278,3.1467,3.1351,3.1087,3.045,3.0011,2.9504,2.8812,2.8556,2.8427,2.8427,2.8427,2.8182,2.755,2.7417,2.7229,2.6589,2.6533,2.6533,2.6533,2.6533,2.6533,2.6533,2.6533,2.6533,2.6533,2.6533,2.6782,2.7351,2.7417,2.7162,2.6521,2.6533,2.6782,2.7417,2.6782,2.6438,2.6425,2.5905,2.4972,2.3791,2.4548,2.4553,2.3751,2.4014,2.4615,2.7207,2.7259,0.0,0.0,0.0,0.0,0.0,0.0,0.0,0.0,0.0,0.0,0.0,0.0,0.0,0.0,0.0,0.0,0.0,0.0,0.0,0.0,0.0,0.0,0.0,0.0,0.0,0.0,0.0,0.0,0.0,0.0,3.1465,3.1507,3.1509,3.1422,3.1332,3.1377,3.1377,3.1332,3.1377,3.1377,3.1405,3.1377,3.1407,3.1407,3.1452,3.1482,3.1482,3.1482,3.1482,3.1482,3.1482,3.1482,3.1482,3.1482,3.1482,3.1482,3.1482,3.1482,3.1482,3.1482,3.1482,3.1351,3.0584,3.0389,3.0584,3.1278,3.097,3.0389,3.0329,2.9066,2.7855,2.7802,2.7229,2.6658,2.6658,2.6658,2.6658,2.6589,2.6589,2.6589,2.6533,2.6533,2.6533,2.6533,2.6533,2.6533,2.6533,2.6533,2.6533,2.6533,2.6533,2.6521,2.6589,2.6589,2.6589,2.6533,2.6533,2.6521,2.6589,2.6521,2.6005,2.4935,2.4897,2.4318,2.3201,2.321,2.3245,2.4338,2.5299,0.0,2.8188,0.0,0.0,0.0,0.0,0.0,0.0,0.0,0.0,0.0,0.0,0.0,0.0,0.0,0.0,0.0,0.0,0.0,0.0,0.0,0.0,0.0,0.0,0.0,0.0,0.0,0.0,0.0,0.0,0.0,0.0,0.0,3.1482,3.1482,3.1482,3.1482,3.1482,3.1482,3.1482,3.1482,3.1482,3.1482,3.1482,3.1482,3.1482,3.1482,3.1482,3.1482,3.1482,3.1482,3.1482,3.1482,3.1482,3.1482,3.1482,3.1482,3.1161,3.0777,3.0777,3.0777,3.0644,3.0133,3.0329,3.0584,2.9752,2.9504,2.9566,2.9889,2.969,2.938,2.8812,2.8182,2.7537,2.704,2.6714,2.6533,2.6533,2.6533,2.6533,2.6533,2.6533,2.6533,2.6533,2.6533,2.6533,2.6533,2.6533,2.6533,2.6533,2.6533,2.6533,2.6533,2.6533,2.6533,2.6533,2.6533,2.6533,2.6533,2.6533,2.6533,2.6533,2.6101,2.5561,2.482,2.4481,2.4092,2.3665,2.3301,2.3326,2.5876,2.6892,0.0,0.0,0.0,0.0,0.0,0.0,0.0,0.0,0.0,0.0,0.0,0.0,0.0,0.0,0.0,0.0,0.0,0.0,0.0,0.0,0.0,0.0,0.0,0.0,0.0,0.0,0.0,0.0,0.0,0.0,0.0,0.0,0.0,0.0,3.1482,3.1482,3.1482,3.1482,3.1482,3.1482,3.1482,3.1482,3.1482,3.1482,3.1482,3.1482,3.1482,3.1482,3.1482,3.1482,3.1482,3.1351,3.1161,3.1409,3.1351,3.1087,3.1087,3.0777,3.0269,2.995,2.9889,2.9766,2.9192,2.9442,2.969,2.8812,2.862,2.8556,2.8298,2.8427,2.8427,2.7868,2.7484,2.7162,2.6589,2.6533,2.6533,2.6533,2.6533,2.6533,2.6533,2.6533,2.6533,2.6533,2.6533,2.6533,2.6533,2.6533,2.6533,2.6533,2.6533,2.6596,2.6703,2.6716,2.6791,2.6967,2.6979,2.6904,2.6798,2.6892,2.6979,2.6979,2.659,2.6038,2.5335,2.4958,2.4594,2.4243,2.3853,2.3879,2.8704,2.8776,0.0,0.0,0.0,0.0,0.0,0.0,0.0,0.0,0.0,0.0,0.0,0.0,0.0,0.0,0.0,0.0,0.0,0.0,0.0,0.0,0.0,0.0,0.0,0.0,0.0,0.0,0.0,0.0,0.0,0.0,0.0,0.0,0.0,0.0,3.1482,3.1482,3.1482,3.1482,3.1482,3.1482,3.1482,3.1482,3.1482,3.1482,3.1482,3.1482,3.1482,3.1482,3.1482,3.1482,3.1482,3.1029,3.0389,3.1219,3.097,3.0269,3.0269,3.0269,3.0133,2.9254,2.9002,2.9002,2.9002,2.9002,2.8812,2.792,2.767,2.7484,2.6714,2.7095,2.767,2.767,2.7095,2.6533,2.6533,2.6533,2.6533,2.6533,2.6533,2.6533,2.6533,2.6533,2.6533,2.6533,2.6533,2.6533,2.6533,2.6533,2.6533,2.6533,2.6533,2.6747,2.7231,2.7293,2.7532,2.8072,2.8109,2.7871,2.7318,2.7821,2.8109,2.8109,2.8097,2.7557,2.6533,2.6533,2.59,2.4845,2.4845,2.4845,2.6758,2.8435,0.0,0.0,0.0,0.0,0.0,0.0,0.0,0.0,0.0,0.0,0.0,0.0,0.0,0.0,0.0,0.0,0.0,0.0,0.0,0.0,0.0,0.0,0.0,0.0,0.0,0.0,0.0,0.0,0.0,0.0,0.0,0.0,0.0,0.0,3.1482,3.1482,3.1482,3.1482,3.1482,3.1482,3.1482,3.1482,3.1482,3.1482,3.1482,3.1482,3.1482,3.1482,3.1482,3.1409,3.0896,3.0524,3.0269,2.9889,2.9566,2.938,2.938,2.9002,2.8427,2.8182,2.8117,2.7986,2.7417,2.767,2.792,2.7095,2.685,2.6782,2.6589,2.6658,2.685,2.685,2.6658,2.6533,2.6533,2.6533,2.6533,2.6533,2.6533,2.6533,2.6533,2.6533,2.6533,2.6533,2.6533,2.6533,2.6533,2.6533,2.6533,2.6533,2.6533,2.6596,2.6691,2.767,2.8348,2.8511,2.8624,2.8436,2.7883,2.8021,2.8109,2.8109,2.772,2.7369,2.703,2.6653,2.6302,2.5975,2.5975,2.5975,2.825,0.0,0.0,0.0,0.0,0.0,0.0,0.0,0.0,0.0,0.0,0.0,0.0,0.0,0.0,0.0,0.0,0.0,0.0,0.0,0.0,0.0,0.0,0.0,0.0,0.0,0.0,0.0,0.0,0.0,0.0,0.0,0.0,0.0,0.0,0.0,3.1482,3.1482,3.1482,3.1482,3.1482,3.1482,3.1482,3.1482,3.1482,3.1467,3.1161,3.1029,3.1029,3.1029,3.0837,3.0524,3.0329,2.9889,2.9254,2.9066,2.8812,2.8492,2.8492,2.8117,2.767,2.7351,2.7229,2.7095,2.6658,2.685,2.7095,2.6658,2.6615,2.6791,2.6791,2.6954,2.7005,2.6634,2.6533,2.6533,2.6533,2.6533,2.6533,2.6533,2.6533,2.6533,2.6533,2.6533,2.6533,2.6533,2.6653,2.6816,2.6961,2.6961,2.6848,2.6559,2.6533,2.664,2.708,2.8097,2.8825,2.9114,2.9214,2.9126,2.8787,2.8775,2.8775,2.8775,2.8448,2.8172,2.7934,2.7607,2.7318,2.7118,2.7118,2.7118,3.1603,0.0,0.0,0.0,0.0,0.0,0.0,0.0,0.0,0.0,0.0,0.0,0.0,0.0,0.0,0.0,0.0,0.0,0.0,0.0,0.0,0.0,0.0,0.0,0.0,0.0,0.0,0.0,0.0,0.0,0.0,0.0,0.0,0.0,0.0,0.0,3.1409,3.1467,3.1467,0.0,3.1467,3.1482,3.1482,3.1482,3.1467,3.1351,3.0644,3.0269,3.0208,3.0208,2.969,2.9066,2.9766,2.9066,2.7802,2.8492,2.8233,2.7604,2.7604,2.7604,2.7484,2.6714,2.6533,2.6533,2.6533,2.6559,2.6596,2.6596,2.6929,2.7356,2.7356,2.772,2.7846,2.6854,2.6647,2.6596,2.6596,2.6559,2.6533,2.6533,2.6533,2.6546,2.6596,2.6559,2.6533,2.6533,2.6942,2.7381,2.7654,2.7591,2.7264,2.6596,2.671,2.7168,2.8172,2.8586,2.9089,2.9754,2.9792,2.9792,2.9792,2.9792,2.9792,2.9792,2.9792,2.9528,2.9001,2.9001,2.8725,2.8185,2.8235,2.8235,3.0377,3.2614,0.0,0.0,0.0,0.0,0.0,0.0,0.0,0.0,0.0,0.0,0.0,0.0,0.0,0.0,0.0,0.0,0.0,0.0,0.0,0.0,0.0,0.0,0.0,0.0,0.0,0.0,0.0,0.0,0.0,0.0,0.0,0.0,0.0,3.1219,3.0584,3.1161,3.1161,0.0,3.1219,3.1482,3.1482,3.1482,3.1161,3.0524,3.0389,2.9889,2.9254,2.9254,2.9192,2.8939,2.8427,2.8051,2.767,2.7229,2.6905,2.6782,2.6782,2.6782,2.6714,2.6589,2.6533,2.6533,2.6533,2.6766,2.7105,2.7105,2.7507,2.7921,2.7921,2.8009,2.8047,2.7808,2.7419,2.7105,2.7105,2.6766,2.6533,2.6533,2.6533,2.6603,2.703,2.6753,2.6533,2.6533,2.7125,2.762,2.7946,2.7231,2.671,2.6546,2.8021,2.9176,2.9415,2.9503,2.9628,2.9779,2.9792,2.9792,2.9792,2.9792,2.9792,2.9792,2.9792,2.9729,2.9603,2.9603,2.9315,2.8762,2.9214,2.9189,3.1193,0.0,0.0,0.0,0.0,0.0,0.0,0.0,0.0,0.0,0.0,0.0,0.0,0.0,0.0,0.0,0.0,0.0,0.0,0.0,0.0,0.0,0.0,0.0,0.0,0.0,0.0,0.0,0.0,0.0,0.0,0.0,0.0,0.0,3.1482,3.1278,3.0896,3.1278,3.1087,3.0329,3.0718,3.0703,3.0329,3.0718,3.0464,2.9628,2.9254,2.8812,2.8363,2.8363,2.8182,2.7802,2.7736,2.7484,2.7095,2.6658,2.6533,2.6533,2.6533,2.6533,2.6533,2.6533,2.6533,2.6533,2.6533,2.6841,2.7281,2.7281,2.7871,2.8499,2.8499,2.8712,2.8913,2.8913,2.8273,2.767,2.767,2.7444,2.7256,2.7256,2.7256,2.7344,2.762,2.7444,2.7306,2.7507,2.7858,2.8298,2.885,2.8411,2.8059,2.8059,2.9101,2.9792,2.9792,2.9792,2.9792,2.9792,2.9792,2.9792,2.9792,2.9792,2.9792,2.9792,2.9792,2.9792,2.9792,2.9792,2.9641,2.9352,2.9654,2.9628,3.2089,0.0,0.0,0.0,0.0,0.0,0.0,0.0,0.0,0.0,0.0,0.0,0.0,0.0,0.0,0.0,0.0,0.0,0.0,0.0,0.0,0.0,0.0,0.0,0.0,0.0,0.0,0.0,0.0,0.0,0.0,0.0,3.1409,3.1278,3.1278,3.1161,3.0837,3.097,3.0644,2.9827,3.0011,2.9628,2.8812,2.9504,2.9442,2.8748,2.7986,2.7604,2.7484,2.7484,2.7095,2.6589,2.7229,2.7095,2.6533,2.6533,2.6533,2.6533,2.6533,2.6533,2.6533,2.6533,2.6533,2.6546,2.6647,2.6979,2.7444,2.7544,2.8298,2.9076,2.9076,2.9428,2.9792,2.9534,2.8912,2.836,2.8273,2.8172,2.8109,2.8109,2.8185,2.8222,2.8122,2.826,2.8448,2.8574,2.8762,2.9101,2.9716,2.9792,2.9792,2.9792,2.9792,2.9792,2.9792,2.9792,2.9792,2.9792,2.9792,2.9792,2.9792,2.9792,2.9792,2.9792,2.9624,2.9624,2.9792,2.9624,2.9624,2.9792,2.9792,2.9792,0.0,0.0,0.0,0.0,0.0,0.0,0.0,0.0,0.0,0.0,0.0,0.0,0.0,0.0,0.0,0.0,0.0,0.0,0.0,0.0,0.0,0.0,0.0,0.0,0.0,0.0,0.0,0.0,0.0,0.0,0.0,3.1482,3.1161,3.0464,3.045,2.9766,2.8247,2.8939,2.8876,2.8051,2.8812,2.8748,2.7855,2.7986,2.7986,2.7855,2.7736,2.7284,2.6658,2.6658,2.6589,2.6533,2.6589,2.6589,2.6533,2.6533,2.6533,2.6533,2.6533,2.6533,2.6533,2.6533,2.6533,2.6622,2.703,2.7557,2.8097,2.8574,2.9176,2.9679,2.9679,2.9729,2.9534,2.8597,2.8995,2.9428,2.8925,2.8448,2.8109,2.8109,2.8499,2.8662,2.8185,2.8913,2.9252,2.8323,2.9013,2.9679,2.9779,2.9792,2.9792,2.9792,2.9792,2.9792,2.9792,2.9792,2.9792,2.9792,2.9792,2.9792,2.9792,2.9792,2.9792,2.9792,2.8858,2.8767,2.9792,2.8767,2.8846,2.9792,2.9792,2.9792,3.0022,0.0,0.0,0.0,0.0,0.0,0.0,0.0,0.0,0.0,0.0,0.0,0.0,0.0,0.0,0.0,0.0,0.0,0.0,0.0,0.0,0.0,0.0,0.0,0.0,0.0,0.0,0.0,0.0,0.0,3.0133,3.0584,3.045,2.9566,2.9566,2.9192,2.8427,2.8812,2.8556,2.767,2.7604,2.7417,2.704,2.704,2.704,2.704,2.704,2.685,2.6533,2.6533,2.6533,2.6533,2.6533,2.6533,2.6533,2.6533,2.6533,2.6533,2.6533,2.6533,2.6584,2.6816,2.6917,2.703,2.7582,2.8134,2.8612,2.8863,2.934,2.9792,2.9792,2.9792,2.9534,2.8347,2.8505,2.8627,2.7743,2.8322,2.8875,2.8215,2.8322,2.8174,2.7387,2.798,2.8712,2.9038,2.9478,2.9792,2.9792,2.9792,2.887,2.6295,2.6047,2.7046,2.9624,2.904,2.8949,2.9714,2.9792,2.9792,2.9792,2.9792,2.9792,2.9792,2.9287,2.9275,2.9792,2.9287,2.9287,2.9792,2.9792,2.9792,0.0,0.0,0.0,0.0,0.0,0.0,0.0,0.0,0.0,0.0,0.0,0.0,0.0,0.0,0.0,0.0,0.0,0.0,0.0,0.0,0.0,0.0,0.0,0.0,0.0,0.0,0.0,0.0,0.0,0.0,2.9066,2.9628,2.9566,2.8684,2.8684,2.8556,2.8363,2.8363,2.8051,2.7417,2.6782,2.6533,2.6533,2.6533,2.6533,2.6533,2.6533,2.6533,2.6533,2.6533,2.6533,2.6533,2.6533,2.6533,2.6533,2.6533,2.6533,2.6533,2.6533,2.6622,2.6741,2.7155,2.7381,2.7595,2.8147,2.8599,2.8963,2.9114,2.921,2.9365,2.9365,2.9209,2.87,2.7522,2.751,2.7441,2.6637,2.7799,2.8712,2.7855,2.7683,2.7522,2.6883,2.707,2.7877,2.9534,2.8868,2.8076,2.8096,2.8119,2.6789,2.3474,2.3135,2.4467,2.7787,2.8119,2.845,2.9209,2.9624,2.9792,2.9792,2.9792,2.9792,2.9792,2.9792,2.9792,2.9792,2.9209,2.9287,2.9792,2.9534,2.9534,0.0,0.0,0.0,0.0,0.0,0.0,0.0,0.0,0.0,0.0,0.0,0.0,0.0,0.0,0.0,0.0,0.0,0.0,0.0,0.0,0.0,0.0,0.0,0.0,0.0,0.0,0.0,0.0,0.0,0.0,2.9002,2.9066,2.8684,2.7802,2.7802,2.7417,2.6658,2.6658,2.6589,2.6589,2.6521,2.6533,2.6533,2.6533,2.6533,2.6533,2.6533,2.6533,2.6533,2.6533,2.6533,2.6533,2.6533,2.6533,2.6533,2.6533,2.6533,2.6533,2.6533,2.6804,2.7243,2.7268,2.7632,2.816,2.8712,2.89,2.9038,2.9591,2.9003,2.8176,2.8176,2.7452,2.6389,2.5199,2.5797,2.6565,2.6472,2.6565,2.6637,2.6554,2.6554,2.6801,2.7452,2.7013,2.7265,2.9496,2.62,2.3421,2.3471,2.3474,2.3387,2.3135,2.3135,2.3222,2.3474,2.729,2.9118,2.7787,2.904,2.9792,2.9792,2.9792,2.9792,2.9792,2.9792,2.9792,2.9792,2.7718,2.7718,2.9792,2.8688,2.8767,0.0,0.0,0.0,0.0,0.0,0.0,0.0,0.0,0.0,0.0,0.0,0.0,0.0,0.0,0.0,0.0,0.0,0.0,0.0,0.0,0.0,0.0,0.0,0.0,0.0,0.0,0.0,0.0,0.0,0.0,2.7952,2.8067,2.7802,2.6973,2.6905,2.6782,2.6533,2.6533,2.6533,2.6533,2.6533,2.6533,2.6533,2.6533,2.6533,2.6533,2.6533,2.6533,2.6533,2.6533,2.6533,2.6533,2.6533,2.6094,2.5523,2.5523,2.5523,2.556,2.5958,2.6584,2.7394,2.8109,2.8473,2.8737,2.9315,2.9478,2.9362,2.8876,2.8426,2.7924,2.729,2.6801,2.6224,2.5041,2.4542,2.4307,2.4307,2.5484,2.6307,2.5546,2.5378,2.5294,2.4798,2.448,2.4629,2.5368,2.4101,2.313,2.3105,2.3135,2.3135,2.3135,2.3135,2.3135,2.3135,2.521,2.6707,2.6883,2.8028,2.8688,2.8688,2.9443,2.9792,2.9792,2.9792,2.9792,2.9792,2.8279,2.7936,2.8688,2.8267,2.8347,0.0,0.0,0.0,0.0,0.0,0.0,0.0,0.0,0.0,0.0,0.0,0.0,0.0,0.0,0.0,0.0,0.0,0.0,0.0,0.0,0.0,0.0,0.0,0.0,0.0,0.0,0.0,0.0,0.0,0.0,2.7603,2.7562,2.7233,2.6533,2.6533,2.6533,2.6533,2.6533,2.6533,2.6533,2.6533,2.6533,2.6465,2.6164,2.6025,2.6025,2.6025,2.6164,2.6533,2.6533,2.6314,2.6025,2.6025,2.537,2.4515,2.4679,2.4966,2.5325,2.5849,2.659,2.7483,2.8537,2.8811,2.8793,2.9589,2.9534,2.9106,2.8335,2.7591,2.686,2.613,2.5641,2.5147,2.4382,2.3627,2.3135,2.3135,2.4307,2.5136,2.4382,2.4211,2.3963,2.3222,2.3135,2.3135,2.3135,2.3135,2.3135,2.3135,2.3135,2.3135,2.3135,2.3135,2.3135,2.3135,2.4307,2.5305,2.5891,2.6953,2.7522,2.7522,2.8609,2.9197,2.9197,2.9624,2.9792,2.9792,2.8279,2.7763,2.8096,2.7763,2.7936,0.0,0.0,0.0,0.0,0.0,0.0,0.0,0.0,0.0,0.0,0.0,0.0,0.0,0.0,0.0,0.0,0.0,0.0,0.0,0.0,0.0,0.0,0.0,0.0,0.0,0.0,0.0,0.0,0.0,2.8109,2.8134,2.7607,2.7055,2.6571,2.6546,2.6546,2.6533,2.6533,2.6533,2.6533,2.6533,2.6533,2.6452,2.5511,2.5016,2.5004,2.5004,2.5523,2.6383,2.6452,2.5873,2.4933,2.4957,2.436,2.353,2.4022,2.4803,2.5763,2.6257,2.6753,2.74,2.8548,2.8497,2.8347,2.9443,2.8937,2.8096,2.8004,2.6438,2.4787,2.4787,2.3963,2.3135,2.3135,2.3135,2.3135,2.3135,2.3135,2.3135,2.3135,2.3135,2.3135,2.3135,2.3135,2.3135,2.3135,2.3135,2.3135,2.3135,2.3135,2.3135,2.3135,2.3135,2.3135,2.3135,2.4488,2.5158,2.4787,2.5797,2.6472,2.6472,2.7441,2.8084,2.8096,2.9197,2.9792,2.9714,2.7626,2.7035,2.8084,2.7046,2.7718,2.2544,0.0,0.0,0.0,0.0,0.0,0.0,0.0,0.0,0.0,0.0,0.0,0.0,0.0,0.0,0.0,0.0,0.0,0.0,0.0,0.0,0.0,0.0,0.0,0.0,0.0,0.0,0.0,2.8335,2.8285,2.8687,2.8185,2.762,2.7067,2.7055,2.6866,2.6533,2.6533,2.6533,2.6533,2.6533,2.6533,2.6465,2.6233,2.5664,2.5004,2.5004,2.4779,2.4397,2.5146,2.485,2.3925,2.43,2.3827,2.2969,2.336,2.3756,2.4057,2.4636,2.5369,2.6336,2.7842,2.8215,2.8176,2.8426,2.8347,2.7763,2.6191,2.5284,2.4617,2.38,2.3299,2.3135,2.3135,2.3135,2.3135,2.3135,2.3135,2.3135,2.3135,2.3135,2.3135,2.3135,2.3135,2.3135,2.3135,2.3135,2.3135,2.3135,2.3135,2.3135,2.3135,2.3135,2.3135,2.3135,2.3474,2.3724,2.3551,2.4628,2.5294,2.5294,2.6378,2.7279,2.8084,2.8426,2.8597,2.8597,2.7936,2.7844,2.8096,2.7775,2.845,0.0,0.0,0.0,0.0,0.0,0.0,0.0,0.0,0.0,0.0,0.0,0.0,0.0,0.0,0.0,0.0,0.0,0.0,0.0,0.0,0.0,0.0,0.0,0.0,0.0,0.0,0.0,0.0,2.9001,2.885,2.8925,2.8624,2.8197,2.7645,2.762,2.7369,2.6804,2.6804,2.6691,2.6533,2.6533,2.6314,2.5873,2.5429,2.4696,2.3745,2.3745,2.3268,2.2626,2.3383,2.349,2.3177,2.346,2.309,2.2391,2.2829,2.3309,2.3769,2.4231,2.4804,2.5497,2.6932,2.7105,2.6767,2.7279,2.7105,2.6438,2.5199,2.4457,2.3963,2.3299,2.3135,2.3135,2.3135,2.3135,2.3135,2.3135,2.3135,2.3135,2.3135,2.3135,2.3135,2.3135,2.3135,2.3135,2.3135,2.3135,2.3135,2.3135,2.3135,2.3135,2.3135,2.3135,2.3135,2.3135,2.3135,2.3135,2.3135,2.3714,2.4296,2.4787,2.588,2.6801,2.7441,2.7844,2.7855,2.7441,2.7844,2.8096,2.8084,2.8597,2.9197,0.0,0.0,0.0,0.0,0.0,0.0,0.0,0.0,0.0,0.0,0.0,0.0,0.0,0.0,0.0,0.0,0.0,0.0,0.0,0.0,0.0,0.0,0.0,0.0,0.0,0.0,0.0,2.9792,2.9792,2.9566,2.9051,2.9026,2.8762,2.821,2.8197,2.7934,2.7381,2.7369,2.7092,2.6622,2.6622,2.6005,2.4933,2.4036,2.3106,2.2101,2.2059,2.1737,2.135,2.1716,2.2133,2.2507,2.2559,2.2301,2.1943,2.2412,2.3227,2.4169,2.4492,2.4617,2.4787,2.5964,2.5641,2.4957,2.5964,2.563,2.4787,2.4628,2.3877,2.3135,2.3135,2.3135,2.3135,2.3135,2.3135,2.3135,2.3135,2.3135,2.3135,2.3135,2.3135,2.3135,2.3135,2.3135,2.3135,2.3135,2.3135,2.3135,2.3135,2.3135,2.3135,2.3135,2.3135,2.3135,2.3135,2.3135,2.3135,2.3135,2.3135,2.3551,2.4542,2.5546,2.6224,2.6483,2.7522,2.7602,2.6483,2.7602,2.8096,2.8096,2.9275,2.9792,0.0,0.0,0.0,0.0,0.0,0.0,0.0,0.0,0.0,0.0,0.0,0.0,0.0,0.0,0.0,0.0,0.0,0.0,0.0,0.0,0.0,0.0,0.0,0.0,0.0,0.0,2.9792,2.9792,2.9792,2.9741,2.9628,2.9616,2.9365,2.8787,2.8762,2.8499,2.7946,2.7946,2.767,2.7118,2.7118,2.6374,2.5004,2.4791,2.3886,2.2573,2.2195,2.192,2.1728,2.143,2.1382,2.157,2.1927,2.1961,2.1982,2.2734,2.3095,2.3355,2.3444,2.3474,2.3637,2.4798,2.4957,2.4872,2.5041,2.4957,2.4628,2.3714,2.3299,2.3135,2.3135,2.3135,2.3135,2.3135,2.3135,2.3135,2.3135,2.3135,2.3135,2.3135,2.3135,2.3135,2.3135,2.3135,2.3135,2.3135,2.3135,2.3135,2.3135,2.3135,2.3135,2.3135,2.3135,2.3135,2.3135,2.3135,2.3135,2.3135,2.3135,2.3222,2.3377,2.3637,2.4648,2.6472,2.7522,2.7602,2.6483,2.7602,2.8096,2.8096,2.9275,2.9792,0.0,0.0,0.0,2.4813,0.0,0.0,0.0,0.0,0.0,0.0,0.0,0.0,0.0,0.0,0.0,0.0,0.0,0.0,0.0,0.0,0.0,0.0,0.0,0.0,0.0,0.0,2.9792,2.9792,2.9792,2.9792,2.9792,2.9792,2.9666,2.9365,2.9365,2.8836,2.7726,2.7714,2.7134,2.6071,2.5811,2.511,2.3821,2.3821,2.3123,2.1987,2.1987,2.2059,2.2168,2.1738,2.1689,2.1894,2.2109,2.2324,2.2568,2.2988,2.3135,2.3135,2.3135,2.3135,2.3222,2.38,2.3963,2.3963,2.3963,2.3963,2.379,2.3222,2.3135,2.3135,2.3135,2.3135,2.3135,2.3135,2.3135,2.3135,2.3135,2.3135,2.3135,2.3135,2.3135,2.3135,2.3135,2.3135,2.3135,2.3135,2.3135,2.3135,2.3135,2.3135,2.3135,2.3135,2.3135,2.3135,2.3135,2.3135,2.3135,2.3135,2.3135,2.3387,2.3877,2.3963,2.4467,2.563,2.6202,2.6202,2.5641,2.7267,2.8096,2.8096,2.9275,2.9792,0.0,0.0,0.0,0.0,0.0,2.641,0.0,0.0,0.0,0.0,0.0,0.0,0.0,0.0,0.0,0.0,0.0,0.0,0.0,0.0,0.0,0.0,0.0,0.0,0.0,0.0,2.9065,2.9431,2.9334,2.9309,2.9443,2.9702,2.9792,2.9792,2.9792,2.9065,2.7466,2.7454,2.6636,2.496,2.4647,2.3831,2.273,2.2746,2.2206,2.126,2.1699,2.2129,2.248,2.2148,2.2256,2.2627,2.2549,2.2715,2.3027,2.3105,2.3135,2.3135,2.3135,2.3135,2.3135,2.3135,2.3135,2.3135,2.3135,2.3135,2.3135,2.3135,2.3135,2.3135,2.3135,2.3135,2.3135,2.3135,2.3135,2.3135,2.3135,2.3135,2.3135,2.3135,2.3135,2.3135,2.3135,2.3135,2.3135,2.3135,2.3135,2.3135,2.3135,2.3135,2.3135,2.3135,2.3135,2.3135,2.3135,2.3135,2.3135,2.3135,2.3135,2.3551,2.4457,2.4702,2.4702,2.4457,2.4872,2.5041,2.4787,2.7115,2.8238,2.8319,2.9436,3.0005,0.0,0.0,0.0,0.0,2.5328,0.0,0.0,0.0,0.0,0.0,0.0,0.0,0.0,0.0,0.0,0.0,0.0,0.0,0.0,0.0,0.0,0.0,0.0,0.0,0.0,0.0,0.0,2.8183,2.756,2.744,2.8219,2.9275,2.9792,2.9792,2.9792,2.925,2.8001,2.8001,2.7172,2.5472,2.5496,2.4465,2.2741,2.3071,2.2502,2.126,2.1699,2.2129,2.251,2.2461,2.2685,2.3027,2.2656,2.2539,2.2627,2.2998,2.3135,2.3135,2.3135,2.3135,2.3135,2.3135,2.3135,2.3135,2.3135,2.3135,2.3135,2.3135,2.3135,2.3135,2.3135,2.3135,2.3135,2.3135,2.3135,2.3135,2.3135,2.3135,2.3135,2.3135,2.3135,2.3135,2.3135,2.3135,2.3135,2.3135,2.3135,2.3135,2.3135,2.3135,2.3135,2.3135,2.3135,2.3135,2.3135,2.3135,2.3135,2.3135,2.3135,2.3135,2.3309,2.4296,2.4296,2.3299,2.5305,2.5808,2.4787,2.747,2.8785,2.8867,2.9992,3.0771,0.0,0.0,0.0,0.0,0.0,0.0,0.0,0.0,2.327,0.0,0.0,0.0,0.0,0.0,0.0,0.0,0.0,0.0,0.0,0.0,0.0,0.0,0.0,0.0,0.0,0.0,0.0,0.0,0.0,2.6527,2.8036,2.8518,2.8767,2.8767,2.8767,2.7936,2.6191,2.6191,2.5521,2.4178,2.3919,2.335,2.2603,2.2784,2.2536,2.2002,2.2432,2.2715,2.2881,2.2881,2.2978,2.3125,2.2939,2.2881,2.29,2.3076,2.3135,2.3135,2.3135,2.3135,2.3135,2.3135,2.3135,2.3135,2.3135,2.3135,2.3135,2.3135,2.3135,2.3135,2.3135,2.3135,2.3135,2.3135,2.3135,2.3135,2.3135,2.3135,2.3135,2.3135,2.3135,2.3135,2.3135,2.3135,2.3135,2.3135,2.3135,2.3135,2.3135,2.3135,2.3135,2.3135,2.3135,2.3135,2.3135,2.3135,2.3135,2.3135,2.3135,2.3387,2.4049,2.3877,2.3551,2.3135,2.4723,2.563,2.5797,2.7869,2.9364,3.036,3.0804,3.1022,2.5494,0.0,0.0,0.0,0.0,0.0,0.0,0.0,0.0,0.0,0.0,0.0,0.0,0.0,0.0,0.0,0.0,0.0,0.0,0.0,0.0,0.0,0.0,0.0,0.0,0.0,0.0,0.0,0.0,0.0,2.7105,2.7763,2.7936,2.7683,2.7924,2.7012,2.4787,2.4787,2.4211,2.3135,2.2832,2.2627,2.2519,2.2627,2.2559,2.2373,2.291,2.3076,2.2969,2.3096,2.3135,2.3135,2.3135,2.3135,2.3135,2.3135,2.3135,2.3135,2.3135,2.3135,2.3135,2.3135,2.3135,2.3135,2.3135,2.3135,2.3135,2.3135,2.3135,2.3135,2.3135,2.3135,2.3135,2.3135,2.3135,2.3135,2.3135,2.3135,2.3135,2.3135,2.3135,2.3135,2.3135,2.3135,2.3135,2.3135,2.3135,2.3135,2.3135,2.3135,2.3135,2.3135,2.3135,2.3135,2.3135,2.3135,2.3222,2.3551,2.3887,2.4221,2.4787,2.4049,2.3377,2.3144,2.4553,2.5779,2.6757,2.8669,3.0229,3.1386,3.1549,3.1499,0.0,0.0,0.0,0.0,0.0,0.0,0.0,0.0,2.2309,0.0,0.0,0.0,0.0,0.0,0.0,0.0,0.0,0.0,0.0,0.0,0.0,0.0,0.0,0.0,0.0,0.0,0.0,0.0,0.0,0.0,2.4767,2.693,2.7602,2.6554,2.7533,2.7012,2.4787,2.4787,2.4211,2.3135,2.3125,2.291,2.2519,2.293,2.2676,2.1953,2.2783,2.291,2.2568,2.2969,2.3135,2.3135,2.3135,2.3135,2.3135,2.3135,2.3135,2.3135,2.3135,2.3135,2.3135,2.3135,2.3135,2.3135,2.3135,2.3135,2.3135,2.3135,2.3135,2.3135,2.3135,2.3135,2.3135,2.3135,2.3135,2.3135,2.3135,2.3135,2.3135,2.3135,2.3135,2.3135,2.3135,2.3135,2.3135,2.3135,2.3135,2.3135,2.3135,2.3135,2.3135,2.3135,2.3135,2.3135,2.3135,2.3135,2.3551,2.4713,2.5808,2.588,2.4872,2.4787,2.4211,2.3135,2.5305,2.6707,2.7273,2.9985,3.1373,3.1399,3.1938,3.2478,0.0,0.0,2.7745,2.6276,0.0,0.0,0.0,0.0,0.0,0.0,0.0,0.0,0.0,0.0,0.0,0.0,0.0,0.0,0.0,0.0,0.0,0.0,0.0,0.0,0.0,0.0,0.0,0.0,0.0,0.0,0.0,2.5535,2.6119,2.6483,2.6883,2.6295,2.4787,2.4787,2.4211,2.3135,2.3135,2.3066,2.293,2.3076,2.2988,2.2734,2.3018,2.3057,2.2939,2.3076,2.3135,2.3135,2.3135,2.3135,2.3135,2.3135,2.3135,2.3135,2.3135,2.3135,2.3135,2.3135,2.3135,2.3135,2.3135,2.3135,2.3135,2.3135,2.3135,2.3135,2.3135,2.3135,2.3135,2.3135,2.3135,2.3135,2.3135,2.3135,2.3135,2.3135,2.3135,2.3135,2.3135,2.3135,2.3135,2.3135,2.3135,2.3135,2.3135,2.3135,2.3135,2.3135,2.3135,2.3135,2.3135,2.3135,2.3551,2.4702,2.4467,2.4723,2.588,2.4467,2.3887,2.4211,2.5349,2.6354,2.7296,2.9676,3.1245,3.1951,3.2516,3.2692,2.7704,2.836,0.0,0.0,2.5804,0.0,0.0,0.0,0.0,0.0,0.0,0.0,0.0,0.0,0.0,0.0,0.0,0.0,0.0,0.0,0.0,0.0,0.0,0.0,0.0,0.0,0.0,0.0,0.0,0.0,0.0,0.0,2.4957,2.5305,2.5724,2.5389,2.4211,2.4211,2.38,2.3135,2.3135,2.3135,2.3135,2.3135,2.3135,2.3135,2.3135,2.3135,2.3135,2.3135,2.3135,2.3135,2.3135,2.3135,2.3135,2.3135,2.3135,2.3135,2.3135,2.3135,2.3135,2.3135,2.3135,2.3135,2.3135,2.3135,2.3135,2.3135,2.3135,2.3135,2.3135,2.3135,2.3135,2.3135,2.3135,2.3135,2.3135,2.3135,2.3135,2.3135,2.2765,2.2589,2.3047,2.2589,2.2403,2.3047,2.3135,2.3135,2.3135,2.3135,2.3135,2.3135,2.3135,2.3135,2.3135,2.356,2.4145,2.4787,2.4467,2.4808,2.588,2.4893,2.4467,2.4787,2.6086,2.7267,2.8161,3.0204,3.1613,3.2528,3.2905,3.288]}]]